<?xml version="1.0" encoding="UTF-8" standalone="no" ?>
<gpx xmlns="http://www.topografix.com/GPX/1/1" xmlns:xsi="http://www.w3.org/2001/XMLSchema-instance" xsi:schemaLocation="http://www.topografix.com/GPX/1/1 http://www.topografix.com/GPX/1/1/gpx.xsd" version="1.1" creator="VisuGPX - https://www.visugpx.com">
  <metadata>
    <name>Montolieu</name>
  </metadata>
  <trk>
    <name><![CDATA[randogps11-471]]></name>
    <extensions>
      <line xmlns="http://www.topografix.com/GPX/gpx_style/0/2">
        <color>0000FF</color>
        <width>4</width>
      </line>
    </extensions>
    <trkseg>
      <trkpt lat="43.30796" lon="2.21603">
        <ele>160.2</ele>
        <time>2022-01-16T08:17:34Z</time>
      </trkpt>
      <trkpt lat="43.30799" lon="2.21609">
        <ele>163.9</ele>
        <time>2022-01-16T08:17:41Z</time>
      </trkpt>
      <trkpt lat="43.308" lon="2.21615">
        <ele>163.8</ele>
        <time>2022-01-16T08:17:43Z</time>
      </trkpt>
      <trkpt lat="43.30799" lon="2.2163">
        <ele>161.2</ele>
        <time>2022-01-16T08:17:53Z</time>
      </trkpt>
      <trkpt lat="43.30798" lon="2.21638">
        <ele>161.4</ele>
        <time>2022-01-16T08:17:58Z</time>
      </trkpt>
      <trkpt lat="43.30798" lon="2.21651">
        <ele>161.4</ele>
        <time>2022-01-16T08:18:07Z</time>
      </trkpt>
      <trkpt lat="43.30796" lon="2.21657">
        <ele>161</ele>
        <time>2022-01-16T08:18:11Z</time>
      </trkpt>
      <trkpt lat="43.30794" lon="2.21663">
        <ele>160.7</ele>
        <time>2022-01-16T08:18:15Z</time>
      </trkpt>
      <trkpt lat="43.30792" lon="2.2167">
        <ele>160.7</ele>
        <time>2022-01-16T08:18:20Z</time>
      </trkpt>
      <trkpt lat="43.30789" lon="2.21684">
        <ele>161.9</ele>
        <time>2022-01-16T08:18:33Z</time>
      </trkpt>
      <trkpt lat="43.30785" lon="2.21696">
        <ele>161.8</ele>
        <time>2022-01-16T08:18:41Z</time>
      </trkpt>
      <trkpt lat="43.30781" lon="2.21701">
        <ele>161.3</ele>
        <time>2022-01-16T08:18:46Z</time>
      </trkpt>
      <trkpt lat="43.30774" lon="2.21712">
        <ele>159.7</ele>
        <time>2022-01-16T08:18:53Z</time>
      </trkpt>
      <trkpt lat="43.3077" lon="2.21726">
        <ele>158.9</ele>
        <time>2022-01-16T08:19:02Z</time>
      </trkpt>
      <trkpt lat="43.30767" lon="2.21732">
        <ele>157.7</ele>
        <time>2022-01-16T08:19:16Z</time>
      </trkpt>
      <trkpt lat="43.30765" lon="2.21738">
        <ele>157.1</ele>
        <time>2022-01-16T08:19:21Z</time>
      </trkpt>
      <trkpt lat="43.30763" lon="2.21743">
        <ele>155.9</ele>
        <time>2022-01-16T08:19:28Z</time>
      </trkpt>
      <trkpt lat="43.30763" lon="2.21751">
        <ele>154.8</ele>
        <time>2022-01-16T08:19:51Z</time>
      </trkpt>
      <trkpt lat="43.3076" lon="2.21756">
        <ele>154.9</ele>
        <time>2022-01-16T08:19:55Z</time>
      </trkpt>
      <trkpt lat="43.30756" lon="2.2176">
        <ele>154.9</ele>
        <time>2022-01-16T08:19:58Z</time>
      </trkpt>
      <trkpt lat="43.30752" lon="2.21773">
        <ele>153</ele>
        <time>2022-01-16T08:20:06Z</time>
      </trkpt>
      <trkpt lat="43.30751" lon="2.2178">
        <ele>152.2</ele>
        <time>2022-01-16T08:20:11Z</time>
      </trkpt>
      <trkpt lat="43.30751" lon="2.21787">
        <ele>152</ele>
        <time>2022-01-16T08:20:16Z</time>
      </trkpt>
      <trkpt lat="43.3075" lon="2.21794">
        <ele>152</ele>
        <time>2022-01-16T08:20:21Z</time>
      </trkpt>
      <trkpt lat="43.30751" lon="2.21801">
        <ele>152</ele>
        <time>2022-01-16T08:20:26Z</time>
      </trkpt>
      <trkpt lat="43.30753" lon="2.21816">
        <ele>152.3</ele>
        <time>2022-01-16T08:20:36Z</time>
      </trkpt>
      <trkpt lat="43.30754" lon="2.21822">
        <ele>152.4</ele>
        <time>2022-01-16T08:20:43Z</time>
      </trkpt>
      <trkpt lat="43.30754" lon="2.21831">
        <ele>152.3</ele>
        <time>2022-01-16T08:20:51Z</time>
      </trkpt>
      <trkpt lat="43.30754" lon="2.21837">
        <ele>152.4</ele>
        <time>2022-01-16T08:20:54Z</time>
      </trkpt>
      <trkpt lat="43.30753" lon="2.21844">
        <ele>152.1</ele>
        <time>2022-01-16T08:21:00Z</time>
      </trkpt>
      <trkpt lat="43.30753" lon="2.2185">
        <ele>151.6</ele>
        <time>2022-01-16T08:21:04Z</time>
      </trkpt>
      <trkpt lat="43.30754" lon="2.21856">
        <ele>151.4</ele>
        <time>2022-01-16T08:21:08Z</time>
      </trkpt>
      <trkpt lat="43.30751" lon="2.21862">
        <ele>151.4</ele>
        <time>2022-01-16T08:21:18Z</time>
      </trkpt>
      <trkpt lat="43.30746" lon="2.21864">
        <ele>152</ele>
        <time>2022-01-16T08:21:25Z</time>
      </trkpt>
      <trkpt lat="43.30741" lon="2.21864">
        <ele>152.2</ele>
        <time>2022-01-16T08:21:30Z</time>
      </trkpt>
      <trkpt lat="43.30736" lon="2.21865">
        <ele>152.8</ele>
        <time>2022-01-16T08:21:41Z</time>
      </trkpt>
      <trkpt lat="43.30725" lon="2.21869">
        <ele>152.6</ele>
        <time>2022-01-16T08:22:01Z</time>
      </trkpt>
      <trkpt lat="43.30716" lon="2.21877">
        <ele>152.5</ele>
        <time>2022-01-16T08:22:08Z</time>
      </trkpt>
      <trkpt lat="43.30712" lon="2.21881">
        <ele>151.7</ele>
        <time>2022-01-16T08:22:12Z</time>
      </trkpt>
      <trkpt lat="43.30709" lon="2.21886">
        <ele>151.1</ele>
        <time>2022-01-16T08:22:16Z</time>
      </trkpt>
      <trkpt lat="43.30703" lon="2.21897">
        <ele>150.9</ele>
        <time>2022-01-16T08:22:22Z</time>
      </trkpt>
      <trkpt lat="43.307" lon="2.21902">
        <ele>151.4</ele>
        <time>2022-01-16T08:22:28Z</time>
      </trkpt>
      <trkpt lat="43.30699" lon="2.21908">
        <ele>152.3</ele>
        <time>2022-01-16T08:22:33Z</time>
      </trkpt>
      <trkpt lat="43.30694" lon="2.2192">
        <ele>153</ele>
        <time>2022-01-16T08:22:43Z</time>
      </trkpt>
      <trkpt lat="43.30689" lon="2.21941">
        <ele>153.8</ele>
        <time>2022-01-16T08:22:53Z</time>
      </trkpt>
      <trkpt lat="43.30686" lon="2.21955">
        <ele>154.5</ele>
        <time>2022-01-16T08:23:01Z</time>
      </trkpt>
      <trkpt lat="43.30683" lon="2.21969">
        <ele>154.9</ele>
        <time>2022-01-16T08:23:10Z</time>
      </trkpt>
      <trkpt lat="43.3068" lon="2.21983">
        <ele>155.3</ele>
        <time>2022-01-16T08:23:18Z</time>
      </trkpt>
      <trkpt lat="43.30679" lon="2.2199">
        <ele>155.6</ele>
        <time>2022-01-16T08:23:23Z</time>
      </trkpt>
      <trkpt lat="43.30678" lon="2.21998">
        <ele>156.1</ele>
        <time>2022-01-16T08:23:28Z</time>
      </trkpt>
      <trkpt lat="43.30672" lon="2.22017">
        <ele>156.8</ele>
        <time>2022-01-16T08:23:40Z</time>
      </trkpt>
      <trkpt lat="43.30669" lon="2.22031">
        <ele>157.3</ele>
        <time>2022-01-16T08:23:48Z</time>
      </trkpt>
      <trkpt lat="43.30665" lon="2.22043">
        <ele>157.6</ele>
        <time>2022-01-16T08:23:56Z</time>
      </trkpt>
      <trkpt lat="43.30662" lon="2.22048">
        <ele>157.8</ele>
        <time>2022-01-16T08:24:00Z</time>
      </trkpt>
      <trkpt lat="43.30658" lon="2.22054">
        <ele>157.9</ele>
        <time>2022-01-16T08:24:04Z</time>
      </trkpt>
      <trkpt lat="43.30654" lon="2.22067">
        <ele>156.5</ele>
        <time>2022-01-16T08:24:16Z</time>
      </trkpt>
      <trkpt lat="43.30651" lon="2.22073">
        <ele>156.3</ele>
        <time>2022-01-16T08:24:20Z</time>
      </trkpt>
      <trkpt lat="43.30639" lon="2.22098">
        <ele>157.3</ele>
        <time>2022-01-16T08:24:34Z</time>
      </trkpt>
      <trkpt lat="43.30636" lon="2.22105">
        <ele>157.6</ele>
        <time>2022-01-16T08:24:38Z</time>
      </trkpt>
      <trkpt lat="43.30629" lon="2.22124">
        <ele>158</ele>
        <time>2022-01-16T08:24:50Z</time>
      </trkpt>
      <trkpt lat="43.30625" lon="2.22137">
        <ele>158.1</ele>
        <time>2022-01-16T08:25:00Z</time>
      </trkpt>
      <trkpt lat="43.30623" lon="2.22143">
        <ele>158.3</ele>
        <time>2022-01-16T08:25:04Z</time>
      </trkpt>
      <trkpt lat="43.30618" lon="2.22149">
        <ele>158.4</ele>
        <time>2022-01-16T08:25:09Z</time>
      </trkpt>
      <trkpt lat="43.30609" lon="2.22156">
        <ele>158.1</ele>
        <time>2022-01-16T08:25:20Z</time>
      </trkpt>
      <trkpt lat="43.30605" lon="2.22161">
        <ele>160.2</ele>
        <time>2022-01-16T08:25:48Z</time>
      </trkpt>
      <trkpt lat="43.30602" lon="2.22166">
        <ele>160.3</ele>
        <time>2022-01-16T08:26:11Z</time>
      </trkpt>
      <trkpt lat="43.30597" lon="2.22177">
        <ele>160.3</ele>
        <time>2022-01-16T08:26:25Z</time>
      </trkpt>
      <trkpt lat="43.30584" lon="2.22188">
        <ele>160.5</ele>
        <time>2022-01-16T08:26:50Z</time>
      </trkpt>
      <trkpt lat="43.30579" lon="2.22193">
        <ele>160.6</ele>
        <time>2022-01-16T08:26:55Z</time>
      </trkpt>
      <trkpt lat="43.30573" lon="2.22198">
        <ele>160.8</ele>
        <time>2022-01-16T08:27:01Z</time>
      </trkpt>
      <trkpt lat="43.30565" lon="2.22206">
        <ele>161.2</ele>
        <time>2022-01-16T08:27:09Z</time>
      </trkpt>
      <trkpt lat="43.30559" lon="2.22216">
        <ele>162.8</ele>
        <time>2022-01-16T08:27:19Z</time>
      </trkpt>
      <trkpt lat="43.30556" lon="2.22221">
        <ele>163.2</ele>
        <time>2022-01-16T08:27:23Z</time>
      </trkpt>
      <trkpt lat="43.30551" lon="2.22222">
        <ele>164.2</ele>
        <time>2022-01-16T08:27:30Z</time>
      </trkpt>
      <trkpt lat="43.30548" lon="2.22226">
        <ele>164.9</ele>
        <time>2022-01-16T08:27:34Z</time>
      </trkpt>
      <trkpt lat="43.30547" lon="2.22233">
        <ele>165.3</ele>
        <time>2022-01-16T08:27:40Z</time>
      </trkpt>
      <trkpt lat="43.30545" lon="2.2224">
        <ele>166.8</ele>
        <time>2022-01-16T08:27:46Z</time>
      </trkpt>
      <trkpt lat="43.30536" lon="2.22257">
        <ele>167.8</ele>
        <time>2022-01-16T08:27:56Z</time>
      </trkpt>
      <trkpt lat="43.30533" lon="2.22264">
        <ele>167.5</ele>
        <time>2022-01-16T08:28:01Z</time>
      </trkpt>
      <trkpt lat="43.3053" lon="2.2227">
        <ele>167.6</ele>
        <time>2022-01-16T08:28:08Z</time>
      </trkpt>
      <trkpt lat="43.30528" lon="2.22275">
        <ele>168.4</ele>
        <time>2022-01-16T08:28:12Z</time>
      </trkpt>
      <trkpt lat="43.30526" lon="2.22289">
        <ele>170.8</ele>
        <time>2022-01-16T08:28:23Z</time>
      </trkpt>
      <trkpt lat="43.30525" lon="2.22303">
        <ele>171.7</ele>
        <time>2022-01-16T08:28:37Z</time>
      </trkpt>
      <trkpt lat="43.30522" lon="2.22315">
        <ele>172.4</ele>
        <time>2022-01-16T08:28:49Z</time>
      </trkpt>
      <trkpt lat="43.30521" lon="2.22321">
        <ele>172.8</ele>
        <time>2022-01-16T08:28:53Z</time>
      </trkpt>
      <trkpt lat="43.30517" lon="2.22335">
        <ele>173.8</ele>
        <time>2022-01-16T08:29:00Z</time>
      </trkpt>
      <trkpt lat="43.30513" lon="2.22347">
        <ele>175</ele>
        <time>2022-01-16T08:29:07Z</time>
      </trkpt>
      <trkpt lat="43.30509" lon="2.22361">
        <ele>177.2</ele>
        <time>2022-01-16T08:29:18Z</time>
      </trkpt>
      <trkpt lat="43.30507" lon="2.22374">
        <ele>178.1</ele>
        <time>2022-01-16T08:29:28Z</time>
      </trkpt>
      <trkpt lat="43.30507" lon="2.22381">
        <ele>178.5</ele>
        <time>2022-01-16T08:29:32Z</time>
      </trkpt>
      <trkpt lat="43.30507" lon="2.22388">
        <ele>179.4</ele>
        <time>2022-01-16T08:29:40Z</time>
      </trkpt>
      <trkpt lat="43.30508" lon="2.22395">
        <ele>181.5</ele>
        <time>2022-01-16T08:29:51Z</time>
      </trkpt>
      <trkpt lat="43.30503" lon="2.22392">
        <ele>183.6</ele>
        <time>2022-01-16T08:30:15Z</time>
      </trkpt>
      <trkpt lat="43.30503" lon="2.22386">
        <ele>183.6</ele>
        <time>2022-01-16T08:30:22Z</time>
      </trkpt>
      <trkpt lat="43.305" lon="2.22381">
        <ele>185</ele>
        <time>2022-01-16T08:30:31Z</time>
      </trkpt>
      <trkpt lat="43.30496" lon="2.22379">
        <ele>186.3</ele>
        <time>2022-01-16T08:30:42Z</time>
      </trkpt>
      <trkpt lat="43.30493" lon="2.22373">
        <ele>187.6</ele>
        <time>2022-01-16T08:31:19Z</time>
      </trkpt>
      <trkpt lat="43.3049" lon="2.22368">
        <ele>188</ele>
        <time>2022-01-16T08:31:25Z</time>
      </trkpt>
      <trkpt lat="43.30487" lon="2.22363">
        <ele>187.9</ele>
        <time>2022-01-16T08:31:31Z</time>
      </trkpt>
      <trkpt lat="43.30483" lon="2.22357">
        <ele>187.9</ele>
        <time>2022-01-16T08:31:38Z</time>
      </trkpt>
      <trkpt lat="43.30481" lon="2.22351">
        <ele>188.5</ele>
        <time>2022-01-16T08:31:43Z</time>
      </trkpt>
      <trkpt lat="43.30479" lon="2.22343">
        <ele>189.4</ele>
        <time>2022-01-16T08:31:48Z</time>
      </trkpt>
      <trkpt lat="43.30477" lon="2.22335">
        <ele>190.4</ele>
        <time>2022-01-16T08:31:53Z</time>
      </trkpt>
      <trkpt lat="43.30478" lon="2.22327">
        <ele>190.8</ele>
        <time>2022-01-16T08:31:58Z</time>
      </trkpt>
      <trkpt lat="43.30479" lon="2.22318">
        <ele>191.1</ele>
        <time>2022-01-16T08:32:03Z</time>
      </trkpt>
      <trkpt lat="43.3048" lon="2.22303">
        <ele>191.5</ele>
        <time>2022-01-16T08:32:10Z</time>
      </trkpt>
      <trkpt lat="43.30481" lon="2.22296">
        <ele>191.7</ele>
        <time>2022-01-16T08:32:15Z</time>
      </trkpt>
      <trkpt lat="43.3048" lon="2.22289">
        <ele>193</ele>
        <time>2022-01-16T08:32:23Z</time>
      </trkpt>
      <trkpt lat="43.30477" lon="2.22268">
        <ele>194.8</ele>
        <time>2022-01-16T08:32:36Z</time>
      </trkpt>
      <trkpt lat="43.30477" lon="2.22261">
        <ele>194.8</ele>
        <time>2022-01-16T08:32:40Z</time>
      </trkpt>
      <trkpt lat="43.30477" lon="2.22254">
        <ele>194.5</ele>
        <time>2022-01-16T08:32:44Z</time>
      </trkpt>
      <trkpt lat="43.30477" lon="2.22247">
        <ele>194.3</ele>
        <time>2022-01-16T08:32:48Z</time>
      </trkpt>
      <trkpt lat="43.30476" lon="2.22241">
        <ele>194.4</ele>
        <time>2022-01-16T08:32:53Z</time>
      </trkpt>
      <trkpt lat="43.30476" lon="2.22232">
        <ele>194.7</ele>
        <time>2022-01-16T08:32:58Z</time>
      </trkpt>
      <trkpt lat="43.30477" lon="2.22226">
        <ele>194.6</ele>
        <time>2022-01-16T08:33:01Z</time>
      </trkpt>
      <trkpt lat="43.30481" lon="2.22213">
        <ele>194</ele>
        <time>2022-01-16T08:33:11Z</time>
      </trkpt>
      <trkpt lat="43.3048" lon="2.22207">
        <ele>194.5</ele>
        <time>2022-01-16T08:33:16Z</time>
      </trkpt>
      <trkpt lat="43.30481" lon="2.22202">
        <ele>194.1</ele>
        <time>2022-01-16T08:33:21Z</time>
      </trkpt>
      <trkpt lat="43.30483" lon="2.22208">
        <ele>190.5</ele>
        <time>2022-01-16T08:34:30Z</time>
      </trkpt>
      <trkpt lat="43.30481" lon="2.22202">
        <ele>191</ele>
        <time>2022-01-16T08:34:52Z</time>
      </trkpt>
      <trkpt lat="43.30476" lon="2.22198">
        <ele>191.2</ele>
        <time>2022-01-16T08:35:11Z</time>
      </trkpt>
      <trkpt lat="43.30473" lon="2.22194">
        <ele>192.1</ele>
        <time>2022-01-16T08:35:16Z</time>
      </trkpt>
      <trkpt lat="43.30464" lon="2.22189">
        <ele>191.4</ele>
        <time>2022-01-16T08:35:28Z</time>
      </trkpt>
      <trkpt lat="43.30459" lon="2.22188">
        <ele>190.6</ele>
        <time>2022-01-16T08:35:32Z</time>
      </trkpt>
      <trkpt lat="43.30449" lon="2.22183">
        <ele>188.9</ele>
        <time>2022-01-16T08:35:39Z</time>
      </trkpt>
      <trkpt lat="43.30434" lon="2.22179">
        <ele>187.6</ele>
        <time>2022-01-16T08:35:50Z</time>
      </trkpt>
      <trkpt lat="43.30424" lon="2.22173">
        <ele>187.3</ele>
        <time>2022-01-16T08:36:00Z</time>
      </trkpt>
      <trkpt lat="43.30419" lon="2.2217">
        <ele>186.8</ele>
        <time>2022-01-16T08:36:03Z</time>
      </trkpt>
      <trkpt lat="43.30416" lon="2.22165">
        <ele>186.3</ele>
        <time>2022-01-16T08:36:06Z</time>
      </trkpt>
      <trkpt lat="43.30413" lon="2.22158">
        <ele>185.7</ele>
        <time>2022-01-16T08:36:10Z</time>
      </trkpt>
      <trkpt lat="43.30409" lon="2.22153">
        <ele>184.9</ele>
        <time>2022-01-16T08:36:15Z</time>
      </trkpt>
      <trkpt lat="43.30404" lon="2.22147">
        <ele>184.1</ele>
        <time>2022-01-16T08:36:20Z</time>
      </trkpt>
      <trkpt lat="43.304" lon="2.22142">
        <ele>183.8</ele>
        <time>2022-01-16T08:36:25Z</time>
      </trkpt>
      <trkpt lat="43.3039" lon="2.22137">
        <ele>183.4</ele>
        <time>2022-01-16T08:36:34Z</time>
      </trkpt>
      <trkpt lat="43.30382" lon="2.22128">
        <ele>182.6</ele>
        <time>2022-01-16T08:36:42Z</time>
      </trkpt>
      <trkpt lat="43.30377" lon="2.22126">
        <ele>181.4</ele>
        <time>2022-01-16T08:36:46Z</time>
      </trkpt>
      <trkpt lat="43.30372" lon="2.22123">
        <ele>180.2</ele>
        <time>2022-01-16T08:36:50Z</time>
      </trkpt>
      <trkpt lat="43.3037" lon="2.22117">
        <ele>179.3</ele>
        <time>2022-01-16T08:36:53Z</time>
      </trkpt>
      <trkpt lat="43.30366" lon="2.22111">
        <ele>177.6</ele>
        <time>2022-01-16T08:36:57Z</time>
      </trkpt>
      <trkpt lat="43.30362" lon="2.22107">
        <ele>176.5</ele>
        <time>2022-01-16T08:37:00Z</time>
      </trkpt>
      <trkpt lat="43.30358" lon="2.22107">
        <ele>174.5</ele>
        <time>2022-01-16T08:37:29Z</time>
      </trkpt>
      <trkpt lat="43.30352" lon="2.22103">
        <ele>174.1</ele>
        <time>2022-01-16T08:37:33Z</time>
      </trkpt>
      <trkpt lat="43.30344" lon="2.22095">
        <ele>172.7</ele>
        <time>2022-01-16T08:37:42Z</time>
      </trkpt>
      <trkpt lat="43.3034" lon="2.2209">
        <ele>172.2</ele>
        <time>2022-01-16T08:37:46Z</time>
      </trkpt>
      <trkpt lat="43.30333" lon="2.22081">
        <ele>172.1</ele>
        <time>2022-01-16T08:37:52Z</time>
      </trkpt>
      <trkpt lat="43.30324" lon="2.22074">
        <ele>171.6</ele>
        <time>2022-01-16T08:37:59Z</time>
      </trkpt>
      <trkpt lat="43.30317" lon="2.22067">
        <ele>170.9</ele>
        <time>2022-01-16T08:38:07Z</time>
      </trkpt>
      <trkpt lat="43.30308" lon="2.2206">
        <ele>168.3</ele>
        <time>2022-01-16T08:38:18Z</time>
      </trkpt>
      <trkpt lat="43.30305" lon="2.22055">
        <ele>167</ele>
        <time>2022-01-16T08:38:23Z</time>
      </trkpt>
      <trkpt lat="43.30297" lon="2.22047">
        <ele>165.8</ele>
        <time>2022-01-16T08:40:32Z</time>
      </trkpt>
      <trkpt lat="43.30285" lon="2.22034">
        <ele>165.9</ele>
        <time>2022-01-16T08:40:47Z</time>
      </trkpt>
      <trkpt lat="43.30282" lon="2.2203">
        <ele>165.6</ele>
        <time>2022-01-16T08:40:51Z</time>
      </trkpt>
      <trkpt lat="43.30278" lon="2.22024">
        <ele>164.8</ele>
        <time>2022-01-16T08:40:55Z</time>
      </trkpt>
      <trkpt lat="43.30271" lon="2.22015">
        <ele>163.4</ele>
        <time>2022-01-16T08:41:03Z</time>
      </trkpt>
      <trkpt lat="43.30264" lon="2.22006">
        <ele>164</ele>
        <time>2022-01-16T08:41:13Z</time>
      </trkpt>
      <trkpt lat="43.30258" lon="2.22002">
        <ele>164.2</ele>
        <time>2022-01-16T08:41:17Z</time>
      </trkpt>
      <trkpt lat="43.30254" lon="2.22">
        <ele>164.3</ele>
        <time>2022-01-16T08:41:22Z</time>
      </trkpt>
      <trkpt lat="43.30249" lon="2.22001">
        <ele>165.2</ele>
        <time>2022-01-16T08:41:27Z</time>
      </trkpt>
      <trkpt lat="43.30243" lon="2.22005">
        <ele>165.6</ele>
        <time>2022-01-16T08:41:32Z</time>
      </trkpt>
      <trkpt lat="43.30236" lon="2.22016">
        <ele>165.4</ele>
        <time>2022-01-16T08:41:42Z</time>
      </trkpt>
      <trkpt lat="43.30233" lon="2.22022">
        <ele>165</ele>
        <time>2022-01-16T08:41:46Z</time>
      </trkpt>
      <trkpt lat="43.30221" lon="2.22036">
        <ele>163.4</ele>
        <time>2022-01-16T08:41:56Z</time>
      </trkpt>
      <trkpt lat="43.30217" lon="2.22041">
        <ele>162.1</ele>
        <time>2022-01-16T08:42:00Z</time>
      </trkpt>
      <trkpt lat="43.30203" lon="2.22052">
        <ele>156.9</ele>
        <time>2022-01-16T08:42:12Z</time>
      </trkpt>
      <trkpt lat="43.3019" lon="2.22065">
        <ele>154.4</ele>
        <time>2022-01-16T08:42:23Z</time>
      </trkpt>
      <trkpt lat="43.30187" lon="2.22069">
        <ele>153.8</ele>
        <time>2022-01-16T08:42:27Z</time>
      </trkpt>
      <trkpt lat="43.3018" lon="2.2208">
        <ele>153</ele>
        <time>2022-01-16T08:42:35Z</time>
      </trkpt>
      <trkpt lat="43.30175" lon="2.22091">
        <ele>152.1</ele>
        <time>2022-01-16T08:42:42Z</time>
      </trkpt>
      <trkpt lat="43.30173" lon="2.22096">
        <ele>151.3</ele>
        <time>2022-01-16T08:42:46Z</time>
      </trkpt>
      <trkpt lat="43.30167" lon="2.22116">
        <ele>147.6</ele>
        <time>2022-01-16T08:42:59Z</time>
      </trkpt>
      <trkpt lat="43.30165" lon="2.22124">
        <ele>147.1</ele>
        <time>2022-01-16T08:43:03Z</time>
      </trkpt>
      <trkpt lat="43.30162" lon="2.2213">
        <ele>145.9</ele>
        <time>2022-01-16T08:43:08Z</time>
      </trkpt>
      <trkpt lat="43.30159" lon="2.22135">
        <ele>144.8</ele>
        <time>2022-01-16T08:43:12Z</time>
      </trkpt>
      <trkpt lat="43.30153" lon="2.22137">
        <ele>144.3</ele>
        <time>2022-01-16T08:43:17Z</time>
      </trkpt>
      <trkpt lat="43.30143" lon="2.22139">
        <ele>144.5</ele>
        <time>2022-01-16T08:43:25Z</time>
      </trkpt>
      <trkpt lat="43.30138" lon="2.2214">
        <ele>145.3</ele>
        <time>2022-01-16T08:43:28Z</time>
      </trkpt>
      <trkpt lat="43.30133" lon="2.22144">
        <ele>146.3</ele>
        <time>2022-01-16T08:43:32Z</time>
      </trkpt>
      <trkpt lat="43.30129" lon="2.22146">
        <ele>147.2</ele>
        <time>2022-01-16T08:43:36Z</time>
      </trkpt>
      <trkpt lat="43.30124" lon="2.22146">
        <ele>147.8</ele>
        <time>2022-01-16T08:43:39Z</time>
      </trkpt>
      <trkpt lat="43.30118" lon="2.22146">
        <ele>148.4</ele>
        <time>2022-01-16T08:43:43Z</time>
      </trkpt>
      <trkpt lat="43.30113" lon="2.22147">
        <ele>148.5</ele>
        <time>2022-01-16T08:43:47Z</time>
      </trkpt>
      <trkpt lat="43.30108" lon="2.22147">
        <ele>148.2</ele>
        <time>2022-01-16T08:43:52Z</time>
      </trkpt>
      <trkpt lat="43.30104" lon="2.22148">
        <ele>147.6</ele>
        <time>2022-01-16T08:43:56Z</time>
      </trkpt>
      <trkpt lat="43.30101" lon="2.22153">
        <ele>146.7</ele>
        <time>2022-01-16T08:44:29Z</time>
      </trkpt>
      <trkpt lat="43.301" lon="2.2216">
        <ele>146.5</ele>
        <time>2022-01-16T08:44:34Z</time>
      </trkpt>
      <trkpt lat="43.30099" lon="2.22168">
        <ele>146.6</ele>
        <time>2022-01-16T08:44:37Z</time>
      </trkpt>
      <trkpt lat="43.30096" lon="2.22181">
        <ele>147.8</ele>
        <time>2022-01-16T08:44:46Z</time>
      </trkpt>
      <trkpt lat="43.30094" lon="2.22194">
        <ele>148.4</ele>
        <time>2022-01-16T08:44:52Z</time>
      </trkpt>
      <trkpt lat="43.30095" lon="2.22202">
        <ele>148.4</ele>
        <time>2022-01-16T08:44:56Z</time>
      </trkpt>
      <trkpt lat="43.301" lon="2.22222">
        <ele>147.6</ele>
        <time>2022-01-16T08:45:08Z</time>
      </trkpt>
      <trkpt lat="43.30101" lon="2.22228">
        <ele>147.1</ele>
        <time>2022-01-16T08:45:12Z</time>
      </trkpt>
      <trkpt lat="43.30102" lon="2.22242">
        <ele>146.5</ele>
        <time>2022-01-16T08:45:21Z</time>
      </trkpt>
      <trkpt lat="43.30105" lon="2.22256">
        <ele>146.5</ele>
        <time>2022-01-16T08:45:32Z</time>
      </trkpt>
      <trkpt lat="43.30106" lon="2.22263">
        <ele>146.4</ele>
        <time>2022-01-16T08:45:36Z</time>
      </trkpt>
      <trkpt lat="43.30105" lon="2.22269">
        <ele>145.8</ele>
        <time>2022-01-16T08:45:41Z</time>
      </trkpt>
      <trkpt lat="43.30107" lon="2.22276">
        <ele>145.8</ele>
        <time>2022-01-16T08:45:49Z</time>
      </trkpt>
      <trkpt lat="43.30107" lon="2.22283">
        <ele>146.6</ele>
        <time>2022-01-16T08:45:55Z</time>
      </trkpt>
      <trkpt lat="43.30109" lon="2.2229">
        <ele>147</ele>
        <time>2022-01-16T08:46:01Z</time>
      </trkpt>
      <trkpt lat="43.30108" lon="2.22306">
        <ele>147.9</ele>
        <time>2022-01-16T08:46:27Z</time>
      </trkpt>
      <trkpt lat="43.3011" lon="2.22328">
        <ele>146.5</ele>
        <time>2022-01-16T08:46:42Z</time>
      </trkpt>
      <trkpt lat="43.3011" lon="2.22336">
        <ele>146.9</ele>
        <time>2022-01-16T08:46:46Z</time>
      </trkpt>
      <trkpt lat="43.30108" lon="2.22342">
        <ele>147.4</ele>
        <time>2022-01-16T08:46:49Z</time>
      </trkpt>
      <trkpt lat="43.30107" lon="2.22349">
        <ele>148.1</ele>
        <time>2022-01-16T08:46:53Z</time>
      </trkpt>
      <trkpt lat="43.30102" lon="2.22361">
        <ele>149.2</ele>
        <time>2022-01-16T08:47:02Z</time>
      </trkpt>
      <trkpt lat="43.301" lon="2.22368">
        <ele>150.2</ele>
        <time>2022-01-16T08:47:07Z</time>
      </trkpt>
      <trkpt lat="43.30096" lon="2.22403">
        <ele>151.7</ele>
        <time>2022-01-16T08:47:27Z</time>
      </trkpt>
      <trkpt lat="43.30094" lon="2.22417">
        <ele>152.3</ele>
        <time>2022-01-16T08:47:35Z</time>
      </trkpt>
      <trkpt lat="43.30094" lon="2.22424">
        <ele>152.9</ele>
        <time>2022-01-16T08:47:39Z</time>
      </trkpt>
      <trkpt lat="43.30093" lon="2.22443">
        <ele>154.4</ele>
        <time>2022-01-16T08:47:51Z</time>
      </trkpt>
      <trkpt lat="43.30096" lon="2.22473">
        <ele>156.1</ele>
        <time>2022-01-16T08:48:09Z</time>
      </trkpt>
      <trkpt lat="43.30099" lon="2.22495">
        <ele>156.7</ele>
        <time>2022-01-16T08:48:22Z</time>
      </trkpt>
      <trkpt lat="43.30099" lon="2.22502">
        <ele>157.2</ele>
        <time>2022-01-16T08:48:26Z</time>
      </trkpt>
      <trkpt lat="43.30099" lon="2.2253">
        <ele>158.9</ele>
        <time>2022-01-16T08:48:45Z</time>
      </trkpt>
      <trkpt lat="43.301" lon="2.22537">
        <ele>158.8</ele>
        <time>2022-01-16T08:48:50Z</time>
      </trkpt>
      <trkpt lat="43.30101" lon="2.2255">
        <ele>159.1</ele>
        <time>2022-01-16T08:48:58Z</time>
      </trkpt>
      <trkpt lat="43.30103" lon="2.22571">
        <ele>159.4</ele>
        <time>2022-01-16T08:49:08Z</time>
      </trkpt>
      <trkpt lat="43.30108" lon="2.22599">
        <ele>160</ele>
        <time>2022-01-16T08:49:25Z</time>
      </trkpt>
      <trkpt lat="43.30108" lon="2.22618">
        <ele>162</ele>
        <time>2022-01-16T08:49:37Z</time>
      </trkpt>
      <trkpt lat="43.3011" lon="2.22631">
        <ele>162.4</ele>
        <time>2022-01-16T08:49:45Z</time>
      </trkpt>
      <trkpt lat="43.30112" lon="2.22637">
        <ele>162.3</ele>
        <time>2022-01-16T08:49:49Z</time>
      </trkpt>
      <trkpt lat="43.30115" lon="2.22656">
        <ele>163.7</ele>
        <time>2022-01-16T08:50:01Z</time>
      </trkpt>
      <trkpt lat="43.30115" lon="2.22662">
        <ele>164.4</ele>
        <time>2022-01-16T08:50:05Z</time>
      </trkpt>
      <trkpt lat="43.30115" lon="2.22669">
        <ele>165.6</ele>
        <time>2022-01-16T08:50:10Z</time>
      </trkpt>
      <trkpt lat="43.30117" lon="2.22675">
        <ele>167.8</ele>
        <time>2022-01-16T08:50:17Z</time>
      </trkpt>
      <trkpt lat="43.30117" lon="2.22681">
        <ele>169.2</ele>
        <time>2022-01-16T08:50:23Z</time>
      </trkpt>
      <trkpt lat="43.30115" lon="2.22688">
        <ele>169.4</ele>
        <time>2022-01-16T08:50:29Z</time>
      </trkpt>
      <trkpt lat="43.30115" lon="2.22695">
        <ele>169.5</ele>
        <time>2022-01-16T08:50:34Z</time>
      </trkpt>
      <trkpt lat="43.30116" lon="2.22717">
        <ele>170.9</ele>
        <time>2022-01-16T08:50:46Z</time>
      </trkpt>
      <trkpt lat="43.30115" lon="2.22724">
        <ele>171.4</ele>
        <time>2022-01-16T08:50:50Z</time>
      </trkpt>
      <trkpt lat="43.30113" lon="2.22737">
        <ele>170.8</ele>
        <time>2022-01-16T08:51:02Z</time>
      </trkpt>
      <trkpt lat="43.30107" lon="2.22755">
        <ele>171</ele>
        <time>2022-01-16T08:51:17Z</time>
      </trkpt>
      <trkpt lat="43.30106" lon="2.22763">
        <ele>170.3</ele>
        <time>2022-01-16T08:51:21Z</time>
      </trkpt>
      <trkpt lat="43.30105" lon="2.22769">
        <ele>169.9</ele>
        <time>2022-01-16T08:51:24Z</time>
      </trkpt>
      <trkpt lat="43.30104" lon="2.22775">
        <ele>169.1</ele>
        <time>2022-01-16T08:51:28Z</time>
      </trkpt>
      <trkpt lat="43.301" lon="2.22788">
        <ele>167.6</ele>
        <time>2022-01-16T08:51:38Z</time>
      </trkpt>
      <trkpt lat="43.30097" lon="2.22794">
        <ele>167.1</ele>
        <time>2022-01-16T08:51:43Z</time>
      </trkpt>
      <trkpt lat="43.30093" lon="2.22798">
        <ele>166.6</ele>
        <time>2022-01-16T08:51:48Z</time>
      </trkpt>
      <trkpt lat="43.3009" lon="2.22803">
        <ele>166.2</ele>
        <time>2022-01-16T08:51:52Z</time>
      </trkpt>
      <trkpt lat="43.30088" lon="2.2281">
        <ele>165.7</ele>
        <time>2022-01-16T08:51:57Z</time>
      </trkpt>
      <trkpt lat="43.30088" lon="2.22816">
        <ele>165.2</ele>
        <time>2022-01-16T08:52:01Z</time>
      </trkpt>
      <trkpt lat="43.30089" lon="2.22823">
        <ele>164.3</ele>
        <time>2022-01-16T08:52:05Z</time>
      </trkpt>
      <trkpt lat="43.30091" lon="2.22829">
        <ele>162.9</ele>
        <time>2022-01-16T08:52:13Z</time>
      </trkpt>
      <trkpt lat="43.30092" lon="2.22835">
        <ele>162.8</ele>
        <time>2022-01-16T08:52:18Z</time>
      </trkpt>
      <trkpt lat="43.30092" lon="2.22841">
        <ele>164.4</ele>
        <time>2022-01-16T08:52:32Z</time>
      </trkpt>
      <trkpt lat="43.30095" lon="2.22861">
        <ele>165.4</ele>
        <time>2022-01-16T08:52:49Z</time>
      </trkpt>
      <trkpt lat="43.30095" lon="2.22868">
        <ele>166.1</ele>
        <time>2022-01-16T08:52:55Z</time>
      </trkpt>
      <trkpt lat="43.30095" lon="2.22876">
        <ele>166.4</ele>
        <time>2022-01-16T08:52:59Z</time>
      </trkpt>
      <trkpt lat="43.30095" lon="2.2289">
        <ele>166.6</ele>
        <time>2022-01-16T08:53:05Z</time>
      </trkpt>
      <trkpt lat="43.30096" lon="2.22898">
        <ele>167.3</ele>
        <time>2022-01-16T08:53:10Z</time>
      </trkpt>
      <trkpt lat="43.30099" lon="2.22903">
        <ele>167.3</ele>
        <time>2022-01-16T08:53:27Z</time>
      </trkpt>
      <trkpt lat="43.301" lon="2.22909">
        <ele>166.1</ele>
        <time>2022-01-16T08:53:32Z</time>
      </trkpt>
      <trkpt lat="43.301" lon="2.22915">
        <ele>165.7</ele>
        <time>2022-01-16T08:53:37Z</time>
      </trkpt>
      <trkpt lat="43.30101" lon="2.22922">
        <ele>165.5</ele>
        <time>2022-01-16T08:53:42Z</time>
      </trkpt>
      <trkpt lat="43.30102" lon="2.22928">
        <ele>165.5</ele>
        <time>2022-01-16T08:53:46Z</time>
      </trkpt>
      <trkpt lat="43.30104" lon="2.22942">
        <ele>166.2</ele>
        <time>2022-01-16T08:53:52Z</time>
      </trkpt>
      <trkpt lat="43.30105" lon="2.22948">
        <ele>166.3</ele>
        <time>2022-01-16T08:53:58Z</time>
      </trkpt>
      <trkpt lat="43.30107" lon="2.22955">
        <ele>166.3</ele>
        <time>2022-01-16T08:54:04Z</time>
      </trkpt>
      <trkpt lat="43.30107" lon="2.22962">
        <ele>166.9</ele>
        <time>2022-01-16T08:54:11Z</time>
      </trkpt>
      <trkpt lat="43.30107" lon="2.22969">
        <ele>167.4</ele>
        <time>2022-01-16T08:54:15Z</time>
      </trkpt>
      <trkpt lat="43.30109" lon="2.22976">
        <ele>167.6</ele>
        <time>2022-01-16T08:54:21Z</time>
      </trkpt>
      <trkpt lat="43.3011" lon="2.22982">
        <ele>167.4</ele>
        <time>2022-01-16T08:54:25Z</time>
      </trkpt>
      <trkpt lat="43.30114" lon="2.22995">
        <ele>167.5</ele>
        <time>2022-01-16T08:54:35Z</time>
      </trkpt>
      <trkpt lat="43.30115" lon="2.23001">
        <ele>168.1</ele>
        <time>2022-01-16T08:54:41Z</time>
      </trkpt>
      <trkpt lat="43.30115" lon="2.23008">
        <ele>168.7</ele>
        <time>2022-01-16T08:54:47Z</time>
      </trkpt>
      <trkpt lat="43.30116" lon="2.23014">
        <ele>168.1</ele>
        <time>2022-01-16T08:55:00Z</time>
      </trkpt>
      <trkpt lat="43.30119" lon="2.23019">
        <ele>168.4</ele>
        <time>2022-01-16T08:55:04Z</time>
      </trkpt>
      <trkpt lat="43.3012" lon="2.23025">
        <ele>168.6</ele>
        <time>2022-01-16T08:55:12Z</time>
      </trkpt>
      <trkpt lat="43.30123" lon="2.2303">
        <ele>167.9</ele>
        <time>2022-01-16T08:55:21Z</time>
      </trkpt>
      <trkpt lat="43.30125" lon="2.23035">
        <ele>167.7</ele>
        <time>2022-01-16T08:55:25Z</time>
      </trkpt>
      <trkpt lat="43.30127" lon="2.23029">
        <ele>168</ele>
        <time>2022-01-16T08:55:39Z</time>
      </trkpt>
      <trkpt lat="43.30128" lon="2.23023">
        <ele>168.1</ele>
        <time>2022-01-16T08:55:43Z</time>
      </trkpt>
      <trkpt lat="43.3013" lon="2.23016">
        <ele>168.2</ele>
        <time>2022-01-16T08:55:48Z</time>
      </trkpt>
      <trkpt lat="43.30131" lon="2.23009">
        <ele>169.7</ele>
        <time>2022-01-16T08:56:28Z</time>
      </trkpt>
      <trkpt lat="43.30125" lon="2.22997">
        <ele>170.8</ele>
        <time>2022-01-16T08:56:49Z</time>
      </trkpt>
      <trkpt lat="43.30123" lon="2.2299">
        <ele>170.5</ele>
        <time>2022-01-16T08:57:26Z</time>
      </trkpt>
      <trkpt lat="43.30125" lon="2.22977">
        <ele>171.3</ele>
        <time>2022-01-16T08:57:37Z</time>
      </trkpt>
      <trkpt lat="43.30125" lon="2.22971">
        <ele>172</ele>
        <time>2022-01-16T08:57:42Z</time>
      </trkpt>
      <trkpt lat="43.30128" lon="2.22977">
        <ele>172.4</ele>
        <time>2022-01-16T08:58:18Z</time>
      </trkpt>
      <trkpt lat="43.30132" lon="2.2298">
        <ele>173.2</ele>
        <time>2022-01-16T08:58:24Z</time>
      </trkpt>
      <trkpt lat="43.30137" lon="2.22983">
        <ele>176</ele>
        <time>2022-01-16T08:58:35Z</time>
      </trkpt>
      <trkpt lat="43.30142" lon="2.22984">
        <ele>176.2</ele>
        <time>2022-01-16T08:58:43Z</time>
      </trkpt>
      <trkpt lat="43.30146" lon="2.22989">
        <ele>176.3</ele>
        <time>2022-01-16T08:58:48Z</time>
      </trkpt>
      <trkpt lat="43.30148" lon="2.22995">
        <ele>176.6</ele>
        <time>2022-01-16T08:58:52Z</time>
      </trkpt>
      <trkpt lat="43.30149" lon="2.23001">
        <ele>176.3</ele>
        <time>2022-01-16T08:58:57Z</time>
      </trkpt>
      <trkpt lat="43.30152" lon="2.23014">
        <ele>175.3</ele>
        <time>2022-01-16T08:59:07Z</time>
      </trkpt>
      <trkpt lat="43.30154" lon="2.2302">
        <ele>175.8</ele>
        <time>2022-01-16T08:59:12Z</time>
      </trkpt>
      <trkpt lat="43.30159" lon="2.23022">
        <ele>176.9</ele>
        <time>2022-01-16T08:59:21Z</time>
      </trkpt>
      <trkpt lat="43.30164" lon="2.23022">
        <ele>178.2</ele>
        <time>2022-01-16T08:59:33Z</time>
      </trkpt>
      <trkpt lat="43.30168" lon="2.23024">
        <ele>178.8</ele>
        <time>2022-01-16T08:59:46Z</time>
      </trkpt>
      <trkpt lat="43.30171" lon="2.23029">
        <ele>179</ele>
        <time>2022-01-16T08:59:49Z</time>
      </trkpt>
      <trkpt lat="43.30174" lon="2.23035">
        <ele>179.4</ele>
        <time>2022-01-16T08:59:53Z</time>
      </trkpt>
      <trkpt lat="43.30177" lon="2.23046">
        <ele>180.7</ele>
        <time>2022-01-16T09:00:03Z</time>
      </trkpt>
      <trkpt lat="43.30178" lon="2.23061">
        <ele>182.5</ele>
        <time>2022-01-16T09:00:12Z</time>
      </trkpt>
      <trkpt lat="43.30177" lon="2.23075">
        <ele>184.7</ele>
        <time>2022-01-16T09:00:22Z</time>
      </trkpt>
      <trkpt lat="43.30177" lon="2.23082">
        <ele>185.4</ele>
        <time>2022-01-16T09:00:28Z</time>
      </trkpt>
      <trkpt lat="43.30175" lon="2.23104">
        <ele>184.1</ele>
        <time>2022-01-16T09:00:38Z</time>
      </trkpt>
      <trkpt lat="43.30174" lon="2.23111">
        <ele>183.9</ele>
        <time>2022-01-16T09:00:42Z</time>
      </trkpt>
      <trkpt lat="43.30173" lon="2.23124">
        <ele>184.4</ele>
        <time>2022-01-16T09:00:54Z</time>
      </trkpt>
      <trkpt lat="43.30171" lon="2.23139">
        <ele>185.1</ele>
        <time>2022-01-16T09:01:08Z</time>
      </trkpt>
      <trkpt lat="43.30171" lon="2.23146">
        <ele>185.8</ele>
        <time>2022-01-16T09:01:14Z</time>
      </trkpt>
      <trkpt lat="43.3017" lon="2.2316">
        <ele>186.4</ele>
        <time>2022-01-16T09:01:24Z</time>
      </trkpt>
      <trkpt lat="43.30169" lon="2.23168">
        <ele>186.9</ele>
        <time>2022-01-16T09:01:28Z</time>
      </trkpt>
      <trkpt lat="43.30167" lon="2.23176">
        <ele>187.4</ele>
        <time>2022-01-16T09:01:32Z</time>
      </trkpt>
      <trkpt lat="43.30163" lon="2.23195">
        <ele>188.6</ele>
        <time>2022-01-16T09:01:43Z</time>
      </trkpt>
      <trkpt lat="43.30163" lon="2.23202">
        <ele>189.3</ele>
        <time>2022-01-16T09:01:47Z</time>
      </trkpt>
      <trkpt lat="43.30163" lon="2.23209">
        <ele>190</ele>
        <time>2022-01-16T09:01:52Z</time>
      </trkpt>
      <trkpt lat="43.30167" lon="2.23231">
        <ele>193.3</ele>
        <time>2022-01-16T09:02:07Z</time>
      </trkpt>
      <trkpt lat="43.3017" lon="2.23237">
        <ele>193.6</ele>
        <time>2022-01-16T09:02:11Z</time>
      </trkpt>
      <trkpt lat="43.30173" lon="2.23242">
        <ele>193.3</ele>
        <time>2022-01-16T09:02:15Z</time>
      </trkpt>
      <trkpt lat="43.30177" lon="2.23246">
        <ele>193</ele>
        <time>2022-01-16T09:02:19Z</time>
      </trkpt>
      <trkpt lat="43.30182" lon="2.23249">
        <ele>192.8</ele>
        <time>2022-01-16T09:02:23Z</time>
      </trkpt>
      <trkpt lat="43.30187" lon="2.23252">
        <ele>192.5</ele>
        <time>2022-01-16T09:02:27Z</time>
      </trkpt>
      <trkpt lat="43.30195" lon="2.23257">
        <ele>191.5</ele>
        <time>2022-01-16T09:02:33Z</time>
      </trkpt>
      <trkpt lat="43.30199" lon="2.2326">
        <ele>191.3</ele>
        <time>2022-01-16T09:02:37Z</time>
      </trkpt>
      <trkpt lat="43.30211" lon="2.2327">
        <ele>192.9</ele>
        <time>2022-01-16T09:02:51Z</time>
      </trkpt>
      <trkpt lat="43.30215" lon="2.23275">
        <ele>196.6</ele>
        <time>2022-01-16T09:03:05Z</time>
      </trkpt>
      <trkpt lat="43.30234" lon="2.2329">
        <ele>197.7</ele>
        <time>2022-01-16T09:03:21Z</time>
      </trkpt>
      <trkpt lat="43.30239" lon="2.23292">
        <ele>197.6</ele>
        <time>2022-01-16T09:03:27Z</time>
      </trkpt>
      <trkpt lat="43.30243" lon="2.23292">
        <ele>197.9</ele>
        <time>2022-01-16T09:03:33Z</time>
      </trkpt>
      <trkpt lat="43.30248" lon="2.23294">
        <ele>198.1</ele>
        <time>2022-01-16T09:03:38Z</time>
      </trkpt>
      <trkpt lat="43.30255" lon="2.23302">
        <ele>199.1</ele>
        <time>2022-01-16T09:04:07Z</time>
      </trkpt>
      <trkpt lat="43.30259" lon="2.23306">
        <ele>200.6</ele>
        <time>2022-01-16T09:04:50Z</time>
      </trkpt>
      <trkpt lat="43.30263" lon="2.23308">
        <ele>203.1</ele>
        <time>2022-01-16T09:05:08Z</time>
      </trkpt>
      <trkpt lat="43.30267" lon="2.2331">
        <ele>202.5</ele>
        <time>2022-01-16T09:06:01Z</time>
      </trkpt>
      <trkpt lat="43.30272" lon="2.23312">
        <ele>204.2</ele>
        <time>2022-01-16T09:07:00Z</time>
      </trkpt>
      <trkpt lat="43.30276" lon="2.23314">
        <ele>204.5</ele>
        <time>2022-01-16T09:07:04Z</time>
      </trkpt>
      <trkpt lat="43.3028" lon="2.23318">
        <ele>206.4</ele>
        <time>2022-01-16T09:07:11Z</time>
      </trkpt>
      <trkpt lat="43.30285" lon="2.2332">
        <ele>207.4</ele>
        <time>2022-01-16T09:07:17Z</time>
      </trkpt>
      <trkpt lat="43.3029" lon="2.23317">
        <ele>208.4</ele>
        <time>2022-01-16T09:08:02Z</time>
      </trkpt>
      <trkpt lat="43.30296" lon="2.23307">
        <ele>210</ele>
        <time>2022-01-16T09:08:10Z</time>
      </trkpt>
      <trkpt lat="43.30299" lon="2.23302">
        <ele>210.9</ele>
        <time>2022-01-16T09:08:14Z</time>
      </trkpt>
      <trkpt lat="43.3031" lon="2.23286">
        <ele>212.8</ele>
        <time>2022-01-16T09:08:33Z</time>
      </trkpt>
      <trkpt lat="43.30316" lon="2.23273">
        <ele>213.4</ele>
        <time>2022-01-16T09:08:43Z</time>
      </trkpt>
      <trkpt lat="43.30322" lon="2.23263">
        <ele>215.4</ele>
        <time>2022-01-16T09:08:51Z</time>
      </trkpt>
      <trkpt lat="43.30324" lon="2.23256">
        <ele>216.3</ele>
        <time>2022-01-16T09:08:56Z</time>
      </trkpt>
      <trkpt lat="43.30325" lon="2.2325">
        <ele>217.1</ele>
        <time>2022-01-16T09:09:00Z</time>
      </trkpt>
      <trkpt lat="43.30328" lon="2.23236">
        <ele>218.7</ele>
        <time>2022-01-16T09:09:07Z</time>
      </trkpt>
      <trkpt lat="43.30329" lon="2.23222">
        <ele>220.1</ele>
        <time>2022-01-16T09:09:15Z</time>
      </trkpt>
      <trkpt lat="43.30329" lon="2.23214">
        <ele>221.3</ele>
        <time>2022-01-16T09:09:20Z</time>
      </trkpt>
      <trkpt lat="43.30328" lon="2.232">
        <ele>222.5</ele>
        <time>2022-01-16T09:09:28Z</time>
      </trkpt>
      <trkpt lat="43.30328" lon="2.23193">
        <ele>222.6</ele>
        <time>2022-01-16T09:09:32Z</time>
      </trkpt>
      <trkpt lat="43.30329" lon="2.23186">
        <ele>222.9</ele>
        <time>2022-01-16T09:09:36Z</time>
      </trkpt>
      <trkpt lat="43.30332" lon="2.23165">
        <ele>223.2</ele>
        <time>2022-01-16T09:09:50Z</time>
      </trkpt>
      <trkpt lat="43.30338" lon="2.23151">
        <ele>222.3</ele>
        <time>2022-01-16T09:09:59Z</time>
      </trkpt>
      <trkpt lat="43.30342" lon="2.23146">
        <ele>221.6</ele>
        <time>2022-01-16T09:10:03Z</time>
      </trkpt>
      <trkpt lat="43.30347" lon="2.23145">
        <ele>221</ele>
        <time>2022-01-16T09:10:08Z</time>
      </trkpt>
      <trkpt lat="43.30351" lon="2.23146">
        <ele>220.6</ele>
        <time>2022-01-16T09:10:20Z</time>
      </trkpt>
      <trkpt lat="43.30361" lon="2.23146">
        <ele>220.9</ele>
        <time>2022-01-16T09:10:32Z</time>
      </trkpt>
      <trkpt lat="43.30371" lon="2.23147">
        <ele>221.5</ele>
        <time>2022-01-16T09:10:40Z</time>
      </trkpt>
      <trkpt lat="43.30377" lon="2.23147">
        <ele>221.9</ele>
        <time>2022-01-16T09:10:44Z</time>
      </trkpt>
      <trkpt lat="43.30382" lon="2.23147">
        <ele>222.3</ele>
        <time>2022-01-16T09:10:48Z</time>
      </trkpt>
      <trkpt lat="43.30397" lon="2.23146">
        <ele>223.9</ele>
        <time>2022-01-16T09:11:02Z</time>
      </trkpt>
      <trkpt lat="43.30406" lon="2.23144">
        <ele>225.1</ele>
        <time>2022-01-16T09:11:11Z</time>
      </trkpt>
      <trkpt lat="43.30416" lon="2.23144">
        <ele>225.2</ele>
        <time>2022-01-16T09:11:19Z</time>
      </trkpt>
      <trkpt lat="43.30426" lon="2.23142">
        <ele>225.5</ele>
        <time>2022-01-16T09:11:32Z</time>
      </trkpt>
      <trkpt lat="43.3043" lon="2.23147">
        <ele>225.6</ele>
        <time>2022-01-16T09:11:39Z</time>
      </trkpt>
      <trkpt lat="43.30435" lon="2.23148">
        <ele>226.2</ele>
        <time>2022-01-16T09:11:44Z</time>
      </trkpt>
      <trkpt lat="43.30449" lon="2.23153">
        <ele>229.6</ele>
        <time>2022-01-16T09:12:10Z</time>
      </trkpt>
      <trkpt lat="43.30453" lon="2.23175">
        <ele>230.5</ele>
        <time>2022-01-16T09:13:50Z</time>
      </trkpt>
      <trkpt lat="43.30454" lon="2.23189">
        <ele>231.8</ele>
        <time>2022-01-16T09:14:00Z</time>
      </trkpt>
      <trkpt lat="43.30453" lon="2.23211">
        <ele>233.7</ele>
        <time>2022-01-16T09:14:12Z</time>
      </trkpt>
      <trkpt lat="43.30452" lon="2.23218">
        <ele>233.9</ele>
        <time>2022-01-16T09:14:16Z</time>
      </trkpt>
      <trkpt lat="43.30449" lon="2.23231">
        <ele>233.8</ele>
        <time>2022-01-16T09:14:25Z</time>
      </trkpt>
      <trkpt lat="43.30448" lon="2.23238">
        <ele>233.7</ele>
        <time>2022-01-16T09:14:29Z</time>
      </trkpt>
      <trkpt lat="43.30448" lon="2.23244">
        <ele>234</ele>
        <time>2022-01-16T09:14:33Z</time>
      </trkpt>
      <trkpt lat="43.30446" lon="2.23257">
        <ele>234.5</ele>
        <time>2022-01-16T09:14:42Z</time>
      </trkpt>
      <trkpt lat="43.30446" lon="2.23265">
        <ele>234.9</ele>
        <time>2022-01-16T09:14:47Z</time>
      </trkpt>
      <trkpt lat="43.30446" lon="2.23278">
        <ele>234.8</ele>
        <time>2022-01-16T09:14:56Z</time>
      </trkpt>
      <trkpt lat="43.30445" lon="2.23285">
        <ele>234.4</ele>
        <time>2022-01-16T09:15:01Z</time>
      </trkpt>
      <trkpt lat="43.30444" lon="2.23292">
        <ele>234.7</ele>
        <time>2022-01-16T09:15:06Z</time>
      </trkpt>
      <trkpt lat="43.30444" lon="2.23299">
        <ele>235.8</ele>
        <time>2022-01-16T09:15:11Z</time>
      </trkpt>
      <trkpt lat="43.30443" lon="2.23305">
        <ele>236.5</ele>
        <time>2022-01-16T09:15:16Z</time>
      </trkpt>
      <trkpt lat="43.30441" lon="2.23341">
        <ele>241.5</ele>
        <time>2022-01-16T09:15:41Z</time>
      </trkpt>
      <trkpt lat="43.3044" lon="2.23347">
        <ele>241.9</ele>
        <time>2022-01-16T09:15:44Z</time>
      </trkpt>
      <trkpt lat="43.30441" lon="2.23362">
        <ele>241.6</ele>
        <time>2022-01-16T09:15:51Z</time>
      </trkpt>
      <trkpt lat="43.30444" lon="2.2339">
        <ele>240.5</ele>
        <time>2022-01-16T09:16:07Z</time>
      </trkpt>
      <trkpt lat="43.30444" lon="2.23398">
        <ele>240.1</ele>
        <time>2022-01-16T09:16:12Z</time>
      </trkpt>
      <trkpt lat="43.30445" lon="2.23404">
        <ele>240.1</ele>
        <time>2022-01-16T09:16:16Z</time>
      </trkpt>
      <trkpt lat="43.30445" lon="2.23425">
        <ele>240.9</ele>
        <time>2022-01-16T09:16:31Z</time>
      </trkpt>
      <trkpt lat="43.30445" lon="2.23431">
        <ele>241.8</ele>
        <time>2022-01-16T09:16:35Z</time>
      </trkpt>
      <trkpt lat="43.3045" lon="2.23445">
        <ele>241.4</ele>
        <time>2022-01-16T09:16:43Z</time>
      </trkpt>
      <trkpt lat="43.30458" lon="2.23463">
        <ele>240.7</ele>
        <time>2022-01-16T09:16:58Z</time>
      </trkpt>
      <trkpt lat="43.30463" lon="2.23476">
        <ele>240.8</ele>
        <time>2022-01-16T09:17:08Z</time>
      </trkpt>
      <trkpt lat="43.30467" lon="2.23479">
        <ele>240.2</ele>
        <time>2022-01-16T09:17:18Z</time>
      </trkpt>
      <trkpt lat="43.30468" lon="2.23486">
        <ele>240.5</ele>
        <time>2022-01-16T09:17:21Z</time>
      </trkpt>
      <trkpt lat="43.30471" lon="2.23492">
        <ele>241.1</ele>
        <time>2022-01-16T09:17:32Z</time>
      </trkpt>
      <trkpt lat="43.30475" lon="2.23496">
        <ele>241.3</ele>
        <time>2022-01-16T09:17:38Z</time>
      </trkpt>
      <trkpt lat="43.30479" lon="2.23502">
        <ele>241.9</ele>
        <time>2022-01-16T09:17:48Z</time>
      </trkpt>
      <trkpt lat="43.30481" lon="2.23508">
        <ele>242.6</ele>
        <time>2022-01-16T09:17:53Z</time>
      </trkpt>
      <trkpt lat="43.30482" lon="2.23516">
        <ele>243.4</ele>
        <time>2022-01-16T09:18:00Z</time>
      </trkpt>
      <trkpt lat="43.30484" lon="2.23522">
        <ele>244</ele>
        <time>2022-01-16T09:18:06Z</time>
      </trkpt>
      <trkpt lat="43.30488" lon="2.23527">
        <ele>245.7</ele>
        <time>2022-01-16T09:18:14Z</time>
      </trkpt>
      <trkpt lat="43.30491" lon="2.2354">
        <ele>246</ele>
        <time>2022-01-16T09:18:26Z</time>
      </trkpt>
      <trkpt lat="43.30491" lon="2.23547">
        <ele>246.2</ele>
        <time>2022-01-16T09:18:32Z</time>
      </trkpt>
      <trkpt lat="43.30493" lon="2.23554">
        <ele>246.6</ele>
        <time>2022-01-16T09:18:36Z</time>
      </trkpt>
      <trkpt lat="43.30496" lon="2.23559">
        <ele>246.9</ele>
        <time>2022-01-16T09:18:39Z</time>
      </trkpt>
      <trkpt lat="43.30498" lon="2.23565">
        <ele>247.5</ele>
        <time>2022-01-16T09:18:44Z</time>
      </trkpt>
      <trkpt lat="43.30499" lon="2.23571">
        <ele>248.2</ele>
        <time>2022-01-16T09:18:49Z</time>
      </trkpt>
      <trkpt lat="43.30494" lon="2.23571">
        <ele>249.6</ele>
        <time>2022-01-16T09:18:58Z</time>
      </trkpt>
      <trkpt lat="43.30497" lon="2.23577">
        <ele>251.6</ele>
        <time>2022-01-16T09:19:04Z</time>
      </trkpt>
      <trkpt lat="43.30496" lon="2.23584">
        <ele>252.7</ele>
        <time>2022-01-16T09:19:09Z</time>
      </trkpt>
      <trkpt lat="43.3049" lon="2.23585">
        <ele>253.1</ele>
        <time>2022-01-16T09:20:13Z</time>
      </trkpt>
      <trkpt lat="43.30486" lon="2.23596">
        <ele>254.6</ele>
        <time>2022-01-16T09:20:27Z</time>
      </trkpt>
      <trkpt lat="43.30489" lon="2.23602">
        <ele>255.1</ele>
        <time>2022-01-16T09:20:42Z</time>
      </trkpt>
      <trkpt lat="43.30485" lon="2.23605">
        <ele>255.5</ele>
        <time>2022-01-16T09:21:04Z</time>
      </trkpt>
      <trkpt lat="43.30482" lon="2.2361">
        <ele>256.4</ele>
        <time>2022-01-16T09:21:20Z</time>
      </trkpt>
      <trkpt lat="43.30481" lon="2.23624">
        <ele>255.7</ele>
        <time>2022-01-16T09:21:29Z</time>
      </trkpt>
      <trkpt lat="43.30481" lon="2.23632">
        <ele>255.6</ele>
        <time>2022-01-16T09:21:34Z</time>
      </trkpt>
      <trkpt lat="43.3048" lon="2.2364">
        <ele>256.1</ele>
        <time>2022-01-16T09:21:40Z</time>
      </trkpt>
      <trkpt lat="43.30479" lon="2.23649">
        <ele>256.6</ele>
        <time>2022-01-16T09:21:45Z</time>
      </trkpt>
      <trkpt lat="43.30477" lon="2.23654">
        <ele>257</ele>
        <time>2022-01-16T09:21:48Z</time>
      </trkpt>
      <trkpt lat="43.30476" lon="2.23661">
        <ele>257.3</ele>
        <time>2022-01-16T09:21:51Z</time>
      </trkpt>
      <trkpt lat="43.3048" lon="2.23665">
        <ele>258.6</ele>
        <time>2022-01-16T09:22:45Z</time>
      </trkpt>
      <trkpt lat="43.30482" lon="2.23671">
        <ele>258.9</ele>
        <time>2022-01-16T09:22:50Z</time>
      </trkpt>
      <trkpt lat="43.30484" lon="2.23678">
        <ele>259.4</ele>
        <time>2022-01-16T09:22:56Z</time>
      </trkpt>
      <trkpt lat="43.30491" lon="2.23703">
        <ele>260.2</ele>
        <time>2022-01-16T09:23:17Z</time>
      </trkpt>
      <trkpt lat="43.30494" lon="2.23716">
        <ele>260.4</ele>
        <time>2022-01-16T09:23:24Z</time>
      </trkpt>
      <trkpt lat="43.30495" lon="2.23724">
        <ele>260.6</ele>
        <time>2022-01-16T09:23:28Z</time>
      </trkpt>
      <trkpt lat="43.30498" lon="2.23744">
        <ele>261.4</ele>
        <time>2022-01-16T09:23:41Z</time>
      </trkpt>
      <trkpt lat="43.30503" lon="2.23771">
        <ele>263.2</ele>
        <time>2022-01-16T09:24:00Z</time>
      </trkpt>
      <trkpt lat="43.30505" lon="2.23785">
        <ele>262.9</ele>
        <time>2022-01-16T09:24:10Z</time>
      </trkpt>
      <trkpt lat="43.30509" lon="2.23798">
        <ele>263.4</ele>
        <time>2022-01-16T09:24:19Z</time>
      </trkpt>
      <trkpt lat="43.30511" lon="2.23805">
        <ele>264.6</ele>
        <time>2022-01-16T09:24:23Z</time>
      </trkpt>
      <trkpt lat="43.30514" lon="2.23819">
        <ele>266</ele>
        <time>2022-01-16T09:24:32Z</time>
      </trkpt>
      <trkpt lat="43.30516" lon="2.23825">
        <ele>266.5</ele>
        <time>2022-01-16T09:24:37Z</time>
      </trkpt>
      <trkpt lat="43.30518" lon="2.23832">
        <ele>267.3</ele>
        <time>2022-01-16T09:24:42Z</time>
      </trkpt>
      <trkpt lat="43.30524" lon="2.23844">
        <ele>267.9</ele>
        <time>2022-01-16T09:24:51Z</time>
      </trkpt>
      <trkpt lat="43.30527" lon="2.23849">
        <ele>268.2</ele>
        <time>2022-01-16T09:24:55Z</time>
      </trkpt>
      <trkpt lat="43.30532" lon="2.2386">
        <ele>269</ele>
        <time>2022-01-16T09:25:04Z</time>
      </trkpt>
      <trkpt lat="43.30534" lon="2.23867">
        <ele>269.9</ele>
        <time>2022-01-16T09:25:10Z</time>
      </trkpt>
      <trkpt lat="43.30537" lon="2.23872">
        <ele>270.7</ele>
        <time>2022-01-16T09:25:14Z</time>
      </trkpt>
      <trkpt lat="43.3054" lon="2.23885">
        <ele>272.4</ele>
        <time>2022-01-16T09:25:23Z</time>
      </trkpt>
      <trkpt lat="43.30544" lon="2.23899">
        <ele>273.5</ele>
        <time>2022-01-16T09:25:32Z</time>
      </trkpt>
      <trkpt lat="43.30546" lon="2.23912">
        <ele>273.4</ele>
        <time>2022-01-16T09:25:41Z</time>
      </trkpt>
      <trkpt lat="43.3055" lon="2.23927">
        <ele>273.9</ele>
        <time>2022-01-16T09:25:51Z</time>
      </trkpt>
      <trkpt lat="43.30552" lon="2.23933">
        <ele>274.2</ele>
        <time>2022-01-16T09:25:55Z</time>
      </trkpt>
      <trkpt lat="43.30555" lon="2.23946">
        <ele>274.5</ele>
        <time>2022-01-16T09:26:03Z</time>
      </trkpt>
      <trkpt lat="43.30558" lon="2.23953">
        <ele>274.6</ele>
        <time>2022-01-16T09:26:07Z</time>
      </trkpt>
      <trkpt lat="43.30561" lon="2.23958">
        <ele>274.8</ele>
        <time>2022-01-16T09:26:12Z</time>
      </trkpt>
      <trkpt lat="43.30565" lon="2.23964">
        <ele>275.2</ele>
        <time>2022-01-16T09:26:17Z</time>
      </trkpt>
      <trkpt lat="43.30568" lon="2.2397">
        <ele>275.7</ele>
        <time>2022-01-16T09:26:22Z</time>
      </trkpt>
      <trkpt lat="43.30572" lon="2.23974">
        <ele>275.9</ele>
        <time>2022-01-16T09:26:28Z</time>
      </trkpt>
      <trkpt lat="43.30573" lon="2.23981">
        <ele>274.4</ele>
        <time>2022-01-16T09:27:04Z</time>
      </trkpt>
      <trkpt lat="43.30576" lon="2.23988">
        <ele>274.4</ele>
        <time>2022-01-16T09:27:08Z</time>
      </trkpt>
      <trkpt lat="43.30575" lon="2.23996">
        <ele>274.3</ele>
        <time>2022-01-16T09:27:15Z</time>
      </trkpt>
      <trkpt lat="43.30576" lon="2.24002">
        <ele>273.8</ele>
        <time>2022-01-16T09:27:21Z</time>
      </trkpt>
      <trkpt lat="43.30581" lon="2.2403">
        <ele>273.4</ele>
        <time>2022-01-16T09:27:35Z</time>
      </trkpt>
      <trkpt lat="43.30587" lon="2.24054">
        <ele>274.4</ele>
        <time>2022-01-16T09:27:50Z</time>
      </trkpt>
      <trkpt lat="43.30587" lon="2.24061">
        <ele>274.2</ele>
        <time>2022-01-16T09:27:54Z</time>
      </trkpt>
      <trkpt lat="43.3059" lon="2.24075">
        <ele>273.3</ele>
        <time>2022-01-16T09:28:02Z</time>
      </trkpt>
      <trkpt lat="43.30593" lon="2.24103">
        <ele>274.5</ele>
        <time>2022-01-16T09:28:21Z</time>
      </trkpt>
      <trkpt lat="43.30595" lon="2.24117">
        <ele>274.9</ele>
        <time>2022-01-16T09:28:29Z</time>
      </trkpt>
      <trkpt lat="43.30596" lon="2.24124">
        <ele>275.1</ele>
        <time>2022-01-16T09:28:33Z</time>
      </trkpt>
      <trkpt lat="43.30596" lon="2.2413">
        <ele>275.3</ele>
        <time>2022-01-16T09:28:37Z</time>
      </trkpt>
      <trkpt lat="43.30597" lon="2.24143">
        <ele>275.4</ele>
        <time>2022-01-16T09:29:44Z</time>
      </trkpt>
      <trkpt lat="43.30599" lon="2.2415">
        <ele>276.2</ele>
        <time>2022-01-16T09:29:49Z</time>
      </trkpt>
      <trkpt lat="43.30604" lon="2.24163">
        <ele>277.6</ele>
        <time>2022-01-16T09:30:09Z</time>
      </trkpt>
      <trkpt lat="43.30603" lon="2.2417">
        <ele>277.5</ele>
        <time>2022-01-16T09:30:13Z</time>
      </trkpt>
      <trkpt lat="43.30602" lon="2.24183">
        <ele>276.7</ele>
        <time>2022-01-16T09:30:23Z</time>
      </trkpt>
      <trkpt lat="43.30603" lon="2.2419">
        <ele>276.4</ele>
        <time>2022-01-16T09:30:27Z</time>
      </trkpt>
      <trkpt lat="43.30604" lon="2.24197">
        <ele>276.4</ele>
        <time>2022-01-16T09:30:30Z</time>
      </trkpt>
      <trkpt lat="43.30608" lon="2.24213">
        <ele>277.1</ele>
        <time>2022-01-16T09:30:38Z</time>
      </trkpt>
      <trkpt lat="43.3061" lon="2.24227">
        <ele>277.1</ele>
        <time>2022-01-16T09:30:46Z</time>
      </trkpt>
      <trkpt lat="43.30613" lon="2.24241">
        <ele>276.9</ele>
        <time>2022-01-16T09:30:54Z</time>
      </trkpt>
      <trkpt lat="43.30616" lon="2.24248">
        <ele>277.1</ele>
        <time>2022-01-16T09:30:58Z</time>
      </trkpt>
      <trkpt lat="43.30622" lon="2.2426">
        <ele>278.3</ele>
        <time>2022-01-16T09:31:06Z</time>
      </trkpt>
      <trkpt lat="43.30627" lon="2.24273">
        <ele>278.5</ele>
        <time>2022-01-16T09:31:14Z</time>
      </trkpt>
      <trkpt lat="43.30631" lon="2.24287">
        <ele>277.5</ele>
        <time>2022-01-16T09:31:23Z</time>
      </trkpt>
      <trkpt lat="43.30641" lon="2.2432">
        <ele>276.1</ele>
        <time>2022-01-16T09:31:42Z</time>
      </trkpt>
      <trkpt lat="43.30644" lon="2.24326">
        <ele>275.9</ele>
        <time>2022-01-16T09:31:46Z</time>
      </trkpt>
      <trkpt lat="43.3065" lon="2.24338">
        <ele>277</ele>
        <time>2022-01-16T09:31:54Z</time>
      </trkpt>
      <trkpt lat="43.3066" lon="2.24352">
        <ele>280.3</ele>
        <time>2022-01-16T09:32:04Z</time>
      </trkpt>
      <trkpt lat="43.30666" lon="2.24364">
        <ele>281.5</ele>
        <time>2022-01-16T09:32:12Z</time>
      </trkpt>
      <trkpt lat="43.30673" lon="2.24376">
        <ele>282.4</ele>
        <time>2022-01-16T09:32:20Z</time>
      </trkpt>
      <trkpt lat="43.30686" lon="2.24407">
        <ele>280.4</ele>
        <time>2022-01-16T09:32:39Z</time>
      </trkpt>
      <trkpt lat="43.30693" lon="2.24427">
        <ele>278.6</ele>
        <time>2022-01-16T09:32:51Z</time>
      </trkpt>
      <trkpt lat="43.30692" lon="2.24435">
        <ele>278.5</ele>
        <time>2022-01-16T09:32:55Z</time>
      </trkpt>
      <trkpt lat="43.30693" lon="2.24448">
        <ele>278.5</ele>
        <time>2022-01-16T09:33:06Z</time>
      </trkpt>
      <trkpt lat="43.30694" lon="2.24455">
        <ele>278.1</ele>
        <time>2022-01-16T09:33:10Z</time>
      </trkpt>
      <trkpt lat="43.30698" lon="2.2447">
        <ele>277.9</ele>
        <time>2022-01-16T09:33:16Z</time>
      </trkpt>
      <trkpt lat="43.307" lon="2.24477">
        <ele>278.2</ele>
        <time>2022-01-16T09:33:21Z</time>
      </trkpt>
      <trkpt lat="43.30706" lon="2.2449">
        <ele>280</ele>
        <time>2022-01-16T09:33:30Z</time>
      </trkpt>
      <trkpt lat="43.30709" lon="2.24501">
        <ele>281.1</ele>
        <time>2022-01-16T09:33:40Z</time>
      </trkpt>
      <trkpt lat="43.30711" lon="2.24507">
        <ele>281.8</ele>
        <time>2022-01-16T09:33:56Z</time>
      </trkpt>
      <trkpt lat="43.30714" lon="2.24512">
        <ele>281.7</ele>
        <time>2022-01-16T09:34:00Z</time>
      </trkpt>
      <trkpt lat="43.30717" lon="2.2452">
        <ele>281.2</ele>
        <time>2022-01-16T09:34:06Z</time>
      </trkpt>
      <trkpt lat="43.30719" lon="2.24526">
        <ele>280.6</ele>
        <time>2022-01-16T09:34:12Z</time>
      </trkpt>
      <trkpt lat="43.3072" lon="2.24534">
        <ele>280.4</ele>
        <time>2022-01-16T09:34:19Z</time>
      </trkpt>
      <trkpt lat="43.30723" lon="2.2454">
        <ele>280.1</ele>
        <time>2022-01-16T09:34:23Z</time>
      </trkpt>
      <trkpt lat="43.30726" lon="2.24553">
        <ele>278.8</ele>
        <time>2022-01-16T09:34:31Z</time>
      </trkpt>
      <trkpt lat="43.30729" lon="2.24566">
        <ele>277.8</ele>
        <time>2022-01-16T09:34:36Z</time>
      </trkpt>
      <trkpt lat="43.30731" lon="2.24572">
        <ele>277.5</ele>
        <time>2022-01-16T09:34:40Z</time>
      </trkpt>
      <trkpt lat="43.30733" lon="2.24579">
        <ele>277.5</ele>
        <time>2022-01-16T09:34:44Z</time>
      </trkpt>
      <trkpt lat="43.30738" lon="2.2459">
        <ele>278.3</ele>
        <time>2022-01-16T09:34:51Z</time>
      </trkpt>
      <trkpt lat="43.30741" lon="2.24595">
        <ele>279.1</ele>
        <time>2022-01-16T09:34:55Z</time>
      </trkpt>
      <trkpt lat="43.30743" lon="2.24601">
        <ele>279.9</ele>
        <time>2022-01-16T09:34:59Z</time>
      </trkpt>
      <trkpt lat="43.30745" lon="2.24607">
        <ele>281.7</ele>
        <time>2022-01-16T09:35:05Z</time>
      </trkpt>
      <trkpt lat="43.30749" lon="2.24613">
        <ele>283.6</ele>
        <time>2022-01-16T09:35:11Z</time>
      </trkpt>
      <trkpt lat="43.30752" lon="2.24619">
        <ele>284.4</ele>
        <time>2022-01-16T09:35:15Z</time>
      </trkpt>
      <trkpt lat="43.30755" lon="2.24626">
        <ele>285.6</ele>
        <time>2022-01-16T09:35:19Z</time>
      </trkpt>
      <trkpt lat="43.30757" lon="2.24632">
        <ele>286.5</ele>
        <time>2022-01-16T09:35:22Z</time>
      </trkpt>
      <trkpt lat="43.30759" lon="2.24638">
        <ele>287.3</ele>
        <time>2022-01-16T09:35:26Z</time>
      </trkpt>
      <trkpt lat="43.30761" lon="2.24644">
        <ele>287.7</ele>
        <time>2022-01-16T09:35:31Z</time>
      </trkpt>
      <trkpt lat="43.30764" lon="2.24651">
        <ele>286.8</ele>
        <time>2022-01-16T09:35:41Z</time>
      </trkpt>
      <trkpt lat="43.30766" lon="2.24658">
        <ele>286.6</ele>
        <time>2022-01-16T09:35:45Z</time>
      </trkpt>
      <trkpt lat="43.30769" lon="2.24664">
        <ele>286.6</ele>
        <time>2022-01-16T09:35:48Z</time>
      </trkpt>
      <trkpt lat="43.30771" lon="2.2467">
        <ele>286.7</ele>
        <time>2022-01-16T09:35:51Z</time>
      </trkpt>
      <trkpt lat="43.30773" lon="2.24677">
        <ele>286.5</ele>
        <time>2022-01-16T09:35:55Z</time>
      </trkpt>
      <trkpt lat="43.3078" lon="2.24696">
        <ele>285.1</ele>
        <time>2022-01-16T09:36:07Z</time>
      </trkpt>
      <trkpt lat="43.30782" lon="2.24703">
        <ele>285.1</ele>
        <time>2022-01-16T09:36:12Z</time>
      </trkpt>
      <trkpt lat="43.30786" lon="2.24711">
        <ele>285.4</ele>
        <time>2022-01-16T09:36:16Z</time>
      </trkpt>
      <trkpt lat="43.30789" lon="2.24715">
        <ele>285.7</ele>
        <time>2022-01-16T09:36:19Z</time>
      </trkpt>
      <trkpt lat="43.30791" lon="2.24721">
        <ele>285.6</ele>
        <time>2022-01-16T09:36:22Z</time>
      </trkpt>
      <trkpt lat="43.30799" lon="2.24746">
        <ele>281.5</ele>
        <time>2022-01-16T09:36:40Z</time>
      </trkpt>
      <trkpt lat="43.30801" lon="2.24754">
        <ele>280.8</ele>
        <time>2022-01-16T09:36:44Z</time>
      </trkpt>
      <trkpt lat="43.30802" lon="2.24767">
        <ele>281</ele>
        <time>2022-01-16T09:36:52Z</time>
      </trkpt>
      <trkpt lat="43.30804" lon="2.24773">
        <ele>281.2</ele>
        <time>2022-01-16T09:36:56Z</time>
      </trkpt>
      <trkpt lat="43.30809" lon="2.24786">
        <ele>280.9</ele>
        <time>2022-01-16T09:37:05Z</time>
      </trkpt>
      <trkpt lat="43.30818" lon="2.24803">
        <ele>280.6</ele>
        <time>2022-01-16T09:37:18Z</time>
      </trkpt>
      <trkpt lat="43.30823" lon="2.24808">
        <ele>281.3</ele>
        <time>2022-01-16T09:37:22Z</time>
      </trkpt>
      <trkpt lat="43.30827" lon="2.24815">
        <ele>282.3</ele>
        <time>2022-01-16T09:37:27Z</time>
      </trkpt>
      <trkpt lat="43.3084" lon="2.24847">
        <ele>287</ele>
        <time>2022-01-16T09:37:48Z</time>
      </trkpt>
      <trkpt lat="43.30843" lon="2.2486">
        <ele>284.8</ele>
        <time>2022-01-16T09:37:57Z</time>
      </trkpt>
      <trkpt lat="43.30843" lon="2.24867">
        <ele>283.6</ele>
        <time>2022-01-16T09:38:01Z</time>
      </trkpt>
      <trkpt lat="43.30844" lon="2.24874">
        <ele>281.6</ele>
        <time>2022-01-16T09:38:07Z</time>
      </trkpt>
      <trkpt lat="43.30846" lon="2.24881">
        <ele>281.8</ele>
        <time>2022-01-16T09:38:14Z</time>
      </trkpt>
      <trkpt lat="43.30847" lon="2.24887">
        <ele>281.6</ele>
        <time>2022-01-16T09:38:19Z</time>
      </trkpt>
      <trkpt lat="43.30847" lon="2.24894">
        <ele>281.4</ele>
        <time>2022-01-16T09:38:26Z</time>
      </trkpt>
      <trkpt lat="43.30849" lon="2.24901">
        <ele>281.5</ele>
        <time>2022-01-16T09:38:28Z</time>
      </trkpt>
      <trkpt lat="43.30851" lon="2.24906">
        <ele>281.9</ele>
        <time>2022-01-16T09:38:34Z</time>
      </trkpt>
      <trkpt lat="43.30853" lon="2.24913">
        <ele>282.8</ele>
        <time>2022-01-16T09:38:39Z</time>
      </trkpt>
      <trkpt lat="43.30855" lon="2.2492">
        <ele>284.2</ele>
        <time>2022-01-16T09:38:44Z</time>
      </trkpt>
      <trkpt lat="43.30859" lon="2.24926">
        <ele>285.4</ele>
        <time>2022-01-16T09:38:47Z</time>
      </trkpt>
      <trkpt lat="43.30864" lon="2.24927">
        <ele>286.6</ele>
        <time>2022-01-16T09:38:52Z</time>
      </trkpt>
      <trkpt lat="43.30866" lon="2.24936">
        <ele>286.2</ele>
        <time>2022-01-16T09:38:57Z</time>
      </trkpt>
      <trkpt lat="43.3087" lon="2.24943">
        <ele>285.3</ele>
        <time>2022-01-16T09:39:01Z</time>
      </trkpt>
      <trkpt lat="43.30871" lon="2.2495">
        <ele>284.5</ele>
        <time>2022-01-16T09:39:04Z</time>
      </trkpt>
      <trkpt lat="43.3087" lon="2.24958">
        <ele>283.6</ele>
        <time>2022-01-16T09:39:08Z</time>
      </trkpt>
      <trkpt lat="43.30874" lon="2.24961">
        <ele>283.1</ele>
        <time>2022-01-16T09:39:16Z</time>
      </trkpt>
      <trkpt lat="43.30877" lon="2.24966">
        <ele>282.9</ele>
        <time>2022-01-16T09:39:21Z</time>
      </trkpt>
      <trkpt lat="43.30885" lon="2.24975">
        <ele>283.7</ele>
        <time>2022-01-16T09:39:30Z</time>
      </trkpt>
      <trkpt lat="43.309" lon="2.24996">
        <ele>286.9</ele>
        <time>2022-01-16T09:39:44Z</time>
      </trkpt>
      <trkpt lat="43.30905" lon="2.25001">
        <ele>287.2</ele>
        <time>2022-01-16T09:39:48Z</time>
      </trkpt>
      <trkpt lat="43.3091" lon="2.25004">
        <ele>288</ele>
        <time>2022-01-16T09:39:53Z</time>
      </trkpt>
      <trkpt lat="43.3092" lon="2.25012">
        <ele>289.3</ele>
        <time>2022-01-16T09:40:02Z</time>
      </trkpt>
      <trkpt lat="43.30929" lon="2.25018">
        <ele>290.8</ele>
        <time>2022-01-16T09:40:11Z</time>
      </trkpt>
      <trkpt lat="43.30933" lon="2.25021">
        <ele>291.6</ele>
        <time>2022-01-16T09:40:14Z</time>
      </trkpt>
      <trkpt lat="43.30946" lon="2.25035">
        <ele>293.3</ele>
        <time>2022-01-16T09:40:26Z</time>
      </trkpt>
      <trkpt lat="43.3095" lon="2.2504">
        <ele>293.4</ele>
        <time>2022-01-16T09:40:30Z</time>
      </trkpt>
      <trkpt lat="43.30947" lon="2.25046">
        <ele>293.3</ele>
        <time>2022-01-16T09:40:53Z</time>
      </trkpt>
      <trkpt lat="43.30946" lon="2.2506">
        <ele>292.7</ele>
        <time>2022-01-16T09:41:11Z</time>
      </trkpt>
      <trkpt lat="43.30944" lon="2.25066">
        <ele>293.1</ele>
        <time>2022-01-16T09:41:16Z</time>
      </trkpt>
      <trkpt lat="43.30943" lon="2.25073">
        <ele>293.2</ele>
        <time>2022-01-16T09:41:22Z</time>
      </trkpt>
      <trkpt lat="43.3094" lon="2.25079">
        <ele>292.8</ele>
        <time>2022-01-16T09:41:28Z</time>
      </trkpt>
      <trkpt lat="43.30937" lon="2.25085">
        <ele>292.6</ele>
        <time>2022-01-16T09:41:32Z</time>
      </trkpt>
      <trkpt lat="43.30934" lon="2.25091">
        <ele>292.9</ele>
        <time>2022-01-16T09:41:40Z</time>
      </trkpt>
      <trkpt lat="43.30929" lon="2.25101">
        <ele>294</ele>
        <time>2022-01-16T09:44:10Z</time>
      </trkpt>
      <trkpt lat="43.30927" lon="2.25122">
        <ele>294.2</ele>
        <time>2022-01-16T09:44:45Z</time>
      </trkpt>
      <trkpt lat="43.30924" lon="2.25127">
        <ele>294.2</ele>
        <time>2022-01-16T09:44:53Z</time>
      </trkpt>
      <trkpt lat="43.30921" lon="2.25139">
        <ele>295</ele>
        <time>2022-01-16T09:45:01Z</time>
      </trkpt>
      <trkpt lat="43.30919" lon="2.25146">
        <ele>295.8</ele>
        <time>2022-01-16T09:45:05Z</time>
      </trkpt>
      <trkpt lat="43.30919" lon="2.2516">
        <ele>297.1</ele>
        <time>2022-01-16T09:45:13Z</time>
      </trkpt>
      <trkpt lat="43.30919" lon="2.25166">
        <ele>297.1</ele>
        <time>2022-01-16T09:45:17Z</time>
      </trkpt>
      <trkpt lat="43.30917" lon="2.25179">
        <ele>297.7</ele>
        <time>2022-01-16T09:45:25Z</time>
      </trkpt>
      <trkpt lat="43.30917" lon="2.25188">
        <ele>298.5</ele>
        <time>2022-01-16T09:45:29Z</time>
      </trkpt>
      <trkpt lat="43.30916" lon="2.25203">
        <ele>299.5</ele>
        <time>2022-01-16T09:45:35Z</time>
      </trkpt>
      <trkpt lat="43.30915" lon="2.25211">
        <ele>300.2</ele>
        <time>2022-01-16T09:45:40Z</time>
      </trkpt>
      <trkpt lat="43.30915" lon="2.25219">
        <ele>300.2</ele>
        <time>2022-01-16T09:45:45Z</time>
      </trkpt>
      <trkpt lat="43.3091" lon="2.25218">
        <ele>299.9</ele>
        <time>2022-01-16T09:45:53Z</time>
      </trkpt>
      <trkpt lat="43.30911" lon="2.25226">
        <ele>299.5</ele>
        <time>2022-01-16T09:45:58Z</time>
      </trkpt>
      <trkpt lat="43.30909" lon="2.25233">
        <ele>299</ele>
        <time>2022-01-16T09:46:02Z</time>
      </trkpt>
      <trkpt lat="43.30908" lon="2.25248">
        <ele>300.2</ele>
        <time>2022-01-16T09:46:10Z</time>
      </trkpt>
      <trkpt lat="43.30904" lon="2.25261">
        <ele>300.5</ele>
        <time>2022-01-16T09:46:18Z</time>
      </trkpt>
      <trkpt lat="43.30902" lon="2.25274">
        <ele>299.1</ele>
        <time>2022-01-16T09:46:25Z</time>
      </trkpt>
      <trkpt lat="43.30898" lon="2.25288">
        <ele>296.8</ele>
        <time>2022-01-16T09:46:33Z</time>
      </trkpt>
      <trkpt lat="43.30897" lon="2.25294">
        <ele>295.8</ele>
        <time>2022-01-16T09:46:36Z</time>
      </trkpt>
      <trkpt lat="43.30893" lon="2.25307">
        <ele>296.2</ele>
        <time>2022-01-16T09:46:43Z</time>
      </trkpt>
      <trkpt lat="43.30891" lon="2.25313">
        <ele>296.7</ele>
        <time>2022-01-16T09:46:47Z</time>
      </trkpt>
      <trkpt lat="43.30889" lon="2.2532">
        <ele>297.2</ele>
        <time>2022-01-16T09:46:51Z</time>
      </trkpt>
      <trkpt lat="43.30887" lon="2.25327">
        <ele>298.1</ele>
        <time>2022-01-16T09:46:56Z</time>
      </trkpt>
      <trkpt lat="43.30884" lon="2.25333">
        <ele>298.5</ele>
        <time>2022-01-16T09:47:00Z</time>
      </trkpt>
      <trkpt lat="43.30883" lon="2.2534">
        <ele>298.6</ele>
        <time>2022-01-16T09:47:05Z</time>
      </trkpt>
      <trkpt lat="43.30879" lon="2.25352">
        <ele>298.3</ele>
        <time>2022-01-16T09:47:14Z</time>
      </trkpt>
      <trkpt lat="43.30871" lon="2.25372">
        <ele>300.2</ele>
        <time>2022-01-16T09:47:26Z</time>
      </trkpt>
      <trkpt lat="43.30868" lon="2.25379">
        <ele>300</ele>
        <time>2022-01-16T09:47:31Z</time>
      </trkpt>
      <trkpt lat="43.30865" lon="2.25386">
        <ele>299.8</ele>
        <time>2022-01-16T09:47:36Z</time>
      </trkpt>
      <trkpt lat="43.30863" lon="2.25391">
        <ele>299.7</ele>
        <time>2022-01-16T09:47:40Z</time>
      </trkpt>
      <trkpt lat="43.30861" lon="2.25398">
        <ele>300</ele>
        <time>2022-01-16T09:47:44Z</time>
      </trkpt>
      <trkpt lat="43.30859" lon="2.25412">
        <ele>299.5</ele>
        <time>2022-01-16T09:47:53Z</time>
      </trkpt>
      <trkpt lat="43.30857" lon="2.25425">
        <ele>298</ele>
        <time>2022-01-16T09:48:01Z</time>
      </trkpt>
      <trkpt lat="43.30856" lon="2.25433">
        <ele>297.9</ele>
        <time>2022-01-16T09:48:05Z</time>
      </trkpt>
      <trkpt lat="43.30856" lon="2.2544">
        <ele>298</ele>
        <time>2022-01-16T09:48:09Z</time>
      </trkpt>
      <trkpt lat="43.30855" lon="2.25454">
        <ele>297.8</ele>
        <time>2022-01-16T09:48:19Z</time>
      </trkpt>
      <trkpt lat="43.30856" lon="2.2546">
        <ele>297.7</ele>
        <time>2022-01-16T09:48:23Z</time>
      </trkpt>
      <trkpt lat="43.30855" lon="2.25476">
        <ele>298.1</ele>
        <time>2022-01-16T09:48:33Z</time>
      </trkpt>
      <trkpt lat="43.30854" lon="2.25496">
        <ele>295.3</ele>
        <time>2022-01-16T09:48:45Z</time>
      </trkpt>
      <trkpt lat="43.30854" lon="2.25511">
        <ele>294.6</ele>
        <time>2022-01-16T09:48:52Z</time>
      </trkpt>
      <trkpt lat="43.30851" lon="2.25517">
        <ele>294.3</ele>
        <time>2022-01-16T09:48:56Z</time>
      </trkpt>
      <trkpt lat="43.30849" lon="2.25531">
        <ele>295.2</ele>
        <time>2022-01-16T09:49:07Z</time>
      </trkpt>
      <trkpt lat="43.30845" lon="2.25546">
        <ele>294.9</ele>
        <time>2022-01-16T09:49:17Z</time>
      </trkpt>
      <trkpt lat="43.30842" lon="2.25554">
        <ele>294.6</ele>
        <time>2022-01-16T09:49:22Z</time>
      </trkpt>
      <trkpt lat="43.30839" lon="2.25567">
        <ele>294</ele>
        <time>2022-01-16T09:49:28Z</time>
      </trkpt>
      <trkpt lat="43.30834" lon="2.2558">
        <ele>293.4</ele>
        <time>2022-01-16T09:49:36Z</time>
      </trkpt>
      <trkpt lat="43.3083" lon="2.25594">
        <ele>294.1</ele>
        <time>2022-01-16T09:49:43Z</time>
      </trkpt>
      <trkpt lat="43.30828" lon="2.25601">
        <ele>294.9</ele>
        <time>2022-01-16T09:49:47Z</time>
      </trkpt>
      <trkpt lat="43.30826" lon="2.25609">
        <ele>295.8</ele>
        <time>2022-01-16T09:49:52Z</time>
      </trkpt>
      <trkpt lat="43.30824" lon="2.25617">
        <ele>296.8</ele>
        <time>2022-01-16T09:49:57Z</time>
      </trkpt>
      <trkpt lat="43.30822" lon="2.25624">
        <ele>297.4</ele>
        <time>2022-01-16T09:50:02Z</time>
      </trkpt>
      <trkpt lat="43.30819" lon="2.2564">
        <ele>298.9</ele>
        <time>2022-01-16T09:50:12Z</time>
      </trkpt>
      <trkpt lat="43.30813" lon="2.25658">
        <ele>301.3</ele>
        <time>2022-01-16T09:50:23Z</time>
      </trkpt>
      <trkpt lat="43.3081" lon="2.25664">
        <ele>302.1</ele>
        <time>2022-01-16T09:50:27Z</time>
      </trkpt>
      <trkpt lat="43.30808" lon="2.25679">
        <ele>303.3</ele>
        <time>2022-01-16T09:50:35Z</time>
      </trkpt>
      <trkpt lat="43.30803" lon="2.257">
        <ele>303</ele>
        <time>2022-01-16T09:50:48Z</time>
      </trkpt>
      <trkpt lat="43.30799" lon="2.25713">
        <ele>302.9</ele>
        <time>2022-01-16T09:50:56Z</time>
      </trkpt>
      <trkpt lat="43.30796" lon="2.25726">
        <ele>303</ele>
        <time>2022-01-16T09:51:04Z</time>
      </trkpt>
      <trkpt lat="43.30794" lon="2.25732">
        <ele>303.4</ele>
        <time>2022-01-16T09:51:08Z</time>
      </trkpt>
      <trkpt lat="43.30791" lon="2.25736">
        <ele>304.4</ele>
        <time>2022-01-16T09:51:13Z</time>
      </trkpt>
      <trkpt lat="43.30791" lon="2.25743">
        <ele>305</ele>
        <time>2022-01-16T09:51:16Z</time>
      </trkpt>
      <trkpt lat="43.30791" lon="2.2575">
        <ele>305.5</ele>
        <time>2022-01-16T09:51:20Z</time>
      </trkpt>
      <trkpt lat="43.30789" lon="2.25757">
        <ele>305.9</ele>
        <time>2022-01-16T09:51:24Z</time>
      </trkpt>
      <trkpt lat="43.30788" lon="2.25765">
        <ele>306</ele>
        <time>2022-01-16T09:51:28Z</time>
      </trkpt>
      <trkpt lat="43.30786" lon="2.25771">
        <ele>305.9</ele>
        <time>2022-01-16T09:51:32Z</time>
      </trkpt>
      <trkpt lat="43.30784" lon="2.25777">
        <ele>305.1</ele>
        <time>2022-01-16T09:51:36Z</time>
      </trkpt>
      <trkpt lat="43.30782" lon="2.25784">
        <ele>304</ele>
        <time>2022-01-16T09:51:40Z</time>
      </trkpt>
      <trkpt lat="43.30777" lon="2.25796">
        <ele>303.5</ele>
        <time>2022-01-16T09:51:48Z</time>
      </trkpt>
      <trkpt lat="43.30775" lon="2.25803">
        <ele>303.3</ele>
        <time>2022-01-16T09:51:52Z</time>
      </trkpt>
      <trkpt lat="43.30773" lon="2.25809">
        <ele>302.8</ele>
        <time>2022-01-16T09:51:56Z</time>
      </trkpt>
      <trkpt lat="43.30767" lon="2.2583">
        <ele>301.8</ele>
        <time>2022-01-16T09:52:08Z</time>
      </trkpt>
      <trkpt lat="43.30765" lon="2.25835">
        <ele>302.1</ele>
        <time>2022-01-16T09:52:12Z</time>
      </trkpt>
      <trkpt lat="43.3076" lon="2.25855">
        <ele>303.5</ele>
        <time>2022-01-16T09:52:25Z</time>
      </trkpt>
      <trkpt lat="43.30755" lon="2.25874">
        <ele>305.9</ele>
        <time>2022-01-16T09:52:37Z</time>
      </trkpt>
      <trkpt lat="43.3075" lon="2.25887">
        <ele>306.2</ele>
        <time>2022-01-16T09:52:45Z</time>
      </trkpt>
      <trkpt lat="43.30747" lon="2.25901">
        <ele>303.3</ele>
        <time>2022-01-16T09:52:53Z</time>
      </trkpt>
      <trkpt lat="43.30744" lon="2.25914">
        <ele>300.4</ele>
        <time>2022-01-16T09:53:01Z</time>
      </trkpt>
      <trkpt lat="43.30743" lon="2.25928">
        <ele>300.4</ele>
        <time>2022-01-16T09:53:09Z</time>
      </trkpt>
      <trkpt lat="43.30741" lon="2.25934">
        <ele>300.6</ele>
        <time>2022-01-16T09:53:13Z</time>
      </trkpt>
      <trkpt lat="43.30733" lon="2.25954">
        <ele>299.8</ele>
        <time>2022-01-16T09:53:25Z</time>
      </trkpt>
      <trkpt lat="43.30731" lon="2.25961">
        <ele>299.4</ele>
        <time>2022-01-16T09:53:29Z</time>
      </trkpt>
      <trkpt lat="43.30727" lon="2.25974">
        <ele>299.3</ele>
        <time>2022-01-16T09:53:36Z</time>
      </trkpt>
      <trkpt lat="43.30726" lon="2.25987">
        <ele>299.6</ele>
        <time>2022-01-16T09:53:44Z</time>
      </trkpt>
      <trkpt lat="43.3072" lon="2.26009">
        <ele>300</ele>
        <time>2022-01-16T09:53:56Z</time>
      </trkpt>
      <trkpt lat="43.30714" lon="2.26029">
        <ele>298.9</ele>
        <time>2022-01-16T09:54:08Z</time>
      </trkpt>
      <trkpt lat="43.3071" lon="2.26041">
        <ele>295.7</ele>
        <time>2022-01-16T09:54:17Z</time>
      </trkpt>
      <trkpt lat="43.30708" lon="2.26049">
        <ele>295.1</ele>
        <time>2022-01-16T09:54:21Z</time>
      </trkpt>
      <trkpt lat="43.30722" lon="2.26046">
        <ele>294.2</ele>
        <time>2022-01-16T09:55:25Z</time>
      </trkpt>
      <trkpt lat="43.30726" lon="2.26045">
        <ele>294.1</ele>
        <time>2022-01-16T09:55:29Z</time>
      </trkpt>
      <trkpt lat="43.30736" lon="2.26045">
        <ele>294.8</ele>
        <time>2022-01-16T09:55:38Z</time>
      </trkpt>
      <trkpt lat="43.30741" lon="2.26046">
        <ele>295</ele>
        <time>2022-01-16T09:55:42Z</time>
      </trkpt>
      <trkpt lat="43.30759" lon="2.26054">
        <ele>296.4</ele>
        <time>2022-01-16T09:55:57Z</time>
      </trkpt>
      <trkpt lat="43.30764" lon="2.26055">
        <ele>297.1</ele>
        <time>2022-01-16T09:56:00Z</time>
      </trkpt>
      <trkpt lat="43.30768" lon="2.26053">
        <ele>297.6</ele>
        <time>2022-01-16T09:56:03Z</time>
      </trkpt>
      <trkpt lat="43.30773" lon="2.26048">
        <ele>297.2</ele>
        <time>2022-01-16T09:56:31Z</time>
      </trkpt>
      <trkpt lat="43.30776" lon="2.26045">
        <ele>297</ele>
        <time>2022-01-16T09:56:40Z</time>
      </trkpt>
      <trkpt lat="43.3078" lon="2.26051">
        <ele>298.6</ele>
        <time>2022-01-16T09:57:14Z</time>
      </trkpt>
      <trkpt lat="43.30777" lon="2.26057">
        <ele>299.9</ele>
        <time>2022-01-16T09:57:20Z</time>
      </trkpt>
      <trkpt lat="43.30775" lon="2.26071">
        <ele>300.5</ele>
        <time>2022-01-16T09:57:32Z</time>
      </trkpt>
      <trkpt lat="43.30775" lon="2.26085">
        <ele>300.9</ele>
        <time>2022-01-16T09:57:41Z</time>
      </trkpt>
      <trkpt lat="43.30774" lon="2.26092">
        <ele>301.6</ele>
        <time>2022-01-16T09:57:51Z</time>
      </trkpt>
      <trkpt lat="43.3077" lon="2.26112">
        <ele>301.1</ele>
        <time>2022-01-16T09:58:11Z</time>
      </trkpt>
      <trkpt lat="43.30769" lon="2.26119">
        <ele>300.8</ele>
        <time>2022-01-16T09:58:15Z</time>
      </trkpt>
      <trkpt lat="43.30767" lon="2.26125">
        <ele>300.6</ele>
        <time>2022-01-16T09:58:19Z</time>
      </trkpt>
      <trkpt lat="43.30765" lon="2.26132">
        <ele>299.8</ele>
        <time>2022-01-16T09:58:23Z</time>
      </trkpt>
      <trkpt lat="43.30761" lon="2.26145">
        <ele>297</ele>
        <time>2022-01-16T09:58:31Z</time>
      </trkpt>
      <trkpt lat="43.3076" lon="2.26151">
        <ele>297</ele>
        <time>2022-01-16T09:58:37Z</time>
      </trkpt>
      <trkpt lat="43.30752" lon="2.26176">
        <ele>295.8</ele>
        <time>2022-01-16T09:59:00Z</time>
      </trkpt>
      <trkpt lat="43.30746" lon="2.26188">
        <ele>295.4</ele>
        <time>2022-01-16T09:59:06Z</time>
      </trkpt>
      <trkpt lat="43.30731" lon="2.26217">
        <ele>295.7</ele>
        <time>2022-01-16T09:59:24Z</time>
      </trkpt>
      <trkpt lat="43.30727" lon="2.26228">
        <ele>295</ele>
        <time>2022-01-16T09:59:31Z</time>
      </trkpt>
      <trkpt lat="43.30725" lon="2.26235">
        <ele>294.7</ele>
        <time>2022-01-16T09:59:35Z</time>
      </trkpt>
      <trkpt lat="43.30722" lon="2.2625">
        <ele>295.6</ele>
        <time>2022-01-16T09:59:43Z</time>
      </trkpt>
      <trkpt lat="43.3072" lon="2.26257">
        <ele>295.9</ele>
        <time>2022-01-16T09:59:48Z</time>
      </trkpt>
      <trkpt lat="43.30719" lon="2.26264">
        <ele>295.8</ele>
        <time>2022-01-16T09:59:52Z</time>
      </trkpt>
      <trkpt lat="43.30713" lon="2.26291">
        <ele>295.2</ele>
        <time>2022-01-16T10:00:06Z</time>
      </trkpt>
      <trkpt lat="43.3071" lon="2.26296">
        <ele>294.2</ele>
        <time>2022-01-16T10:00:11Z</time>
      </trkpt>
      <trkpt lat="43.30709" lon="2.26303">
        <ele>291.9</ele>
        <time>2022-01-16T10:00:20Z</time>
      </trkpt>
      <trkpt lat="43.30705" lon="2.26315">
        <ele>291.1</ele>
        <time>2022-01-16T10:00:29Z</time>
      </trkpt>
      <trkpt lat="43.30702" lon="2.26336">
        <ele>290.9</ele>
        <time>2022-01-16T10:00:41Z</time>
      </trkpt>
      <trkpt lat="43.30698" lon="2.26357">
        <ele>290.5</ele>
        <time>2022-01-16T10:00:49Z</time>
      </trkpt>
      <trkpt lat="43.30694" lon="2.2637">
        <ele>290.5</ele>
        <time>2022-01-16T10:00:57Z</time>
      </trkpt>
      <trkpt lat="43.30692" lon="2.26376">
        <ele>290.5</ele>
        <time>2022-01-16T10:01:01Z</time>
      </trkpt>
      <trkpt lat="43.30684" lon="2.26409">
        <ele>290.2</ele>
        <time>2022-01-16T10:01:21Z</time>
      </trkpt>
      <trkpt lat="43.30679" lon="2.2643">
        <ele>290.6</ele>
        <time>2022-01-16T10:01:33Z</time>
      </trkpt>
      <trkpt lat="43.30677" lon="2.26445">
        <ele>291.3</ele>
        <time>2022-01-16T10:01:42Z</time>
      </trkpt>
      <trkpt lat="43.30676" lon="2.26466">
        <ele>292.2</ele>
        <time>2022-01-16T10:01:55Z</time>
      </trkpt>
      <trkpt lat="43.30671" lon="2.26493">
        <ele>290.7</ele>
        <time>2022-01-16T10:02:10Z</time>
      </trkpt>
      <trkpt lat="43.30667" lon="2.26506">
        <ele>289.9</ele>
        <time>2022-01-16T10:02:18Z</time>
      </trkpt>
      <trkpt lat="43.30664" lon="2.26512">
        <ele>289.9</ele>
        <time>2022-01-16T10:02:23Z</time>
      </trkpt>
      <trkpt lat="43.30661" lon="2.26517">
        <ele>290.2</ele>
        <time>2022-01-16T10:02:27Z</time>
      </trkpt>
      <trkpt lat="43.30659" lon="2.26523">
        <ele>290.5</ele>
        <time>2022-01-16T10:02:31Z</time>
      </trkpt>
      <trkpt lat="43.30657" lon="2.2653">
        <ele>290.7</ele>
        <time>2022-01-16T10:02:35Z</time>
      </trkpt>
      <trkpt lat="43.30653" lon="2.26535">
        <ele>290.5</ele>
        <time>2022-01-16T10:03:00Z</time>
      </trkpt>
      <trkpt lat="43.30652" lon="2.26541">
        <ele>290.5</ele>
        <time>2022-01-16T10:03:05Z</time>
      </trkpt>
      <trkpt lat="43.3065" lon="2.26546">
        <ele>290.9</ele>
        <time>2022-01-16T10:03:10Z</time>
      </trkpt>
      <trkpt lat="43.30647" lon="2.26552">
        <ele>291.4</ele>
        <time>2022-01-16T10:03:14Z</time>
      </trkpt>
      <trkpt lat="43.30638" lon="2.26573">
        <ele>291.7</ele>
        <time>2022-01-16T10:03:24Z</time>
      </trkpt>
      <trkpt lat="43.30633" lon="2.26583">
        <ele>292.2</ele>
        <time>2022-01-16T10:03:37Z</time>
      </trkpt>
      <trkpt lat="43.30628" lon="2.26582">
        <ele>292.1</ele>
        <time>2022-01-16T10:03:59Z</time>
      </trkpt>
      <trkpt lat="43.30624" lon="2.26577">
        <ele>291.4</ele>
        <time>2022-01-16T10:04:05Z</time>
      </trkpt>
      <trkpt lat="43.30617" lon="2.26568">
        <ele>290.2</ele>
        <time>2022-01-16T10:05:06Z</time>
      </trkpt>
      <trkpt lat="43.30612" lon="2.26565">
        <ele>290.4</ele>
        <time>2022-01-16T10:05:11Z</time>
      </trkpt>
      <trkpt lat="43.306" lon="2.26553">
        <ele>290.9</ele>
        <time>2022-01-16T10:05:26Z</time>
      </trkpt>
      <trkpt lat="43.30596" lon="2.2655">
        <ele>290.1</ele>
        <time>2022-01-16T10:05:31Z</time>
      </trkpt>
      <trkpt lat="43.30591" lon="2.26546">
        <ele>289.4</ele>
        <time>2022-01-16T10:05:35Z</time>
      </trkpt>
      <trkpt lat="43.30579" lon="2.26533">
        <ele>289.7</ele>
        <time>2022-01-16T10:05:43Z</time>
      </trkpt>
      <trkpt lat="43.30576" lon="2.26528">
        <ele>290.1</ele>
        <time>2022-01-16T10:05:47Z</time>
      </trkpt>
      <trkpt lat="43.30573" lon="2.26522">
        <ele>289.9</ele>
        <time>2022-01-16T10:05:51Z</time>
      </trkpt>
      <trkpt lat="43.30564" lon="2.26527">
        <ele>289.5</ele>
        <time>2022-01-16T10:06:25Z</time>
      </trkpt>
      <trkpt lat="43.30554" lon="2.26528">
        <ele>290</ele>
        <time>2022-01-16T10:06:35Z</time>
      </trkpt>
      <trkpt lat="43.30548" lon="2.26528">
        <ele>289.7</ele>
        <time>2022-01-16T10:06:38Z</time>
      </trkpt>
      <trkpt lat="43.30544" lon="2.26527">
        <ele>289.5</ele>
        <time>2022-01-16T10:06:41Z</time>
      </trkpt>
      <trkpt lat="43.30538" lon="2.26527">
        <ele>289.5</ele>
        <time>2022-01-16T10:06:45Z</time>
      </trkpt>
      <trkpt lat="43.30534" lon="2.26532">
        <ele>290</ele>
        <time>2022-01-16T10:06:51Z</time>
      </trkpt>
      <trkpt lat="43.30532" lon="2.26538">
        <ele>290.8</ele>
        <time>2022-01-16T10:06:55Z</time>
      </trkpt>
      <trkpt lat="43.30532" lon="2.26545">
        <ele>291.9</ele>
        <time>2022-01-16T10:07:04Z</time>
      </trkpt>
      <trkpt lat="43.30531" lon="2.26553">
        <ele>292.3</ele>
        <time>2022-01-16T10:07:07Z</time>
      </trkpt>
      <trkpt lat="43.30528" lon="2.26565">
        <ele>294.8</ele>
        <time>2022-01-16T10:07:15Z</time>
      </trkpt>
      <trkpt lat="43.30524" lon="2.2659">
        <ele>295.9</ele>
        <time>2022-01-16T10:07:25Z</time>
      </trkpt>
      <trkpt lat="43.30523" lon="2.26598">
        <ele>295.9</ele>
        <time>2022-01-16T10:07:29Z</time>
      </trkpt>
      <trkpt lat="43.30522" lon="2.26606">
        <ele>295.2</ele>
        <time>2022-01-16T10:07:33Z</time>
      </trkpt>
      <trkpt lat="43.3052" lon="2.26613">
        <ele>294.1</ele>
        <time>2022-01-16T10:07:37Z</time>
      </trkpt>
      <trkpt lat="43.30519" lon="2.26635">
        <ele>293.2</ele>
        <time>2022-01-16T10:07:50Z</time>
      </trkpt>
      <trkpt lat="43.30519" lon="2.26642">
        <ele>292.8</ele>
        <time>2022-01-16T10:07:54Z</time>
      </trkpt>
      <trkpt lat="43.30518" lon="2.26649">
        <ele>292.5</ele>
        <time>2022-01-16T10:07:58Z</time>
      </trkpt>
      <trkpt lat="43.30519" lon="2.26662">
        <ele>291.5</ele>
        <time>2022-01-16T10:08:06Z</time>
      </trkpt>
      <trkpt lat="43.30519" lon="2.26669">
        <ele>291.5</ele>
        <time>2022-01-16T10:08:09Z</time>
      </trkpt>
      <trkpt lat="43.3052" lon="2.26676">
        <ele>291.1</ele>
        <time>2022-01-16T10:08:13Z</time>
      </trkpt>
      <trkpt lat="43.30519" lon="2.26684">
        <ele>290.3</ele>
        <time>2022-01-16T10:08:17Z</time>
      </trkpt>
      <trkpt lat="43.30515" lon="2.26707">
        <ele>289.1</ele>
        <time>2022-01-16T10:08:30Z</time>
      </trkpt>
      <trkpt lat="43.30513" lon="2.26714">
        <ele>289.6</ele>
        <time>2022-01-16T10:08:35Z</time>
      </trkpt>
      <trkpt lat="43.30513" lon="2.26722">
        <ele>289.8</ele>
        <time>2022-01-16T10:08:39Z</time>
      </trkpt>
      <trkpt lat="43.30512" lon="2.26729">
        <ele>289.7</ele>
        <time>2022-01-16T10:08:43Z</time>
      </trkpt>
      <trkpt lat="43.3051" lon="2.26734">
        <ele>289.6</ele>
        <time>2022-01-16T10:08:47Z</time>
      </trkpt>
      <trkpt lat="43.30506" lon="2.26738">
        <ele>289.3</ele>
        <time>2022-01-16T10:08:55Z</time>
      </trkpt>
      <trkpt lat="43.30501" lon="2.26759">
        <ele>291.1</ele>
        <time>2022-01-16T10:09:10Z</time>
      </trkpt>
      <trkpt lat="43.30499" lon="2.26765">
        <ele>291.1</ele>
        <time>2022-01-16T10:09:13Z</time>
      </trkpt>
      <trkpt lat="43.30488" lon="2.26811">
        <ele>290</ele>
        <time>2022-01-16T10:09:38Z</time>
      </trkpt>
      <trkpt lat="43.30483" lon="2.26825">
        <ele>291</ele>
        <time>2022-01-16T10:09:47Z</time>
      </trkpt>
      <trkpt lat="43.30482" lon="2.26832">
        <ele>291.3</ele>
        <time>2022-01-16T10:09:51Z</time>
      </trkpt>
      <trkpt lat="43.30479" lon="2.26847">
        <ele>291.5</ele>
        <time>2022-01-16T10:09:59Z</time>
      </trkpt>
      <trkpt lat="43.30476" lon="2.26859">
        <ele>291.4</ele>
        <time>2022-01-16T10:10:06Z</time>
      </trkpt>
      <trkpt lat="43.3047" lon="2.26878">
        <ele>290.3</ele>
        <time>2022-01-16T10:10:16Z</time>
      </trkpt>
      <trkpt lat="43.30469" lon="2.26885">
        <ele>289.4</ele>
        <time>2022-01-16T10:10:20Z</time>
      </trkpt>
      <trkpt lat="43.30467" lon="2.26891">
        <ele>288.5</ele>
        <time>2022-01-16T10:10:24Z</time>
      </trkpt>
      <trkpt lat="43.30466" lon="2.26898">
        <ele>287.8</ele>
        <time>2022-01-16T10:10:28Z</time>
      </trkpt>
      <trkpt lat="43.30466" lon="2.26912">
        <ele>287.7</ele>
        <time>2022-01-16T10:10:37Z</time>
      </trkpt>
      <trkpt lat="43.30464" lon="2.26919">
        <ele>288.1</ele>
        <time>2022-01-16T10:10:42Z</time>
      </trkpt>
      <trkpt lat="43.30464" lon="2.26927">
        <ele>288.8</ele>
        <time>2022-01-16T10:10:47Z</time>
      </trkpt>
      <trkpt lat="43.30454" lon="2.2696">
        <ele>289.9</ele>
        <time>2022-01-16T10:11:07Z</time>
      </trkpt>
      <trkpt lat="43.30448" lon="2.2698">
        <ele>289.3</ele>
        <time>2022-01-16T10:11:20Z</time>
      </trkpt>
      <trkpt lat="43.30446" lon="2.26986">
        <ele>288.9</ele>
        <time>2022-01-16T10:11:24Z</time>
      </trkpt>
      <trkpt lat="43.30441" lon="2.27014">
        <ele>285.7</ele>
        <time>2022-01-16T10:11:40Z</time>
      </trkpt>
      <trkpt lat="43.3044" lon="2.27022">
        <ele>285.9</ele>
        <time>2022-01-16T10:11:44Z</time>
      </trkpt>
      <trkpt lat="43.30439" lon="2.27029">
        <ele>286.3</ele>
        <time>2022-01-16T10:11:49Z</time>
      </trkpt>
      <trkpt lat="43.30438" lon="2.27036">
        <ele>287.1</ele>
        <time>2022-01-16T10:11:53Z</time>
      </trkpt>
      <trkpt lat="43.30436" lon="2.27049">
        <ele>289.4</ele>
        <time>2022-01-16T10:12:01Z</time>
      </trkpt>
      <trkpt lat="43.30434" lon="2.27057">
        <ele>290</ele>
        <time>2022-01-16T10:12:05Z</time>
      </trkpt>
      <trkpt lat="43.30431" lon="2.27062">
        <ele>290.3</ele>
        <time>2022-01-16T10:12:09Z</time>
      </trkpt>
      <trkpt lat="43.30429" lon="2.27069">
        <ele>290.4</ele>
        <time>2022-01-16T10:12:13Z</time>
      </trkpt>
      <trkpt lat="43.30423" lon="2.2708">
        <ele>290.6</ele>
        <time>2022-01-16T10:12:19Z</time>
      </trkpt>
      <trkpt lat="43.30421" lon="2.27086">
        <ele>290.6</ele>
        <time>2022-01-16T10:12:23Z</time>
      </trkpt>
      <trkpt lat="43.30419" lon="2.27092">
        <ele>290.3</ele>
        <time>2022-01-16T10:12:27Z</time>
      </trkpt>
      <trkpt lat="43.30419" lon="2.271">
        <ele>289.9</ele>
        <time>2022-01-16T10:12:31Z</time>
      </trkpt>
      <trkpt lat="43.30417" lon="2.27107">
        <ele>289.3</ele>
        <time>2022-01-16T10:12:35Z</time>
      </trkpt>
      <trkpt lat="43.30413" lon="2.27126">
        <ele>284.6</ele>
        <time>2022-01-16T10:12:50Z</time>
      </trkpt>
      <trkpt lat="43.30412" lon="2.27142">
        <ele>284.8</ele>
        <time>2022-01-16T10:12:59Z</time>
      </trkpt>
      <trkpt lat="43.30411" lon="2.27149">
        <ele>284.9</ele>
        <time>2022-01-16T10:13:02Z</time>
      </trkpt>
      <trkpt lat="43.30411" lon="2.27155">
        <ele>284.8</ele>
        <time>2022-01-16T10:13:07Z</time>
      </trkpt>
      <trkpt lat="43.30411" lon="2.27162">
        <ele>284.6</ele>
        <time>2022-01-16T10:13:11Z</time>
      </trkpt>
      <trkpt lat="43.3041" lon="2.27169">
        <ele>284.5</ele>
        <time>2022-01-16T10:13:15Z</time>
      </trkpt>
      <trkpt lat="43.30407" lon="2.27197">
        <ele>285</ele>
        <time>2022-01-16T10:13:29Z</time>
      </trkpt>
      <trkpt lat="43.30407" lon="2.27204">
        <ele>285.5</ele>
        <time>2022-01-16T10:13:34Z</time>
      </trkpt>
      <trkpt lat="43.30406" lon="2.2721">
        <ele>285.7</ele>
        <time>2022-01-16T10:13:40Z</time>
      </trkpt>
      <trkpt lat="43.30403" lon="2.27225">
        <ele>285.9</ele>
        <time>2022-01-16T10:13:49Z</time>
      </trkpt>
      <trkpt lat="43.304" lon="2.27231">
        <ele>285.8</ele>
        <time>2022-01-16T10:13:56Z</time>
      </trkpt>
      <trkpt lat="43.30398" lon="2.27237">
        <ele>285.4</ele>
        <time>2022-01-16T10:14:00Z</time>
      </trkpt>
      <trkpt lat="43.30397" lon="2.27243">
        <ele>285</ele>
        <time>2022-01-16T10:14:04Z</time>
      </trkpt>
      <trkpt lat="43.30397" lon="2.2725">
        <ele>284.8</ele>
        <time>2022-01-16T10:14:08Z</time>
      </trkpt>
      <trkpt lat="43.30397" lon="2.27256">
        <ele>284.5</ele>
        <time>2022-01-16T10:14:22Z</time>
      </trkpt>
      <trkpt lat="43.30396" lon="2.27263">
        <ele>284.2</ele>
        <time>2022-01-16T10:14:25Z</time>
      </trkpt>
      <trkpt lat="43.30395" lon="2.27277">
        <ele>284.2</ele>
        <time>2022-01-16T10:14:33Z</time>
      </trkpt>
      <trkpt lat="43.30396" lon="2.27284">
        <ele>284.6</ele>
        <time>2022-01-16T10:14:40Z</time>
      </trkpt>
      <trkpt lat="43.30395" lon="2.27306">
        <ele>284.8</ele>
        <time>2022-01-16T10:14:52Z</time>
      </trkpt>
      <trkpt lat="43.30394" lon="2.27313">
        <ele>284.9</ele>
        <time>2022-01-16T10:14:56Z</time>
      </trkpt>
      <trkpt lat="43.30394" lon="2.27319">
        <ele>284.8</ele>
        <time>2022-01-16T10:15:00Z</time>
      </trkpt>
      <trkpt lat="43.30391" lon="2.27325">
        <ele>284.8</ele>
        <time>2022-01-16T10:15:07Z</time>
      </trkpt>
      <trkpt lat="43.30391" lon="2.27332">
        <ele>284.9</ele>
        <time>2022-01-16T10:15:12Z</time>
      </trkpt>
      <trkpt lat="43.3039" lon="2.2734">
        <ele>285</ele>
        <time>2022-01-16T10:15:17Z</time>
      </trkpt>
      <trkpt lat="43.30389" lon="2.27347">
        <ele>285</ele>
        <time>2022-01-16T10:15:22Z</time>
      </trkpt>
      <trkpt lat="43.30389" lon="2.27355">
        <ele>284.7</ele>
        <time>2022-01-16T10:15:27Z</time>
      </trkpt>
      <trkpt lat="43.30389" lon="2.27363">
        <ele>284.4</ele>
        <time>2022-01-16T10:15:31Z</time>
      </trkpt>
      <trkpt lat="43.30388" lon="2.27369">
        <ele>284</ele>
        <time>2022-01-16T10:15:34Z</time>
      </trkpt>
      <trkpt lat="43.30387" lon="2.27384">
        <ele>283.4</ele>
        <time>2022-01-16T10:15:43Z</time>
      </trkpt>
      <trkpt lat="43.30388" lon="2.27411">
        <ele>284.8</ele>
        <time>2022-01-16T10:16:09Z</time>
      </trkpt>
      <trkpt lat="43.30387" lon="2.27429">
        <ele>285.2</ele>
        <time>2022-01-16T10:16:16Z</time>
      </trkpt>
      <trkpt lat="43.30388" lon="2.27443">
        <ele>285.1</ele>
        <time>2022-01-16T10:16:23Z</time>
      </trkpt>
      <trkpt lat="43.30389" lon="2.2745">
        <ele>284.9</ele>
        <time>2022-01-16T10:16:27Z</time>
      </trkpt>
      <trkpt lat="43.30393" lon="2.27454">
        <ele>284.6</ele>
        <time>2022-01-16T10:16:32Z</time>
      </trkpt>
      <trkpt lat="43.30398" lon="2.27457">
        <ele>284.1</ele>
        <time>2022-01-16T10:16:39Z</time>
      </trkpt>
      <trkpt lat="43.30401" lon="2.27462">
        <ele>284</ele>
        <time>2022-01-16T10:16:43Z</time>
      </trkpt>
      <trkpt lat="43.30405" lon="2.27467">
        <ele>283.8</ele>
        <time>2022-01-16T10:16:48Z</time>
      </trkpt>
      <trkpt lat="43.30409" lon="2.27472">
        <ele>283.3</ele>
        <time>2022-01-16T10:16:53Z</time>
      </trkpt>
      <trkpt lat="43.30411" lon="2.27478">
        <ele>282.9</ele>
        <time>2022-01-16T10:16:58Z</time>
      </trkpt>
      <trkpt lat="43.30416" lon="2.27482">
        <ele>284.5</ele>
        <time>2022-01-16T10:17:07Z</time>
      </trkpt>
      <trkpt lat="43.3042" lon="2.27483">
        <ele>285.5</ele>
        <time>2022-01-16T10:17:12Z</time>
      </trkpt>
      <trkpt lat="43.30435" lon="2.27481">
        <ele>285.8</ele>
        <time>2022-01-16T10:17:28Z</time>
      </trkpt>
      <trkpt lat="43.30439" lon="2.27479">
        <ele>285.3</ele>
        <time>2022-01-16T10:17:33Z</time>
      </trkpt>
      <trkpt lat="43.3045" lon="2.27476">
        <ele>285.1</ele>
        <time>2022-01-16T10:17:43Z</time>
      </trkpt>
      <trkpt lat="43.30456" lon="2.27473">
        <ele>285.9</ele>
        <time>2022-01-16T10:17:48Z</time>
      </trkpt>
      <trkpt lat="43.30461" lon="2.2747">
        <ele>286.6</ele>
        <time>2022-01-16T10:17:53Z</time>
      </trkpt>
      <trkpt lat="43.30466" lon="2.27469">
        <ele>287.3</ele>
        <time>2022-01-16T10:17:58Z</time>
      </trkpt>
      <trkpt lat="43.30471" lon="2.27468">
        <ele>287.9</ele>
        <time>2022-01-16T10:18:03Z</time>
      </trkpt>
      <trkpt lat="43.30481" lon="2.27469">
        <ele>289.4</ele>
        <time>2022-01-16T10:18:12Z</time>
      </trkpt>
      <trkpt lat="43.30487" lon="2.27471">
        <ele>290.4</ele>
        <time>2022-01-16T10:18:15Z</time>
      </trkpt>
      <trkpt lat="43.30492" lon="2.27472">
        <ele>291.8</ele>
        <time>2022-01-16T10:18:19Z</time>
      </trkpt>
      <trkpt lat="43.30497" lon="2.27471">
        <ele>292.9</ele>
        <time>2022-01-16T10:18:23Z</time>
      </trkpt>
      <trkpt lat="43.30506" lon="2.27466">
        <ele>294.3</ele>
        <time>2022-01-16T10:18:33Z</time>
      </trkpt>
      <trkpt lat="43.30511" lon="2.27462">
        <ele>295.2</ele>
        <time>2022-01-16T10:18:39Z</time>
      </trkpt>
      <trkpt lat="43.30516" lon="2.27464">
        <ele>295.3</ele>
        <time>2022-01-16T10:18:44Z</time>
      </trkpt>
      <trkpt lat="43.30522" lon="2.27466">
        <ele>293.1</ele>
        <time>2022-01-16T10:18:54Z</time>
      </trkpt>
      <trkpt lat="43.30526" lon="2.27469">
        <ele>292.7</ele>
        <time>2022-01-16T10:18:59Z</time>
      </trkpt>
      <trkpt lat="43.30531" lon="2.27474">
        <ele>293.4</ele>
        <time>2022-01-16T10:19:05Z</time>
      </trkpt>
      <trkpt lat="43.3054" lon="2.27481">
        <ele>293.8</ele>
        <time>2022-01-16T10:19:12Z</time>
      </trkpt>
      <trkpt lat="43.30544" lon="2.27483">
        <ele>293.6</ele>
        <time>2022-01-16T10:19:17Z</time>
      </trkpt>
      <trkpt lat="43.30554" lon="2.27484">
        <ele>289.5</ele>
        <time>2022-01-16T10:19:31Z</time>
      </trkpt>
      <trkpt lat="43.30559" lon="2.27483">
        <ele>288.1</ele>
        <time>2022-01-16T10:19:37Z</time>
      </trkpt>
      <trkpt lat="43.30563" lon="2.27479">
        <ele>287.3</ele>
        <time>2022-01-16T10:19:59Z</time>
      </trkpt>
      <trkpt lat="43.30566" lon="2.27474">
        <ele>287</ele>
        <time>2022-01-16T10:20:49Z</time>
      </trkpt>
      <trkpt lat="43.30571" lon="2.27474">
        <ele>285.8</ele>
        <time>2022-01-16T10:20:54Z</time>
      </trkpt>
      <trkpt lat="43.30577" lon="2.27474">
        <ele>284.9</ele>
        <time>2022-01-16T10:20:59Z</time>
      </trkpt>
      <trkpt lat="43.30582" lon="2.27473">
        <ele>282.6</ele>
        <time>2022-01-16T10:21:08Z</time>
      </trkpt>
      <trkpt lat="43.30586" lon="2.27478">
        <ele>282.4</ele>
        <time>2022-01-16T10:21:13Z</time>
      </trkpt>
      <trkpt lat="43.30588" lon="2.27484">
        <ele>282</ele>
        <time>2022-01-16T10:21:21Z</time>
      </trkpt>
      <trkpt lat="43.30591" lon="2.27489">
        <ele>281.6</ele>
        <time>2022-01-16T10:21:48Z</time>
      </trkpt>
      <trkpt lat="43.30591" lon="2.27497">
        <ele>280.3</ele>
        <time>2022-01-16T10:22:00Z</time>
      </trkpt>
      <trkpt lat="43.30592" lon="2.27504">
        <ele>280</ele>
        <time>2022-01-16T10:22:15Z</time>
      </trkpt>
      <trkpt lat="43.30592" lon="2.27511">
        <ele>279.7</ele>
        <time>2022-01-16T10:22:17Z</time>
      </trkpt>
      <trkpt lat="43.3059" lon="2.2752">
        <ele>279.3</ele>
        <time>2022-01-16T10:22:19Z</time>
      </trkpt>
      <trkpt lat="43.30587" lon="2.27527">
        <ele>278.7</ele>
        <time>2022-01-16T10:22:21Z</time>
      </trkpt>
      <trkpt lat="43.30585" lon="2.2754">
        <ele>277</ele>
        <time>2022-01-16T10:22:30Z</time>
      </trkpt>
      <trkpt lat="43.30584" lon="2.27554">
        <ele>275</ele>
        <time>2022-01-16T10:22:39Z</time>
      </trkpt>
      <trkpt lat="43.30582" lon="2.27567">
        <ele>272.4</ele>
        <time>2022-01-16T10:22:50Z</time>
      </trkpt>
      <trkpt lat="43.30587" lon="2.27563">
        <ele>272.5</ele>
        <time>2022-01-16T10:22:57Z</time>
      </trkpt>
      <trkpt lat="43.30588" lon="2.27549">
        <ele>273.6</ele>
        <time>2022-01-16T10:23:14Z</time>
      </trkpt>
      <trkpt lat="43.30589" lon="2.27543">
        <ele>273.5</ele>
        <time>2022-01-16T10:23:26Z</time>
      </trkpt>
      <trkpt lat="43.30589" lon="2.27536">
        <ele>273.3</ele>
        <time>2022-01-16T10:23:30Z</time>
      </trkpt>
      <trkpt lat="43.30589" lon="2.27529">
        <ele>272.7</ele>
        <time>2022-01-16T10:23:36Z</time>
      </trkpt>
      <trkpt lat="43.30591" lon="2.27523">
        <ele>272.5</ele>
        <time>2022-01-16T10:23:43Z</time>
      </trkpt>
      <trkpt lat="43.30593" lon="2.2751">
        <ele>274.9</ele>
        <time>2022-01-16T10:24:04Z</time>
      </trkpt>
      <trkpt lat="43.30593" lon="2.27504">
        <ele>275.4</ele>
        <time>2022-01-16T10:24:10Z</time>
      </trkpt>
      <trkpt lat="43.30594" lon="2.27497">
        <ele>275.6</ele>
        <time>2022-01-16T10:24:15Z</time>
      </trkpt>
      <trkpt lat="43.30596" lon="2.27491">
        <ele>275.3</ele>
        <time>2022-01-16T10:24:24Z</time>
      </trkpt>
      <trkpt lat="43.306" lon="2.27488">
        <ele>274.1</ele>
        <time>2022-01-16T10:24:29Z</time>
      </trkpt>
      <trkpt lat="43.30604" lon="2.27483">
        <ele>271.6</ele>
        <time>2022-01-16T10:24:36Z</time>
      </trkpt>
      <trkpt lat="43.30608" lon="2.27481">
        <ele>268.7</ele>
        <time>2022-01-16T10:26:52Z</time>
      </trkpt>
      <trkpt lat="43.30613" lon="2.27484">
        <ele>267.8</ele>
        <time>2022-01-16T10:26:57Z</time>
      </trkpt>
      <trkpt lat="43.30621" lon="2.27492">
        <ele>258.9</ele>
        <time>2022-01-16T10:27:12Z</time>
      </trkpt>
      <trkpt lat="43.30625" lon="2.27496">
        <ele>257.3</ele>
        <time>2022-01-16T10:27:24Z</time>
      </trkpt>
      <trkpt lat="43.3063" lon="2.27494">
        <ele>251.8</ele>
        <time>2022-01-16T10:27:33Z</time>
      </trkpt>
      <trkpt lat="43.30633" lon="2.27488">
        <ele>249.9</ele>
        <time>2022-01-16T10:27:38Z</time>
      </trkpt>
      <trkpt lat="43.30632" lon="2.27495">
        <ele>248</ele>
        <time>2022-01-16T10:28:19Z</time>
      </trkpt>
      <trkpt lat="43.30634" lon="2.27501">
        <ele>245.9</ele>
        <time>2022-01-16T10:28:31Z</time>
      </trkpt>
      <trkpt lat="43.30639" lon="2.27503">
        <ele>245.4</ele>
        <time>2022-01-16T10:28:50Z</time>
      </trkpt>
      <trkpt lat="43.30653" lon="2.27509">
        <ele>242.1</ele>
        <time>2022-01-16T10:29:03Z</time>
      </trkpt>
      <trkpt lat="43.30663" lon="2.27509">
        <ele>242.9</ele>
        <time>2022-01-16T10:29:17Z</time>
      </trkpt>
      <trkpt lat="43.30668" lon="2.27509">
        <ele>242.9</ele>
        <time>2022-01-16T10:29:20Z</time>
      </trkpt>
      <trkpt lat="43.30673" lon="2.27509">
        <ele>243.5</ele>
        <time>2022-01-16T10:29:31Z</time>
      </trkpt>
      <trkpt lat="43.30683" lon="2.27509">
        <ele>244.2</ele>
        <time>2022-01-16T10:29:38Z</time>
      </trkpt>
      <trkpt lat="43.30687" lon="2.27509">
        <ele>243.9</ele>
        <time>2022-01-16T10:29:44Z</time>
      </trkpt>
      <trkpt lat="43.30702" lon="2.2751">
        <ele>244</ele>
        <time>2022-01-16T10:29:56Z</time>
      </trkpt>
      <trkpt lat="43.30713" lon="2.27511">
        <ele>244.4</ele>
        <time>2022-01-16T10:30:01Z</time>
      </trkpt>
      <trkpt lat="43.30718" lon="2.27512">
        <ele>244.9</ele>
        <time>2022-01-16T10:30:04Z</time>
      </trkpt>
      <trkpt lat="43.30724" lon="2.27513">
        <ele>245.9</ele>
        <time>2022-01-16T10:30:08Z</time>
      </trkpt>
      <trkpt lat="43.30734" lon="2.27512">
        <ele>246.6</ele>
        <time>2022-01-16T10:30:16Z</time>
      </trkpt>
      <trkpt lat="43.30739" lon="2.27512">
        <ele>246.6</ele>
        <time>2022-01-16T10:30:21Z</time>
      </trkpt>
      <trkpt lat="43.30744" lon="2.27511">
        <ele>246.6</ele>
        <time>2022-01-16T10:30:26Z</time>
      </trkpt>
      <trkpt lat="43.30749" lon="2.27512">
        <ele>246.4</ele>
        <time>2022-01-16T10:30:32Z</time>
      </trkpt>
      <trkpt lat="43.30753" lon="2.27508">
        <ele>247.1</ele>
        <time>2022-01-16T10:30:38Z</time>
      </trkpt>
      <trkpt lat="43.30755" lon="2.27502">
        <ele>248.4</ele>
        <time>2022-01-16T10:30:43Z</time>
      </trkpt>
      <trkpt lat="43.30758" lon="2.27497">
        <ele>249.3</ele>
        <time>2022-01-16T10:30:49Z</time>
      </trkpt>
      <trkpt lat="43.30761" lon="2.27493">
        <ele>249.8</ele>
        <time>2022-01-16T10:31:07Z</time>
      </trkpt>
      <trkpt lat="43.30765" lon="2.27488">
        <ele>250</ele>
        <time>2022-01-16T10:31:13Z</time>
      </trkpt>
      <trkpt lat="43.3077" lon="2.27485">
        <ele>249.8</ele>
        <time>2022-01-16T10:31:19Z</time>
      </trkpt>
      <trkpt lat="43.30775" lon="2.27482">
        <ele>249.4</ele>
        <time>2022-01-16T10:31:24Z</time>
      </trkpt>
      <trkpt lat="43.30785" lon="2.27475">
        <ele>249.1</ele>
        <time>2022-01-16T10:31:33Z</time>
      </trkpt>
      <trkpt lat="43.30798" lon="2.27467">
        <ele>253.2</ele>
        <time>2022-01-16T10:31:49Z</time>
      </trkpt>
      <trkpt lat="43.30803" lon="2.27463">
        <ele>254.2</ele>
        <time>2022-01-16T10:31:55Z</time>
      </trkpt>
      <trkpt lat="43.30807" lon="2.27461">
        <ele>255.1</ele>
        <time>2022-01-16T10:32:02Z</time>
      </trkpt>
      <trkpt lat="43.30816" lon="2.27455">
        <ele>258.7</ele>
        <time>2022-01-16T10:32:51Z</time>
      </trkpt>
      <trkpt lat="43.3082" lon="2.27451">
        <ele>258.8</ele>
        <time>2022-01-16T10:32:55Z</time>
      </trkpt>
      <trkpt lat="43.30825" lon="2.27448">
        <ele>259.6</ele>
        <time>2022-01-16T10:33:04Z</time>
      </trkpt>
      <trkpt lat="43.3083" lon="2.27448">
        <ele>261.1</ele>
        <time>2022-01-16T10:33:10Z</time>
      </trkpt>
      <trkpt lat="43.30834" lon="2.27444">
        <ele>263.4</ele>
        <time>2022-01-16T10:33:19Z</time>
      </trkpt>
      <trkpt lat="43.30835" lon="2.27438">
        <ele>264.5</ele>
        <time>2022-01-16T10:33:29Z</time>
      </trkpt>
      <trkpt lat="43.30833" lon="2.27432">
        <ele>265.2</ele>
        <time>2022-01-16T10:33:34Z</time>
      </trkpt>
      <trkpt lat="43.30828" lon="2.2743">
        <ele>265.6</ele>
        <time>2022-01-16T10:33:39Z</time>
      </trkpt>
      <trkpt lat="43.30823" lon="2.27429">
        <ele>265.8</ele>
        <time>2022-01-16T10:34:03Z</time>
      </trkpt>
      <trkpt lat="43.3082" lon="2.27433">
        <ele>266.8</ele>
        <time>2022-01-16T10:34:07Z</time>
      </trkpt>
      <trkpt lat="43.30814" lon="2.27434">
        <ele>268.4</ele>
        <time>2022-01-16T10:34:13Z</time>
      </trkpt>
      <trkpt lat="43.30809" lon="2.27434">
        <ele>269.1</ele>
        <time>2022-01-16T10:34:18Z</time>
      </trkpt>
      <trkpt lat="43.30804" lon="2.27437">
        <ele>270.1</ele>
        <time>2022-01-16T10:34:23Z</time>
      </trkpt>
      <trkpt lat="43.30809" lon="2.27439">
        <ele>260.9</ele>
        <time>2022-01-16T10:43:44Z</time>
      </trkpt>
      <trkpt lat="43.30808" lon="2.27445">
        <ele>261</ele>
        <time>2022-01-16T10:44:35Z</time>
      </trkpt>
      <trkpt lat="43.30938" lon="2.27368">
        <ele>272.9</ele>
        <time>2022-01-16T11:36:34Z</time>
      </trkpt>
      <trkpt lat="43.30934" lon="2.2737">
        <ele>274</ele>
        <time>2022-01-16T11:37:19Z</time>
      </trkpt>
      <trkpt lat="43.30928" lon="2.27373">
        <ele>274.4</ele>
        <time>2022-01-16T11:37:21Z</time>
      </trkpt>
      <trkpt lat="43.30918" lon="2.27376">
        <ele>274.9</ele>
        <time>2022-01-16T11:37:25Z</time>
      </trkpt>
      <trkpt lat="43.30912" lon="2.27375">
        <ele>274.7</ele>
        <time>2022-01-16T11:37:29Z</time>
      </trkpt>
      <trkpt lat="43.30907" lon="2.27374">
        <ele>274.2</ele>
        <time>2022-01-16T11:37:32Z</time>
      </trkpt>
      <trkpt lat="43.30903" lon="2.27376">
        <ele>273.1</ele>
        <time>2022-01-16T11:37:36Z</time>
      </trkpt>
      <trkpt lat="43.30898" lon="2.27378">
        <ele>272.7</ele>
        <time>2022-01-16T11:37:40Z</time>
      </trkpt>
      <trkpt lat="43.30894" lon="2.2738">
        <ele>272.6</ele>
        <time>2022-01-16T11:37:44Z</time>
      </trkpt>
      <trkpt lat="43.30889" lon="2.27378">
        <ele>272.5</ele>
        <time>2022-01-16T11:37:50Z</time>
      </trkpt>
      <trkpt lat="43.30884" lon="2.27377">
        <ele>272.7</ele>
        <time>2022-01-16T11:37:54Z</time>
      </trkpt>
      <trkpt lat="43.30879" lon="2.27377">
        <ele>272.7</ele>
        <time>2022-01-16T11:37:59Z</time>
      </trkpt>
      <trkpt lat="43.30871" lon="2.2737">
        <ele>271.6</ele>
        <time>2022-01-16T11:38:10Z</time>
      </trkpt>
      <trkpt lat="43.30867" lon="2.27367">
        <ele>271.5</ele>
        <time>2022-01-16T11:38:19Z</time>
      </trkpt>
      <trkpt lat="43.30857" lon="2.27372">
        <ele>271</ele>
        <time>2022-01-16T11:38:28Z</time>
      </trkpt>
      <trkpt lat="43.30851" lon="2.27373">
        <ele>270.6</ele>
        <time>2022-01-16T11:38:32Z</time>
      </trkpt>
      <trkpt lat="43.30836" lon="2.27376">
        <ele>270.7</ele>
        <time>2022-01-16T11:38:44Z</time>
      </trkpt>
      <trkpt lat="43.30831" lon="2.27376">
        <ele>270.6</ele>
        <time>2022-01-16T11:38:48Z</time>
      </trkpt>
      <trkpt lat="43.30824" lon="2.27371">
        <ele>270.5</ele>
        <time>2022-01-16T11:38:54Z</time>
      </trkpt>
      <trkpt lat="43.30819" lon="2.27372">
        <ele>270.4</ele>
        <time>2022-01-16T11:39:04Z</time>
      </trkpt>
      <trkpt lat="43.30813" lon="2.27371">
        <ele>270.3</ele>
        <time>2022-01-16T11:39:08Z</time>
      </trkpt>
      <trkpt lat="43.30809" lon="2.27368">
        <ele>270.2</ele>
        <time>2022-01-16T11:39:12Z</time>
      </trkpt>
      <trkpt lat="43.30803" lon="2.27367">
        <ele>269.5</ele>
        <time>2022-01-16T11:39:17Z</time>
      </trkpt>
      <trkpt lat="43.30797" lon="2.27366">
        <ele>267.3</ele>
        <time>2022-01-16T11:39:23Z</time>
      </trkpt>
      <trkpt lat="43.30792" lon="2.27365">
        <ele>265.8</ele>
        <time>2022-01-16T11:39:27Z</time>
      </trkpt>
      <trkpt lat="43.30792" lon="2.27359">
        <ele>263.5</ele>
        <time>2022-01-16T11:39:34Z</time>
      </trkpt>
      <trkpt lat="43.30792" lon="2.27352">
        <ele>263.2</ele>
        <time>2022-01-16T11:44:56Z</time>
      </trkpt>
      <trkpt lat="43.30793" lon="2.27346">
        <ele>263.3</ele>
        <time>2022-01-16T11:45:02Z</time>
      </trkpt>
      <trkpt lat="43.30796" lon="2.27341">
        <ele>262.2</ele>
        <time>2022-01-16T11:45:11Z</time>
      </trkpt>
      <trkpt lat="43.30798" lon="2.27335">
        <ele>261.5</ele>
        <time>2022-01-16T11:45:15Z</time>
      </trkpt>
      <trkpt lat="43.30802" lon="2.27328">
        <ele>260.8</ele>
        <time>2022-01-16T11:45:20Z</time>
      </trkpt>
      <trkpt lat="43.30805" lon="2.27323">
        <ele>260.6</ele>
        <time>2022-01-16T11:45:25Z</time>
      </trkpt>
      <trkpt lat="43.3081" lon="2.27316">
        <ele>260.4</ele>
        <time>2022-01-16T11:45:29Z</time>
      </trkpt>
      <trkpt lat="43.30814" lon="2.2731">
        <ele>259.3</ele>
        <time>2022-01-16T11:45:35Z</time>
      </trkpt>
      <trkpt lat="43.30816" lon="2.27305">
        <ele>258</ele>
        <time>2022-01-16T11:45:40Z</time>
      </trkpt>
      <trkpt lat="43.30819" lon="2.27299">
        <ele>256.9</ele>
        <time>2022-01-16T11:45:48Z</time>
      </trkpt>
      <trkpt lat="43.30823" lon="2.27288">
        <ele>255.8</ele>
        <time>2022-01-16T11:46:02Z</time>
      </trkpt>
      <trkpt lat="43.30826" lon="2.27281">
        <ele>255.5</ele>
        <time>2022-01-16T11:46:09Z</time>
      </trkpt>
      <trkpt lat="43.3083" lon="2.27277">
        <ele>254.9</ele>
        <time>2022-01-16T11:46:16Z</time>
      </trkpt>
      <trkpt lat="43.30832" lon="2.27272">
        <ele>254.5</ele>
        <time>2022-01-16T11:46:22Z</time>
      </trkpt>
      <trkpt lat="43.30834" lon="2.27266">
        <ele>254.5</ele>
        <time>2022-01-16T11:46:31Z</time>
      </trkpt>
      <trkpt lat="43.30836" lon="2.2726">
        <ele>254.4</ele>
        <time>2022-01-16T11:46:36Z</time>
      </trkpt>
      <trkpt lat="43.30838" lon="2.27253">
        <ele>254.2</ele>
        <time>2022-01-16T11:46:41Z</time>
      </trkpt>
      <trkpt lat="43.3084" lon="2.2724">
        <ele>255.1</ele>
        <time>2022-01-16T11:46:51Z</time>
      </trkpt>
      <trkpt lat="43.30844" lon="2.27234">
        <ele>255.5</ele>
        <time>2022-01-16T11:46:56Z</time>
      </trkpt>
      <trkpt lat="43.30848" lon="2.27229">
        <ele>256</ele>
        <time>2022-01-16T11:47:01Z</time>
      </trkpt>
      <trkpt lat="43.30855" lon="2.27219">
        <ele>257.1</ele>
        <time>2022-01-16T11:47:12Z</time>
      </trkpt>
      <trkpt lat="43.30859" lon="2.27214">
        <ele>257</ele>
        <time>2022-01-16T11:47:17Z</time>
      </trkpt>
      <trkpt lat="43.30862" lon="2.27211">
        <ele>257</ele>
        <time>2022-01-16T11:47:25Z</time>
      </trkpt>
      <trkpt lat="43.30864" lon="2.27205">
        <ele>258.6</ele>
        <time>2022-01-16T11:47:40Z</time>
      </trkpt>
      <trkpt lat="43.30869" lon="2.27202">
        <ele>257.7</ele>
        <time>2022-01-16T11:47:48Z</time>
      </trkpt>
      <trkpt lat="43.30875" lon="2.27202">
        <ele>256.8</ele>
        <time>2022-01-16T11:47:53Z</time>
      </trkpt>
      <trkpt lat="43.3088" lon="2.27202">
        <ele>256.3</ele>
        <time>2022-01-16T11:47:58Z</time>
      </trkpt>
      <trkpt lat="43.30895" lon="2.27195">
        <ele>256.1</ele>
        <time>2022-01-16T11:48:17Z</time>
      </trkpt>
      <trkpt lat="43.30901" lon="2.27194">
        <ele>256.7</ele>
        <time>2022-01-16T11:48:23Z</time>
      </trkpt>
      <trkpt lat="43.30905" lon="2.2719">
        <ele>257.6</ele>
        <time>2022-01-16T11:48:29Z</time>
      </trkpt>
      <trkpt lat="43.30916" lon="2.27186">
        <ele>257.7</ele>
        <time>2022-01-16T11:48:40Z</time>
      </trkpt>
      <trkpt lat="43.3092" lon="2.27182">
        <ele>257.7</ele>
        <time>2022-01-16T11:48:46Z</time>
      </trkpt>
      <trkpt lat="43.30929" lon="2.27181">
        <ele>258.8</ele>
        <time>2022-01-16T11:48:56Z</time>
      </trkpt>
      <trkpt lat="43.30933" lon="2.2718">
        <ele>258.9</ele>
        <time>2022-01-16T11:49:01Z</time>
      </trkpt>
      <trkpt lat="43.30938" lon="2.27179">
        <ele>258.4</ele>
        <time>2022-01-16T11:49:09Z</time>
      </trkpt>
      <trkpt lat="43.30943" lon="2.27177">
        <ele>258</ele>
        <time>2022-01-16T11:49:14Z</time>
      </trkpt>
      <trkpt lat="43.30948" lon="2.27176">
        <ele>258.1</ele>
        <time>2022-01-16T11:49:20Z</time>
      </trkpt>
      <trkpt lat="43.30952" lon="2.27174">
        <ele>258.1</ele>
        <time>2022-01-16T11:49:26Z</time>
      </trkpt>
      <trkpt lat="43.30956" lon="2.27171">
        <ele>257.7</ele>
        <time>2022-01-16T11:49:34Z</time>
      </trkpt>
      <trkpt lat="43.30973" lon="2.27167">
        <ele>256.4</ele>
        <time>2022-01-16T11:49:51Z</time>
      </trkpt>
      <trkpt lat="43.30978" lon="2.27165">
        <ele>256.3</ele>
        <time>2022-01-16T11:49:57Z</time>
      </trkpt>
      <trkpt lat="43.31" lon="2.2716">
        <ele>257.6</ele>
        <time>2022-01-16T11:50:17Z</time>
      </trkpt>
      <trkpt lat="43.31009" lon="2.27155">
        <ele>257.9</ele>
        <time>2022-01-16T11:50:25Z</time>
      </trkpt>
      <trkpt lat="43.31031" lon="2.27148">
        <ele>260.2</ele>
        <time>2022-01-16T11:50:46Z</time>
      </trkpt>
      <trkpt lat="43.3104" lon="2.27143">
        <ele>260</ele>
        <time>2022-01-16T11:50:55Z</time>
      </trkpt>
      <trkpt lat="43.31045" lon="2.27141">
        <ele>259.9</ele>
        <time>2022-01-16T11:51:00Z</time>
      </trkpt>
      <trkpt lat="43.31055" lon="2.27135">
        <ele>260.5</ele>
        <time>2022-01-16T11:51:09Z</time>
      </trkpt>
      <trkpt lat="43.31066" lon="2.27131">
        <ele>260.6</ele>
        <time>2022-01-16T11:51:20Z</time>
      </trkpt>
      <trkpt lat="43.3107" lon="2.2713">
        <ele>260.8</ele>
        <time>2022-01-16T11:51:25Z</time>
      </trkpt>
      <trkpt lat="43.31075" lon="2.27126">
        <ele>261</ele>
        <time>2022-01-16T11:51:31Z</time>
      </trkpt>
      <trkpt lat="43.3108" lon="2.27125">
        <ele>261.2</ele>
        <time>2022-01-16T11:51:37Z</time>
      </trkpt>
      <trkpt lat="43.31085" lon="2.27121">
        <ele>262</ele>
        <time>2022-01-16T11:51:44Z</time>
      </trkpt>
      <trkpt lat="43.31095" lon="2.27117">
        <ele>263.5</ele>
        <time>2022-01-16T11:51:53Z</time>
      </trkpt>
      <trkpt lat="43.31111" lon="2.27115">
        <ele>266.3</ele>
        <time>2022-01-16T11:52:08Z</time>
      </trkpt>
      <trkpt lat="43.31116" lon="2.27113">
        <ele>266.7</ele>
        <time>2022-01-16T11:52:14Z</time>
      </trkpt>
      <trkpt lat="43.31121" lon="2.27111">
        <ele>266.6</ele>
        <time>2022-01-16T11:52:19Z</time>
      </trkpt>
      <trkpt lat="43.31125" lon="2.27106">
        <ele>266.3</ele>
        <time>2022-01-16T11:52:24Z</time>
      </trkpt>
      <trkpt lat="43.31127" lon="2.271">
        <ele>266.2</ele>
        <time>2022-01-16T11:52:29Z</time>
      </trkpt>
      <trkpt lat="43.31131" lon="2.27095">
        <ele>266.3</ele>
        <time>2022-01-16T11:52:35Z</time>
      </trkpt>
      <trkpt lat="43.31134" lon="2.2709">
        <ele>266.6</ele>
        <time>2022-01-16T11:52:40Z</time>
      </trkpt>
      <trkpt lat="43.31136" lon="2.27084">
        <ele>266.8</ele>
        <time>2022-01-16T11:52:45Z</time>
      </trkpt>
      <trkpt lat="43.31139" lon="2.27078">
        <ele>267.2</ele>
        <time>2022-01-16T11:52:50Z</time>
      </trkpt>
      <trkpt lat="43.31147" lon="2.27067">
        <ele>265</ele>
        <time>2022-01-16T11:53:08Z</time>
      </trkpt>
      <trkpt lat="43.31147" lon="2.2706">
        <ele>264.4</ele>
        <time>2022-01-16T11:53:12Z</time>
      </trkpt>
      <trkpt lat="43.31148" lon="2.27053">
        <ele>264.2</ele>
        <time>2022-01-16T11:53:15Z</time>
      </trkpt>
      <trkpt lat="43.31151" lon="2.27047">
        <ele>264.2</ele>
        <time>2022-01-16T11:53:20Z</time>
      </trkpt>
      <trkpt lat="43.31155" lon="2.27045">
        <ele>264.1</ele>
        <time>2022-01-16T11:53:25Z</time>
      </trkpt>
      <trkpt lat="43.3116" lon="2.27042">
        <ele>264.2</ele>
        <time>2022-01-16T11:53:30Z</time>
      </trkpt>
      <trkpt lat="43.31168" lon="2.27032">
        <ele>264.1</ele>
        <time>2022-01-16T11:53:40Z</time>
      </trkpt>
      <trkpt lat="43.31172" lon="2.27028">
        <ele>264.6</ele>
        <time>2022-01-16T11:53:44Z</time>
      </trkpt>
      <trkpt lat="43.3118" lon="2.27018">
        <ele>267.3</ele>
        <time>2022-01-16T11:53:57Z</time>
      </trkpt>
      <trkpt lat="43.31191" lon="2.27002">
        <ele>268.5</ele>
        <time>2022-01-16T11:54:09Z</time>
      </trkpt>
      <trkpt lat="43.31199" lon="2.26991">
        <ele>269.1</ele>
        <time>2022-01-16T11:54:20Z</time>
      </trkpt>
      <trkpt lat="43.31204" lon="2.26988">
        <ele>269.5</ele>
        <time>2022-01-16T11:54:25Z</time>
      </trkpt>
      <trkpt lat="43.31208" lon="2.2699">
        <ele>270.1</ele>
        <time>2022-01-16T11:54:29Z</time>
      </trkpt>
      <trkpt lat="43.31213" lon="2.26994">
        <ele>270.9</ele>
        <time>2022-01-16T11:54:35Z</time>
      </trkpt>
      <trkpt lat="43.31218" lon="2.26991">
        <ele>271.5</ele>
        <time>2022-01-16T11:54:42Z</time>
      </trkpt>
      <trkpt lat="43.31223" lon="2.26988">
        <ele>270.9</ele>
        <time>2022-01-16T11:54:48Z</time>
      </trkpt>
      <trkpt lat="43.31228" lon="2.26985">
        <ele>269.9</ele>
        <time>2022-01-16T11:54:53Z</time>
      </trkpt>
      <trkpt lat="43.31232" lon="2.2698">
        <ele>269.2</ele>
        <time>2022-01-16T11:54:58Z</time>
      </trkpt>
      <trkpt lat="43.31235" lon="2.26973">
        <ele>268.7</ele>
        <time>2022-01-16T11:55:04Z</time>
      </trkpt>
      <trkpt lat="43.31239" lon="2.26971">
        <ele>268.3</ele>
        <time>2022-01-16T11:55:10Z</time>
      </trkpt>
      <trkpt lat="43.31244" lon="2.26969">
        <ele>267.9</ele>
        <time>2022-01-16T11:55:18Z</time>
      </trkpt>
      <trkpt lat="43.31248" lon="2.26969">
        <ele>268</ele>
        <time>2022-01-16T11:55:24Z</time>
      </trkpt>
      <trkpt lat="43.31253" lon="2.26968">
        <ele>268.1</ele>
        <time>2022-01-16T11:55:26Z</time>
      </trkpt>
      <trkpt lat="43.31263" lon="2.26965">
        <ele>267.8</ele>
        <time>2022-01-16T11:55:34Z</time>
      </trkpt>
      <trkpt lat="43.31268" lon="2.26962">
        <ele>267.4</ele>
        <time>2022-01-16T11:55:40Z</time>
      </trkpt>
      <trkpt lat="43.31272" lon="2.26961">
        <ele>267.2</ele>
        <time>2022-01-16T11:55:45Z</time>
      </trkpt>
      <trkpt lat="43.31276" lon="2.26957">
        <ele>267.4</ele>
        <time>2022-01-16T11:55:51Z</time>
      </trkpt>
      <trkpt lat="43.31285" lon="2.26951">
        <ele>268.6</ele>
        <time>2022-01-16T11:56:02Z</time>
      </trkpt>
      <trkpt lat="43.31293" lon="2.26946">
        <ele>269.9</ele>
        <time>2022-01-16T11:56:13Z</time>
      </trkpt>
      <trkpt lat="43.31301" lon="2.26938">
        <ele>270.4</ele>
        <time>2022-01-16T11:56:22Z</time>
      </trkpt>
      <trkpt lat="43.31303" lon="2.26933">
        <ele>271</ele>
        <time>2022-01-16T11:56:27Z</time>
      </trkpt>
      <trkpt lat="43.31306" lon="2.26927">
        <ele>272</ele>
        <time>2022-01-16T11:56:33Z</time>
      </trkpt>
      <trkpt lat="43.31311" lon="2.26922">
        <ele>273.4</ele>
        <time>2022-01-16T11:56:38Z</time>
      </trkpt>
      <trkpt lat="43.31315" lon="2.26917">
        <ele>274.4</ele>
        <time>2022-01-16T11:56:44Z</time>
      </trkpt>
      <trkpt lat="43.31315" lon="2.2691">
        <ele>275.5</ele>
        <time>2022-01-16T11:56:53Z</time>
      </trkpt>
      <trkpt lat="43.31319" lon="2.26906">
        <ele>275.5</ele>
        <time>2022-01-16T11:56:58Z</time>
      </trkpt>
      <trkpt lat="43.31323" lon="2.269">
        <ele>274.1</ele>
        <time>2022-01-16T11:57:05Z</time>
      </trkpt>
      <trkpt lat="43.31329" lon="2.26887">
        <ele>271.7</ele>
        <time>2022-01-16T11:57:15Z</time>
      </trkpt>
      <trkpt lat="43.31334" lon="2.26874">
        <ele>271.7</ele>
        <time>2022-01-16T11:57:26Z</time>
      </trkpt>
      <trkpt lat="43.31336" lon="2.26869">
        <ele>271.8</ele>
        <time>2022-01-16T11:57:30Z</time>
      </trkpt>
      <trkpt lat="43.3134" lon="2.26855">
        <ele>271.4</ele>
        <time>2022-01-16T11:57:38Z</time>
      </trkpt>
      <trkpt lat="43.31349" lon="2.26847">
        <ele>270.5</ele>
        <time>2022-01-16T11:57:46Z</time>
      </trkpt>
      <trkpt lat="43.31355" lon="2.26845">
        <ele>270.6</ele>
        <time>2022-01-16T11:57:52Z</time>
      </trkpt>
      <trkpt lat="43.31364" lon="2.26844">
        <ele>271.1</ele>
        <time>2022-01-16T11:58:04Z</time>
      </trkpt>
      <trkpt lat="43.31369" lon="2.26843">
        <ele>271.4</ele>
        <time>2022-01-16T11:58:10Z</time>
      </trkpt>
      <trkpt lat="43.31374" lon="2.26842">
        <ele>272.1</ele>
        <time>2022-01-16T11:58:15Z</time>
      </trkpt>
      <trkpt lat="43.31384" lon="2.26837">
        <ele>273.6</ele>
        <time>2022-01-16T11:58:27Z</time>
      </trkpt>
      <trkpt lat="43.31392" lon="2.26831">
        <ele>278.7</ele>
        <time>2022-01-16T11:58:40Z</time>
      </trkpt>
      <trkpt lat="43.31403" lon="2.26826">
        <ele>278.9</ele>
        <time>2022-01-16T11:58:49Z</time>
      </trkpt>
      <trkpt lat="43.31413" lon="2.26823">
        <ele>277.3</ele>
        <time>2022-01-16T11:59:01Z</time>
      </trkpt>
      <trkpt lat="43.31429" lon="2.26818">
        <ele>275.5</ele>
        <time>2022-01-16T11:59:17Z</time>
      </trkpt>
      <trkpt lat="43.31435" lon="2.26815">
        <ele>275.3</ele>
        <time>2022-01-16T11:59:24Z</time>
      </trkpt>
      <trkpt lat="43.3144" lon="2.26814">
        <ele>275.4</ele>
        <time>2022-01-16T11:59:28Z</time>
      </trkpt>
      <trkpt lat="43.31445" lon="2.26811">
        <ele>276.1</ele>
        <time>2022-01-16T11:59:33Z</time>
      </trkpt>
      <trkpt lat="43.3145" lon="2.26809">
        <ele>276.7</ele>
        <time>2022-01-16T11:59:38Z</time>
      </trkpt>
      <trkpt lat="43.31455" lon="2.26806">
        <ele>277.2</ele>
        <time>2022-01-16T11:59:44Z</time>
      </trkpt>
      <trkpt lat="43.31481" lon="2.26796">
        <ele>279.7</ele>
        <time>2022-01-16T12:00:10Z</time>
      </trkpt>
      <trkpt lat="43.31486" lon="2.26795">
        <ele>279.9</ele>
        <time>2022-01-16T12:00:14Z</time>
      </trkpt>
      <trkpt lat="43.31496" lon="2.26795">
        <ele>280.1</ele>
        <time>2022-01-16T12:00:23Z</time>
      </trkpt>
      <trkpt lat="43.31505" lon="2.26791">
        <ele>281.6</ele>
        <time>2022-01-16T12:00:32Z</time>
      </trkpt>
      <trkpt lat="43.31514" lon="2.26789">
        <ele>282.9</ele>
        <time>2022-01-16T12:00:41Z</time>
      </trkpt>
      <trkpt lat="43.31519" lon="2.26789">
        <ele>283.4</ele>
        <time>2022-01-16T12:00:47Z</time>
      </trkpt>
      <trkpt lat="43.31524" lon="2.26787">
        <ele>282.2</ele>
        <time>2022-01-16T12:01:11Z</time>
      </trkpt>
      <trkpt lat="43.31529" lon="2.26786">
        <ele>281.2</ele>
        <time>2022-01-16T12:01:16Z</time>
      </trkpt>
      <trkpt lat="43.31534" lon="2.26791">
        <ele>280.9</ele>
        <time>2022-01-16T12:01:21Z</time>
      </trkpt>
      <trkpt lat="43.31537" lon="2.26797">
        <ele>280.9</ele>
        <time>2022-01-16T12:01:26Z</time>
      </trkpt>
      <trkpt lat="43.3154" lon="2.26809">
        <ele>283.6</ele>
        <time>2022-01-16T12:01:48Z</time>
      </trkpt>
      <trkpt lat="43.31544" lon="2.26814">
        <ele>283.9</ele>
        <time>2022-01-16T12:01:52Z</time>
      </trkpt>
      <trkpt lat="43.31554" lon="2.26818">
        <ele>287.7</ele>
        <time>2022-01-16T12:02:12Z</time>
      </trkpt>
      <trkpt lat="43.31559" lon="2.26818">
        <ele>290.1</ele>
        <time>2022-01-16T12:02:35Z</time>
      </trkpt>
      <trkpt lat="43.31563" lon="2.2682">
        <ele>290.7</ele>
        <time>2022-01-16T12:03:22Z</time>
      </trkpt>
      <trkpt lat="43.31568" lon="2.26822">
        <ele>291.7</ele>
        <time>2022-01-16T12:03:32Z</time>
      </trkpt>
      <trkpt lat="43.31573" lon="2.26821">
        <ele>293.4</ele>
        <time>2022-01-16T12:03:37Z</time>
      </trkpt>
      <trkpt lat="43.31578" lon="2.26821">
        <ele>294.7</ele>
        <time>2022-01-16T12:03:43Z</time>
      </trkpt>
      <trkpt lat="43.31584" lon="2.26819">
        <ele>294.7</ele>
        <time>2022-01-16T12:03:48Z</time>
      </trkpt>
      <trkpt lat="43.31589" lon="2.2682">
        <ele>294.8</ele>
        <time>2022-01-16T12:03:53Z</time>
      </trkpt>
      <trkpt lat="43.31594" lon="2.26819">
        <ele>294.5</ele>
        <time>2022-01-16T12:03:59Z</time>
      </trkpt>
      <trkpt lat="43.316" lon="2.26818">
        <ele>294</ele>
        <time>2022-01-16T12:04:05Z</time>
      </trkpt>
      <trkpt lat="43.31609" lon="2.26815">
        <ele>290.6</ele>
        <time>2022-01-16T12:04:53Z</time>
      </trkpt>
      <trkpt lat="43.31612" lon="2.26811">
        <ele>289.6</ele>
        <time>2022-01-16T12:04:59Z</time>
      </trkpt>
      <trkpt lat="43.31619" lon="2.2681">
        <ele>289.4</ele>
        <time>2022-01-16T12:05:05Z</time>
      </trkpt>
      <trkpt lat="43.31623" lon="2.26807">
        <ele>289.7</ele>
        <time>2022-01-16T12:05:08Z</time>
      </trkpt>
      <trkpt lat="43.31628" lon="2.26803">
        <ele>290.2</ele>
        <time>2022-01-16T12:05:12Z</time>
      </trkpt>
      <trkpt lat="43.31633" lon="2.26799">
        <ele>291</ele>
        <time>2022-01-16T12:05:18Z</time>
      </trkpt>
      <trkpt lat="43.31637" lon="2.26797">
        <ele>291.9</ele>
        <time>2022-01-16T12:05:22Z</time>
      </trkpt>
      <trkpt lat="43.31642" lon="2.26799">
        <ele>293.8</ele>
        <time>2022-01-16T12:05:44Z</time>
      </trkpt>
      <trkpt lat="43.31647" lon="2.26797">
        <ele>294.3</ele>
        <time>2022-01-16T12:05:49Z</time>
      </trkpt>
      <trkpt lat="43.31651" lon="2.2679">
        <ele>294.9</ele>
        <time>2022-01-16T12:05:55Z</time>
      </trkpt>
      <trkpt lat="43.31655" lon="2.26788">
        <ele>295.4</ele>
        <time>2022-01-16T12:06:00Z</time>
      </trkpt>
      <trkpt lat="43.3166" lon="2.26782">
        <ele>296.6</ele>
        <time>2022-01-16T12:06:06Z</time>
      </trkpt>
      <trkpt lat="43.31663" lon="2.26775">
        <ele>297.9</ele>
        <time>2022-01-16T12:06:33Z</time>
      </trkpt>
      <trkpt lat="43.31666" lon="2.26768">
        <ele>298.2</ele>
        <time>2022-01-16T12:06:37Z</time>
      </trkpt>
      <trkpt lat="43.31671" lon="2.26764">
        <ele>298.4</ele>
        <time>2022-01-16T12:06:42Z</time>
      </trkpt>
      <trkpt lat="43.31675" lon="2.26759">
        <ele>298.2</ele>
        <time>2022-01-16T12:06:48Z</time>
      </trkpt>
      <trkpt lat="43.31679" lon="2.26754">
        <ele>298.2</ele>
        <time>2022-01-16T12:06:53Z</time>
      </trkpt>
      <trkpt lat="43.31684" lon="2.2675">
        <ele>298.3</ele>
        <time>2022-01-16T12:06:57Z</time>
      </trkpt>
      <trkpt lat="43.31687" lon="2.26744">
        <ele>298.3</ele>
        <time>2022-01-16T12:07:20Z</time>
      </trkpt>
      <trkpt lat="43.31689" lon="2.26737">
        <ele>298.6</ele>
        <time>2022-01-16T12:07:26Z</time>
      </trkpt>
      <trkpt lat="43.31691" lon="2.26731">
        <ele>298.9</ele>
        <time>2022-01-16T12:07:30Z</time>
      </trkpt>
      <trkpt lat="43.31697" lon="2.26719">
        <ele>298.9</ele>
        <time>2022-01-16T12:07:41Z</time>
      </trkpt>
      <trkpt lat="43.31702" lon="2.26712">
        <ele>298.6</ele>
        <time>2022-01-16T12:07:46Z</time>
      </trkpt>
      <trkpt lat="43.31707" lon="2.26708">
        <ele>298.4</ele>
        <time>2022-01-16T12:07:51Z</time>
      </trkpt>
      <trkpt lat="43.31711" lon="2.26704">
        <ele>298.5</ele>
        <time>2022-01-16T12:08:01Z</time>
      </trkpt>
      <trkpt lat="43.31716" lon="2.267">
        <ele>298.5</ele>
        <time>2022-01-16T12:08:07Z</time>
      </trkpt>
      <trkpt lat="43.31721" lon="2.26699">
        <ele>298.2</ele>
        <time>2022-01-16T12:08:12Z</time>
      </trkpt>
      <trkpt lat="43.31722" lon="2.26693">
        <ele>296.5</ele>
        <time>2022-01-16T12:08:26Z</time>
      </trkpt>
      <trkpt lat="43.31727" lon="2.26689">
        <ele>295.3</ele>
        <time>2022-01-16T12:08:32Z</time>
      </trkpt>
      <trkpt lat="43.31729" lon="2.26683">
        <ele>296.2</ele>
        <time>2022-01-16T12:08:39Z</time>
      </trkpt>
      <trkpt lat="43.31732" lon="2.26679">
        <ele>296.8</ele>
        <time>2022-01-16T12:08:43Z</time>
      </trkpt>
      <trkpt lat="43.31736" lon="2.26675">
        <ele>297.1</ele>
        <time>2022-01-16T12:08:47Z</time>
      </trkpt>
      <trkpt lat="43.31746" lon="2.26665">
        <ele>296.7</ele>
        <time>2022-01-16T12:08:56Z</time>
      </trkpt>
      <trkpt lat="43.31749" lon="2.26659">
        <ele>295.8</ele>
        <time>2022-01-16T12:09:00Z</time>
      </trkpt>
      <trkpt lat="43.31765" lon="2.26642">
        <ele>294.8</ele>
        <time>2022-01-16T12:09:16Z</time>
      </trkpt>
      <trkpt lat="43.31774" lon="2.26639">
        <ele>296.6</ele>
        <time>2022-01-16T12:09:38Z</time>
      </trkpt>
      <trkpt lat="43.31779" lon="2.26635">
        <ele>294.9</ele>
        <time>2022-01-16T12:09:49Z</time>
      </trkpt>
      <trkpt lat="43.31786" lon="2.26626">
        <ele>295.3</ele>
        <time>2022-01-16T12:10:11Z</time>
      </trkpt>
      <trkpt lat="43.3179" lon="2.26619">
        <ele>295.5</ele>
        <time>2022-01-16T12:10:16Z</time>
      </trkpt>
      <trkpt lat="43.31793" lon="2.26613">
        <ele>295.5</ele>
        <time>2022-01-16T12:10:21Z</time>
      </trkpt>
      <trkpt lat="43.31797" lon="2.2661">
        <ele>295.5</ele>
        <time>2022-01-16T12:10:26Z</time>
      </trkpt>
      <trkpt lat="43.318" lon="2.26604">
        <ele>295.3</ele>
        <time>2022-01-16T12:10:31Z</time>
      </trkpt>
      <trkpt lat="43.31802" lon="2.26598">
        <ele>294.9</ele>
        <time>2022-01-16T12:10:35Z</time>
      </trkpt>
      <trkpt lat="43.31807" lon="2.26593">
        <ele>294.6</ele>
        <time>2022-01-16T12:10:41Z</time>
      </trkpt>
      <trkpt lat="43.31811" lon="2.26585">
        <ele>294.9</ele>
        <time>2022-01-16T12:10:49Z</time>
      </trkpt>
      <trkpt lat="43.31813" lon="2.26579">
        <ele>295.3</ele>
        <time>2022-01-16T12:10:54Z</time>
      </trkpt>
      <trkpt lat="43.31809" lon="2.26575">
        <ele>296.9</ele>
        <time>2022-01-16T12:11:39Z</time>
      </trkpt>
      <trkpt lat="43.31808" lon="2.2656">
        <ele>298.1</ele>
        <time>2022-01-16T12:11:49Z</time>
      </trkpt>
      <trkpt lat="43.31807" lon="2.26552">
        <ele>298.1</ele>
        <time>2022-01-16T12:11:54Z</time>
      </trkpt>
      <trkpt lat="43.31806" lon="2.26539">
        <ele>298.1</ele>
        <time>2022-01-16T12:12:01Z</time>
      </trkpt>
      <trkpt lat="43.31804" lon="2.26531">
        <ele>297.8</ele>
        <time>2022-01-16T12:12:06Z</time>
      </trkpt>
      <trkpt lat="43.31802" lon="2.26525">
        <ele>296.9</ele>
        <time>2022-01-16T12:12:09Z</time>
      </trkpt>
      <trkpt lat="43.31799" lon="2.26513">
        <ele>295.2</ele>
        <time>2022-01-16T12:12:17Z</time>
      </trkpt>
      <trkpt lat="43.31798" lon="2.26506">
        <ele>294.7</ele>
        <time>2022-01-16T12:12:22Z</time>
      </trkpt>
      <trkpt lat="43.31796" lon="2.26499">
        <ele>294.3</ele>
        <time>2022-01-16T12:12:26Z</time>
      </trkpt>
      <trkpt lat="43.31792" lon="2.26478">
        <ele>292.2</ele>
        <time>2022-01-16T12:12:39Z</time>
      </trkpt>
      <trkpt lat="43.3179" lon="2.26469">
        <ele>291.5</ele>
        <time>2022-01-16T12:12:45Z</time>
      </trkpt>
      <trkpt lat="43.31789" lon="2.26456">
        <ele>291.3</ele>
        <time>2022-01-16T12:12:53Z</time>
      </trkpt>
      <trkpt lat="43.31787" lon="2.26447">
        <ele>291.6</ele>
        <time>2022-01-16T12:12:58Z</time>
      </trkpt>
      <trkpt lat="43.31785" lon="2.26442">
        <ele>291.5</ele>
        <time>2022-01-16T12:13:03Z</time>
      </trkpt>
      <trkpt lat="43.31781" lon="2.26428">
        <ele>290.9</ele>
        <time>2022-01-16T12:13:13Z</time>
      </trkpt>
      <trkpt lat="43.31775" lon="2.26405">
        <ele>292</ele>
        <time>2022-01-16T12:13:28Z</time>
      </trkpt>
      <trkpt lat="43.31772" lon="2.26392">
        <ele>292.4</ele>
        <time>2022-01-16T12:13:35Z</time>
      </trkpt>
      <trkpt lat="43.31769" lon="2.26379">
        <ele>291.5</ele>
        <time>2022-01-16T12:13:43Z</time>
      </trkpt>
      <trkpt lat="43.31767" lon="2.26373">
        <ele>291.3</ele>
        <time>2022-01-16T12:13:47Z</time>
      </trkpt>
      <trkpt lat="43.31765" lon="2.26366">
        <ele>291.5</ele>
        <time>2022-01-16T12:13:51Z</time>
      </trkpt>
      <trkpt lat="43.31764" lon="2.26358">
        <ele>291.7</ele>
        <time>2022-01-16T12:13:55Z</time>
      </trkpt>
      <trkpt lat="43.31761" lon="2.26345">
        <ele>289.9</ele>
        <time>2022-01-16T12:14:06Z</time>
      </trkpt>
      <trkpt lat="43.31762" lon="2.26339">
        <ele>289.3</ele>
        <time>2022-01-16T12:14:09Z</time>
      </trkpt>
      <trkpt lat="43.31762" lon="2.2633">
        <ele>288.8</ele>
        <time>2022-01-16T12:14:15Z</time>
      </trkpt>
      <trkpt lat="43.31762" lon="2.26324">
        <ele>288.6</ele>
        <time>2022-01-16T12:14:18Z</time>
      </trkpt>
      <trkpt lat="43.31762" lon="2.26311">
        <ele>288.4</ele>
        <time>2022-01-16T12:14:24Z</time>
      </trkpt>
      <trkpt lat="43.31761" lon="2.26304">
        <ele>288.1</ele>
        <time>2022-01-16T12:14:28Z</time>
      </trkpt>
      <trkpt lat="43.31757" lon="2.26291">
        <ele>287</ele>
        <time>2022-01-16T12:14:36Z</time>
      </trkpt>
      <trkpt lat="43.31756" lon="2.26284">
        <ele>286.6</ele>
        <time>2022-01-16T12:14:40Z</time>
      </trkpt>
      <trkpt lat="43.31755" lon="2.26275">
        <ele>286.2</ele>
        <time>2022-01-16T12:14:45Z</time>
      </trkpt>
      <trkpt lat="43.31753" lon="2.26257">
        <ele>286.3</ele>
        <time>2022-01-16T12:14:56Z</time>
      </trkpt>
      <trkpt lat="43.31753" lon="2.26242">
        <ele>287.3</ele>
        <time>2022-01-16T12:15:05Z</time>
      </trkpt>
      <trkpt lat="43.31752" lon="2.26229">
        <ele>289.4</ele>
        <time>2022-01-16T12:15:13Z</time>
      </trkpt>
      <trkpt lat="43.3175" lon="2.26215">
        <ele>290.3</ele>
        <time>2022-01-16T12:15:21Z</time>
      </trkpt>
      <trkpt lat="43.31748" lon="2.26193">
        <ele>291.4</ele>
        <time>2022-01-16T12:15:33Z</time>
      </trkpt>
      <trkpt lat="43.31749" lon="2.26186">
        <ele>292.2</ele>
        <time>2022-01-16T12:15:37Z</time>
      </trkpt>
      <trkpt lat="43.31748" lon="2.26164">
        <ele>292</ele>
        <time>2022-01-16T12:15:52Z</time>
      </trkpt>
      <trkpt lat="43.31746" lon="2.26158">
        <ele>291.6</ele>
        <time>2022-01-16T12:15:56Z</time>
      </trkpt>
      <trkpt lat="43.31743" lon="2.26153">
        <ele>291.1</ele>
        <time>2022-01-16T12:16:03Z</time>
      </trkpt>
      <trkpt lat="43.31744" lon="2.26137">
        <ele>291.7</ele>
        <time>2022-01-16T12:16:13Z</time>
      </trkpt>
      <trkpt lat="43.31744" lon="2.2613">
        <ele>291.6</ele>
        <time>2022-01-16T12:16:18Z</time>
      </trkpt>
      <trkpt lat="43.31742" lon="2.26123">
        <ele>291</ele>
        <time>2022-01-16T12:16:22Z</time>
      </trkpt>
      <trkpt lat="43.31741" lon="2.26115">
        <ele>290.4</ele>
        <time>2022-01-16T12:16:27Z</time>
      </trkpt>
      <trkpt lat="43.31739" lon="2.26095">
        <ele>289.5</ele>
        <time>2022-01-16T12:16:39Z</time>
      </trkpt>
      <trkpt lat="43.31735" lon="2.26073">
        <ele>288.3</ele>
        <time>2022-01-16T12:16:52Z</time>
      </trkpt>
      <trkpt lat="43.31735" lon="2.26058">
        <ele>289</ele>
        <time>2022-01-16T12:17:00Z</time>
      </trkpt>
      <trkpt lat="43.31731" lon="2.26037">
        <ele>289.6</ele>
        <time>2022-01-16T12:17:12Z</time>
      </trkpt>
      <trkpt lat="43.3173" lon="2.26031">
        <ele>289.6</ele>
        <time>2022-01-16T12:17:15Z</time>
      </trkpt>
      <trkpt lat="43.31727" lon="2.26016">
        <ele>288.2</ele>
        <time>2022-01-16T12:17:25Z</time>
      </trkpt>
      <trkpt lat="43.31725" lon="2.26009">
        <ele>287</ele>
        <time>2022-01-16T12:17:31Z</time>
      </trkpt>
      <trkpt lat="43.31722" lon="2.25994">
        <ele>285.8</ele>
        <time>2022-01-16T12:17:40Z</time>
      </trkpt>
      <trkpt lat="43.31721" lon="2.2598">
        <ele>285.5</ele>
        <time>2022-01-16T12:17:48Z</time>
      </trkpt>
      <trkpt lat="43.31719" lon="2.25966">
        <ele>284.5</ele>
        <time>2022-01-16T12:17:57Z</time>
      </trkpt>
      <trkpt lat="43.31718" lon="2.2596">
        <ele>284.7</ele>
        <time>2022-01-16T12:18:01Z</time>
      </trkpt>
      <trkpt lat="43.31718" lon="2.25952">
        <ele>285</ele>
        <time>2022-01-16T12:18:07Z</time>
      </trkpt>
      <trkpt lat="43.31717" lon="2.25938">
        <ele>285.3</ele>
        <time>2022-01-16T12:18:15Z</time>
      </trkpt>
      <trkpt lat="43.31714" lon="2.25909">
        <ele>284.9</ele>
        <time>2022-01-16T12:18:33Z</time>
      </trkpt>
      <trkpt lat="43.31713" lon="2.25895">
        <ele>285.3</ele>
        <time>2022-01-16T12:18:40Z</time>
      </trkpt>
      <trkpt lat="43.3171" lon="2.25873">
        <ele>285.3</ele>
        <time>2022-01-16T12:18:54Z</time>
      </trkpt>
      <trkpt lat="43.3171" lon="2.25867">
        <ele>285</ele>
        <time>2022-01-16T12:18:58Z</time>
      </trkpt>
      <trkpt lat="43.31707" lon="2.25844">
        <ele>282.3</ele>
        <time>2022-01-16T12:19:13Z</time>
      </trkpt>
      <trkpt lat="43.31706" lon="2.25838">
        <ele>281.6</ele>
        <time>2022-01-16T12:19:17Z</time>
      </trkpt>
      <trkpt lat="43.31706" lon="2.2583">
        <ele>280.8</ele>
        <time>2022-01-16T12:19:21Z</time>
      </trkpt>
      <trkpt lat="43.31705" lon="2.25822">
        <ele>279.8</ele>
        <time>2022-01-16T12:19:26Z</time>
      </trkpt>
      <trkpt lat="43.31703" lon="2.25815">
        <ele>279</ele>
        <time>2022-01-16T12:19:33Z</time>
      </trkpt>
      <trkpt lat="43.31702" lon="2.25795">
        <ele>280</ele>
        <time>2022-01-16T12:19:43Z</time>
      </trkpt>
      <trkpt lat="43.31702" lon="2.25788">
        <ele>280.2</ele>
        <time>2022-01-16T12:19:47Z</time>
      </trkpt>
      <trkpt lat="43.31703" lon="2.2578">
        <ele>280.5</ele>
        <time>2022-01-16T12:19:52Z</time>
      </trkpt>
      <trkpt lat="43.31703" lon="2.25772">
        <ele>280.4</ele>
        <time>2022-01-16T12:19:58Z</time>
      </trkpt>
      <trkpt lat="43.31702" lon="2.25766">
        <ele>280.3</ele>
        <time>2022-01-16T12:20:03Z</time>
      </trkpt>
      <trkpt lat="43.31701" lon="2.25758">
        <ele>280.8</ele>
        <time>2022-01-16T12:20:08Z</time>
      </trkpt>
      <trkpt lat="43.31697" lon="2.25755">
        <ele>280.4</ele>
        <time>2022-01-16T12:20:20Z</time>
      </trkpt>
      <trkpt lat="43.31694" lon="2.2575">
        <ele>280</ele>
        <time>2022-01-16T12:20:26Z</time>
      </trkpt>
      <trkpt lat="43.31693" lon="2.25743">
        <ele>279.7</ele>
        <time>2022-01-16T12:20:30Z</time>
      </trkpt>
      <trkpt lat="43.31693" lon="2.25735">
        <ele>279.5</ele>
        <time>2022-01-16T12:20:34Z</time>
      </trkpt>
      <trkpt lat="43.31694" lon="2.25728">
        <ele>279.9</ele>
        <time>2022-01-16T12:20:39Z</time>
      </trkpt>
      <trkpt lat="43.31695" lon="2.25713">
        <ele>281.5</ele>
        <time>2022-01-16T12:20:48Z</time>
      </trkpt>
      <trkpt lat="43.31697" lon="2.25707">
        <ele>281.7</ele>
        <time>2022-01-16T12:20:53Z</time>
      </trkpt>
      <trkpt lat="43.31695" lon="2.25713">
        <ele>281.9</ele>
        <time>2022-01-16T12:21:48Z</time>
      </trkpt>
      <trkpt lat="43.3169" lon="2.25711">
        <ele>281.9</ele>
        <time>2022-01-16T12:22:16Z</time>
      </trkpt>
      <trkpt lat="43.31685" lon="2.2571">
        <ele>282.5</ele>
        <time>2022-01-16T12:22:24Z</time>
      </trkpt>
      <trkpt lat="43.31681" lon="2.25708">
        <ele>283</ele>
        <time>2022-01-16T12:22:45Z</time>
      </trkpt>
      <trkpt lat="43.31676" lon="2.25707">
        <ele>281.5</ele>
        <time>2022-01-16T12:23:11Z</time>
      </trkpt>
      <trkpt lat="43.31681" lon="2.25704">
        <ele>281.4</ele>
        <time>2022-01-16T12:24:09Z</time>
      </trkpt>
      <trkpt lat="43.31686" lon="2.25703">
        <ele>281.6</ele>
        <time>2022-01-16T12:24:13Z</time>
      </trkpt>
      <trkpt lat="43.31691" lon="2.257">
        <ele>282</ele>
        <time>2022-01-16T12:24:17Z</time>
      </trkpt>
      <trkpt lat="43.31693" lon="2.25694">
        <ele>282.6</ele>
        <time>2022-01-16T12:24:21Z</time>
      </trkpt>
      <trkpt lat="43.31696" lon="2.25688">
        <ele>283.5</ele>
        <time>2022-01-16T12:24:26Z</time>
      </trkpt>
      <trkpt lat="43.317" lon="2.25683">
        <ele>284</ele>
        <time>2022-01-16T12:24:30Z</time>
      </trkpt>
      <trkpt lat="43.31705" lon="2.25679">
        <ele>284.9</ele>
        <time>2022-01-16T12:24:34Z</time>
      </trkpt>
      <trkpt lat="43.31709" lon="2.25674">
        <ele>285.1</ele>
        <time>2022-01-16T12:24:37Z</time>
      </trkpt>
      <trkpt lat="43.31712" lon="2.25668">
        <ele>284.7</ele>
        <time>2022-01-16T12:24:42Z</time>
      </trkpt>
      <trkpt lat="43.31713" lon="2.25661">
        <ele>283.3</ele>
        <time>2022-01-16T12:24:47Z</time>
      </trkpt>
      <trkpt lat="43.3171" lon="2.25656">
        <ele>282</ele>
        <time>2022-01-16T12:24:50Z</time>
      </trkpt>
      <trkpt lat="43.31705" lon="2.2565">
        <ele>280.5</ele>
        <time>2022-01-16T12:24:54Z</time>
      </trkpt>
      <trkpt lat="43.31701" lon="2.25646">
        <ele>279.2</ele>
        <time>2022-01-16T12:24:57Z</time>
      </trkpt>
      <trkpt lat="43.31697" lon="2.25643">
        <ele>277.7</ele>
        <time>2022-01-16T12:25:01Z</time>
      </trkpt>
      <trkpt lat="43.31692" lon="2.25637">
        <ele>276.7</ele>
        <time>2022-01-16T12:25:06Z</time>
      </trkpt>
      <trkpt lat="43.31686" lon="2.25637">
        <ele>276.1</ele>
        <time>2022-01-16T12:25:10Z</time>
      </trkpt>
      <trkpt lat="43.31676" lon="2.25641">
        <ele>275</ele>
        <time>2022-01-16T12:25:18Z</time>
      </trkpt>
      <trkpt lat="43.3167" lon="2.2564">
        <ele>275.2</ele>
        <time>2022-01-16T12:25:22Z</time>
      </trkpt>
      <trkpt lat="43.31668" lon="2.25633">
        <ele>275.9</ele>
        <time>2022-01-16T12:25:28Z</time>
      </trkpt>
      <trkpt lat="43.31664" lon="2.25628">
        <ele>277.2</ele>
        <time>2022-01-16T12:25:34Z</time>
      </trkpt>
      <trkpt lat="43.31661" lon="2.25622">
        <ele>278.4</ele>
        <time>2022-01-16T12:25:41Z</time>
      </trkpt>
      <trkpt lat="43.31658" lon="2.25616">
        <ele>278.8</ele>
        <time>2022-01-16T12:25:45Z</time>
      </trkpt>
      <trkpt lat="43.31654" lon="2.25614">
        <ele>278.2</ele>
        <time>2022-01-16T12:27:09Z</time>
      </trkpt>
      <trkpt lat="43.31649" lon="2.25609">
        <ele>278.4</ele>
        <time>2022-01-16T12:27:15Z</time>
      </trkpt>
      <trkpt lat="43.31645" lon="2.25604">
        <ele>278.5</ele>
        <time>2022-01-16T12:27:20Z</time>
      </trkpt>
      <trkpt lat="43.31642" lon="2.25598">
        <ele>278.7</ele>
        <time>2022-01-16T12:27:24Z</time>
      </trkpt>
      <trkpt lat="43.31632" lon="2.2559">
        <ele>278.8</ele>
        <time>2022-01-16T12:27:32Z</time>
      </trkpt>
      <trkpt lat="43.31628" lon="2.25587">
        <ele>279</ele>
        <time>2022-01-16T12:27:36Z</time>
      </trkpt>
      <trkpt lat="43.31623" lon="2.25585">
        <ele>279.4</ele>
        <time>2022-01-16T12:27:41Z</time>
      </trkpt>
      <trkpt lat="43.31618" lon="2.25582">
        <ele>279.5</ele>
        <time>2022-01-16T12:27:46Z</time>
      </trkpt>
      <trkpt lat="43.31611" lon="2.25572">
        <ele>278.6</ele>
        <time>2022-01-16T12:28:08Z</time>
      </trkpt>
      <trkpt lat="43.31606" lon="2.2557">
        <ele>278.9</ele>
        <time>2022-01-16T12:28:13Z</time>
      </trkpt>
      <trkpt lat="43.31602" lon="2.2557">
        <ele>279</ele>
        <time>2022-01-16T12:28:16Z</time>
      </trkpt>
      <trkpt lat="43.31596" lon="2.25565">
        <ele>279.1</ele>
        <time>2022-01-16T12:28:22Z</time>
      </trkpt>
      <trkpt lat="43.316" lon="2.25561">
        <ele>279.5</ele>
        <time>2022-01-16T12:28:27Z</time>
      </trkpt>
      <trkpt lat="43.31589" lon="2.25561">
        <ele>280.9</ele>
        <time>2022-01-16T12:28:52Z</time>
      </trkpt>
      <trkpt lat="43.31584" lon="2.2556">
        <ele>280.8</ele>
        <time>2022-01-16T12:28:58Z</time>
      </trkpt>
      <trkpt lat="43.31582" lon="2.25553">
        <ele>280.6</ele>
        <time>2022-01-16T12:29:12Z</time>
      </trkpt>
      <trkpt lat="43.31578" lon="2.25553">
        <ele>280.3</ele>
        <time>2022-01-16T12:29:18Z</time>
      </trkpt>
      <trkpt lat="43.31573" lon="2.25557">
        <ele>280.2</ele>
        <time>2022-01-16T12:29:28Z</time>
      </trkpt>
      <trkpt lat="43.31577" lon="2.25554">
        <ele>280.4</ele>
        <time>2022-01-16T12:29:45Z</time>
      </trkpt>
      <trkpt lat="43.31575" lon="2.25548">
        <ele>281.2</ele>
        <time>2022-01-16T12:29:57Z</time>
      </trkpt>
      <trkpt lat="43.31569" lon="2.25537">
        <ele>280.8</ele>
        <time>2022-01-16T12:30:13Z</time>
      </trkpt>
      <trkpt lat="43.31561" lon="2.25536">
        <ele>280.7</ele>
        <time>2022-01-16T12:30:17Z</time>
      </trkpt>
      <trkpt lat="43.31558" lon="2.2553">
        <ele>281.1</ele>
        <time>2022-01-16T12:30:25Z</time>
      </trkpt>
      <trkpt lat="43.31549" lon="2.25532">
        <ele>282.7</ele>
        <time>2022-01-16T12:30:31Z</time>
      </trkpt>
      <trkpt lat="43.31545" lon="2.25527">
        <ele>284</ele>
        <time>2022-01-16T12:30:35Z</time>
      </trkpt>
      <trkpt lat="43.31539" lon="2.25528">
        <ele>285.9</ele>
        <time>2022-01-16T12:30:39Z</time>
      </trkpt>
      <trkpt lat="43.31529" lon="2.25524">
        <ele>289.3</ele>
        <time>2022-01-16T12:30:48Z</time>
      </trkpt>
      <trkpt lat="43.31523" lon="2.25525">
        <ele>290.7</ele>
        <time>2022-01-16T12:30:52Z</time>
      </trkpt>
      <trkpt lat="43.31518" lon="2.25524">
        <ele>293.1</ele>
        <time>2022-01-16T12:30:59Z</time>
      </trkpt>
      <trkpt lat="43.31513" lon="2.25524">
        <ele>293.2</ele>
        <time>2022-01-16T12:31:05Z</time>
      </trkpt>
      <trkpt lat="43.31508" lon="2.25524">
        <ele>292.9</ele>
        <time>2022-01-16T12:31:10Z</time>
      </trkpt>
      <trkpt lat="43.31511" lon="2.2553">
        <ele>292.7</ele>
        <time>2022-01-16T12:31:17Z</time>
      </trkpt>
      <trkpt lat="43.31506" lon="2.25534">
        <ele>292.2</ele>
        <time>2022-01-16T12:31:30Z</time>
      </trkpt>
      <trkpt lat="43.31501" lon="2.25535">
        <ele>292.6</ele>
        <time>2022-01-16T12:31:36Z</time>
      </trkpt>
      <trkpt lat="43.31476" lon="2.25542">
        <ele>299.1</ele>
        <time>2022-01-16T12:32:00Z</time>
      </trkpt>
      <trkpt lat="43.31471" lon="2.25542">
        <ele>300</ele>
        <time>2022-01-16T12:32:04Z</time>
      </trkpt>
      <trkpt lat="43.3146" lon="2.25537">
        <ele>300.1</ele>
        <time>2022-01-16T12:32:16Z</time>
      </trkpt>
      <trkpt lat="43.31455" lon="2.25536">
        <ele>299.4</ele>
        <time>2022-01-16T12:32:22Z</time>
      </trkpt>
      <trkpt lat="43.31452" lon="2.25531">
        <ele>298.6</ele>
        <time>2022-01-16T12:32:28Z</time>
      </trkpt>
      <trkpt lat="43.31447" lon="2.25528">
        <ele>297.9</ele>
        <time>2022-01-16T12:32:33Z</time>
      </trkpt>
      <trkpt lat="43.31444" lon="2.25523">
        <ele>295.4</ele>
        <time>2022-01-16T12:32:54Z</time>
      </trkpt>
      <trkpt lat="43.3144" lon="2.25518">
        <ele>295.6</ele>
        <time>2022-01-16T12:33:03Z</time>
      </trkpt>
      <trkpt lat="43.31435" lon="2.25515">
        <ele>296.2</ele>
        <time>2022-01-16T12:33:57Z</time>
      </trkpt>
      <trkpt lat="43.3143" lon="2.25513">
        <ele>296.2</ele>
        <time>2022-01-16T12:34:01Z</time>
      </trkpt>
      <trkpt lat="43.31425" lon="2.25508">
        <ele>296.2</ele>
        <time>2022-01-16T12:34:05Z</time>
      </trkpt>
      <trkpt lat="43.3142" lon="2.25505">
        <ele>296.1</ele>
        <time>2022-01-16T12:34:09Z</time>
      </trkpt>
      <trkpt lat="43.31417" lon="2.25499">
        <ele>295.9</ele>
        <time>2022-01-16T12:34:13Z</time>
      </trkpt>
      <trkpt lat="43.31421" lon="2.25502">
        <ele>295.9</ele>
        <time>2022-01-16T12:34:26Z</time>
      </trkpt>
      <trkpt lat="43.31415" lon="2.25501">
        <ele>298.4</ele>
        <time>2022-01-16T12:35:10Z</time>
      </trkpt>
      <trkpt lat="43.31402" lon="2.2549">
        <ele>297.4</ele>
        <time>2022-01-16T12:35:22Z</time>
      </trkpt>
      <trkpt lat="43.31397" lon="2.25488">
        <ele>296.7</ele>
        <time>2022-01-16T12:35:26Z</time>
      </trkpt>
      <trkpt lat="43.31393" lon="2.25484">
        <ele>296</ele>
        <time>2022-01-16T12:35:29Z</time>
      </trkpt>
      <trkpt lat="43.3139" lon="2.2548">
        <ele>295.6</ele>
        <time>2022-01-16T12:35:33Z</time>
      </trkpt>
      <trkpt lat="43.31385" lon="2.25477">
        <ele>294.9</ele>
        <time>2022-01-16T12:35:41Z</time>
      </trkpt>
      <trkpt lat="43.31379" lon="2.25474">
        <ele>294.4</ele>
        <time>2022-01-16T12:35:46Z</time>
      </trkpt>
      <trkpt lat="43.31374" lon="2.25471">
        <ele>294</ele>
        <time>2022-01-16T12:35:49Z</time>
      </trkpt>
      <trkpt lat="43.31369" lon="2.25468">
        <ele>293.5</ele>
        <time>2022-01-16T12:35:53Z</time>
      </trkpt>
      <trkpt lat="43.3136" lon="2.25461">
        <ele>292.1</ele>
        <time>2022-01-16T12:36:00Z</time>
      </trkpt>
      <trkpt lat="43.31356" lon="2.25459">
        <ele>291.5</ele>
        <time>2022-01-16T12:36:03Z</time>
      </trkpt>
      <trkpt lat="43.31352" lon="2.25454">
        <ele>290.8</ele>
        <time>2022-01-16T12:36:07Z</time>
      </trkpt>
      <trkpt lat="43.31349" lon="2.25448">
        <ele>290.3</ele>
        <time>2022-01-16T12:36:11Z</time>
      </trkpt>
      <trkpt lat="43.31346" lon="2.25443">
        <ele>289.2</ele>
        <time>2022-01-16T12:36:15Z</time>
      </trkpt>
      <trkpt lat="43.31341" lon="2.25441">
        <ele>288.4</ele>
        <time>2022-01-16T12:36:19Z</time>
      </trkpt>
      <trkpt lat="43.31335" lon="2.25439">
        <ele>288.1</ele>
        <time>2022-01-16T12:36:23Z</time>
      </trkpt>
      <trkpt lat="43.31319" lon="2.25432">
        <ele>289.5</ele>
        <time>2022-01-16T12:36:37Z</time>
      </trkpt>
      <trkpt lat="43.31314" lon="2.2543">
        <ele>289.5</ele>
        <time>2022-01-16T12:36:42Z</time>
      </trkpt>
      <trkpt lat="43.3131" lon="2.25427">
        <ele>289.5</ele>
        <time>2022-01-16T12:36:47Z</time>
      </trkpt>
      <trkpt lat="43.31305" lon="2.25426">
        <ele>289.5</ele>
        <time>2022-01-16T12:36:51Z</time>
      </trkpt>
      <trkpt lat="43.313" lon="2.25423">
        <ele>289.1</ele>
        <time>2022-01-16T12:36:56Z</time>
      </trkpt>
      <trkpt lat="43.31295" lon="2.2542">
        <ele>289</ele>
        <time>2022-01-16T12:37:01Z</time>
      </trkpt>
      <trkpt lat="43.3129" lon="2.25418">
        <ele>289.2</ele>
        <time>2022-01-16T12:37:05Z</time>
      </trkpt>
      <trkpt lat="43.31285" lon="2.25416">
        <ele>289.6</ele>
        <time>2022-01-16T12:37:10Z</time>
      </trkpt>
      <trkpt lat="43.31279" lon="2.25413">
        <ele>290.1</ele>
        <time>2022-01-16T12:37:15Z</time>
      </trkpt>
      <trkpt lat="43.31275" lon="2.25408">
        <ele>291.5</ele>
        <time>2022-01-16T12:37:19Z</time>
      </trkpt>
      <trkpt lat="43.31265" lon="2.25407">
        <ele>292.9</ele>
        <time>2022-01-16T12:37:29Z</time>
      </trkpt>
      <trkpt lat="43.31254" lon="2.25408">
        <ele>293.6</ele>
        <time>2022-01-16T12:37:40Z</time>
      </trkpt>
      <trkpt lat="43.31244" lon="2.25407">
        <ele>292.7</ele>
        <time>2022-01-16T12:37:48Z</time>
      </trkpt>
      <trkpt lat="43.31239" lon="2.25405">
        <ele>292.5</ele>
        <time>2022-01-16T12:37:53Z</time>
      </trkpt>
      <trkpt lat="43.31234" lon="2.25405">
        <ele>292.8</ele>
        <time>2022-01-16T12:37:57Z</time>
      </trkpt>
      <trkpt lat="43.31229" lon="2.25403">
        <ele>293.4</ele>
        <time>2022-01-16T12:38:05Z</time>
      </trkpt>
      <trkpt lat="43.31223" lon="2.254">
        <ele>294.8</ele>
        <time>2022-01-16T12:38:13Z</time>
      </trkpt>
      <trkpt lat="43.31212" lon="2.25395">
        <ele>295.5</ele>
        <time>2022-01-16T12:38:22Z</time>
      </trkpt>
      <trkpt lat="43.31205" lon="2.25396">
        <ele>295.5</ele>
        <time>2022-01-16T12:38:33Z</time>
      </trkpt>
      <trkpt lat="43.3121" lon="2.25393">
        <ele>295.7</ele>
        <time>2022-01-16T12:38:37Z</time>
      </trkpt>
      <trkpt lat="43.31209" lon="2.25387">
        <ele>295.9</ele>
        <time>2022-01-16T12:38:48Z</time>
      </trkpt>
      <trkpt lat="43.31205" lon="2.25383">
        <ele>296.5</ele>
        <time>2022-01-16T12:39:19Z</time>
      </trkpt>
      <trkpt lat="43.31201" lon="2.25386">
        <ele>296.1</ele>
        <time>2022-01-16T12:39:50Z</time>
      </trkpt>
      <trkpt lat="43.31196" lon="2.25391">
        <ele>295.1</ele>
        <time>2022-01-16T12:39:54Z</time>
      </trkpt>
      <trkpt lat="43.31194" lon="2.25397">
        <ele>294.5</ele>
        <time>2022-01-16T12:39:58Z</time>
      </trkpt>
      <trkpt lat="43.31191" lon="2.25403">
        <ele>294</ele>
        <time>2022-01-16T12:40:03Z</time>
      </trkpt>
      <trkpt lat="43.31189" lon="2.2541">
        <ele>293.1</ele>
        <time>2022-01-16T12:40:16Z</time>
      </trkpt>
      <trkpt lat="43.31188" lon="2.25419">
        <ele>293.1</ele>
        <time>2022-01-16T12:40:21Z</time>
      </trkpt>
      <trkpt lat="43.31186" lon="2.25425">
        <ele>293.2</ele>
        <time>2022-01-16T12:40:25Z</time>
      </trkpt>
      <trkpt lat="43.31184" lon="2.25439">
        <ele>293.3</ele>
        <time>2022-01-16T12:40:35Z</time>
      </trkpt>
      <trkpt lat="43.31177" lon="2.25461">
        <ele>295.1</ele>
        <time>2022-01-16T12:40:47Z</time>
      </trkpt>
      <trkpt lat="43.31175" lon="2.25467">
        <ele>295.5</ele>
        <time>2022-01-16T12:40:51Z</time>
      </trkpt>
      <trkpt lat="43.31172" lon="2.25473">
        <ele>296.2</ele>
        <time>2022-01-16T12:40:54Z</time>
      </trkpt>
      <trkpt lat="43.31168" lon="2.25485">
        <ele>298.7</ele>
        <time>2022-01-16T12:41:03Z</time>
      </trkpt>
      <trkpt lat="43.31165" lon="2.25491">
        <ele>298.9</ele>
        <time>2022-01-16T12:41:08Z</time>
      </trkpt>
      <trkpt lat="43.31163" lon="2.25498">
        <ele>298.2</ele>
        <time>2022-01-16T12:41:12Z</time>
      </trkpt>
      <trkpt lat="43.31161" lon="2.25506">
        <ele>297.8</ele>
        <time>2022-01-16T12:41:17Z</time>
      </trkpt>
      <trkpt lat="43.31159" lon="2.25513">
        <ele>298</ele>
        <time>2022-01-16T12:41:22Z</time>
      </trkpt>
      <trkpt lat="43.31156" lon="2.25519">
        <ele>298.1</ele>
        <time>2022-01-16T12:41:53Z</time>
      </trkpt>
      <trkpt lat="43.31155" lon="2.25525">
        <ele>297.9</ele>
        <time>2022-01-16T12:42:17Z</time>
      </trkpt>
      <trkpt lat="43.31152" lon="2.2553">
        <ele>297.9</ele>
        <time>2022-01-16T12:42:20Z</time>
      </trkpt>
      <trkpt lat="43.31148" lon="2.25543">
        <ele>297.2</ele>
        <time>2022-01-16T12:42:28Z</time>
      </trkpt>
      <trkpt lat="43.31144" lon="2.25547">
        <ele>296.1</ele>
        <time>2022-01-16T12:42:33Z</time>
      </trkpt>
      <trkpt lat="43.31141" lon="2.25552">
        <ele>295.6</ele>
        <time>2022-01-16T12:42:38Z</time>
      </trkpt>
      <trkpt lat="43.31139" lon="2.25559">
        <ele>295.5</ele>
        <time>2022-01-16T12:42:42Z</time>
      </trkpt>
      <trkpt lat="43.31135" lon="2.25566">
        <ele>295.4</ele>
        <time>2022-01-16T12:42:46Z</time>
      </trkpt>
      <trkpt lat="43.31132" lon="2.25573">
        <ele>295.1</ele>
        <time>2022-01-16T12:42:49Z</time>
      </trkpt>
      <trkpt lat="43.31131" lon="2.25579">
        <ele>294.7</ele>
        <time>2022-01-16T12:42:53Z</time>
      </trkpt>
      <trkpt lat="43.3113" lon="2.25586">
        <ele>294.1</ele>
        <time>2022-01-16T12:42:58Z</time>
      </trkpt>
      <trkpt lat="43.31125" lon="2.25588">
        <ele>293.2</ele>
        <time>2022-01-16T12:43:03Z</time>
      </trkpt>
      <trkpt lat="43.31121" lon="2.25585">
        <ele>291.9</ele>
        <time>2022-01-16T12:43:08Z</time>
      </trkpt>
      <trkpt lat="43.31113" lon="2.25595">
        <ele>291.7</ele>
        <time>2022-01-16T12:43:19Z</time>
      </trkpt>
      <trkpt lat="43.31108" lon="2.25602">
        <ele>292</ele>
        <time>2022-01-16T12:43:24Z</time>
      </trkpt>
      <trkpt lat="43.31101" lon="2.25614">
        <ele>292.2</ele>
        <time>2022-01-16T12:43:33Z</time>
      </trkpt>
      <trkpt lat="43.31098" lon="2.2562">
        <ele>291.9</ele>
        <time>2022-01-16T12:43:36Z</time>
      </trkpt>
      <trkpt lat="43.31094" lon="2.25625">
        <ele>291.4</ele>
        <time>2022-01-16T12:43:40Z</time>
      </trkpt>
      <trkpt lat="43.31089" lon="2.25624">
        <ele>290.7</ele>
        <time>2022-01-16T12:43:44Z</time>
      </trkpt>
      <trkpt lat="43.31091" lon="2.25618">
        <ele>289.7</ele>
        <time>2022-01-16T12:44:06Z</time>
      </trkpt>
      <trkpt lat="43.31096" lon="2.25615">
        <ele>288.6</ele>
        <time>2022-01-16T12:44:12Z</time>
      </trkpt>
      <trkpt lat="43.31094" lon="2.25622">
        <ele>286.6</ele>
        <time>2022-01-16T12:45:36Z</time>
      </trkpt>
      <trkpt lat="43.31094" lon="2.25629">
        <ele>287.1</ele>
        <time>2022-01-16T12:45:40Z</time>
      </trkpt>
      <trkpt lat="43.31092" lon="2.25636">
        <ele>287.7</ele>
        <time>2022-01-16T12:45:44Z</time>
      </trkpt>
      <trkpt lat="43.31089" lon="2.2564">
        <ele>287.9</ele>
        <time>2022-01-16T12:45:48Z</time>
      </trkpt>
      <trkpt lat="43.31084" lon="2.25645">
        <ele>287.9</ele>
        <time>2022-01-16T12:45:53Z</time>
      </trkpt>
      <trkpt lat="43.31074" lon="2.2565">
        <ele>286.9</ele>
        <time>2022-01-16T12:46:01Z</time>
      </trkpt>
      <trkpt lat="43.31065" lon="2.25657">
        <ele>287.5</ele>
        <time>2022-01-16T12:46:21Z</time>
      </trkpt>
      <trkpt lat="43.31054" lon="2.2566">
        <ele>287.1</ele>
        <time>2022-01-16T12:46:32Z</time>
      </trkpt>
      <trkpt lat="43.31048" lon="2.2566">
        <ele>286.7</ele>
        <time>2022-01-16T12:46:42Z</time>
      </trkpt>
      <trkpt lat="43.31043" lon="2.25664">
        <ele>286.8</ele>
        <time>2022-01-16T12:46:47Z</time>
      </trkpt>
      <trkpt lat="43.31039" lon="2.25669">
        <ele>287.5</ele>
        <time>2022-01-16T12:46:52Z</time>
      </trkpt>
      <trkpt lat="43.31034" lon="2.25674">
        <ele>287.9</ele>
        <time>2022-01-16T12:46:57Z</time>
      </trkpt>
      <trkpt lat="43.3103" lon="2.25678">
        <ele>288</ele>
        <time>2022-01-16T12:47:02Z</time>
      </trkpt>
      <trkpt lat="43.31021" lon="2.25681">
        <ele>287.4</ele>
        <time>2022-01-16T12:47:28Z</time>
      </trkpt>
      <trkpt lat="43.31016" lon="2.25684">
        <ele>287.7</ele>
        <time>2022-01-16T12:47:33Z</time>
      </trkpt>
      <trkpt lat="43.31012" lon="2.25688">
        <ele>288.1</ele>
        <time>2022-01-16T12:47:36Z</time>
      </trkpt>
      <trkpt lat="43.31005" lon="2.25698">
        <ele>289.3</ele>
        <time>2022-01-16T12:47:44Z</time>
      </trkpt>
      <trkpt lat="43.31001" lon="2.25702">
        <ele>289.6</ele>
        <time>2022-01-16T12:47:48Z</time>
      </trkpt>
      <trkpt lat="43.30983" lon="2.25714">
        <ele>289.7</ele>
        <time>2022-01-16T12:48:03Z</time>
      </trkpt>
      <trkpt lat="43.30978" lon="2.25717">
        <ele>290.1</ele>
        <time>2022-01-16T12:48:07Z</time>
      </trkpt>
      <trkpt lat="43.30973" lon="2.25717">
        <ele>290.7</ele>
        <time>2022-01-16T12:48:12Z</time>
      </trkpt>
      <trkpt lat="43.30971" lon="2.25723">
        <ele>293.5</ele>
        <time>2022-01-16T12:48:24Z</time>
      </trkpt>
      <trkpt lat="43.30965" lon="2.2572">
        <ele>292.8</ele>
        <time>2022-01-16T12:49:35Z</time>
      </trkpt>
      <trkpt lat="43.3096" lon="2.25717">
        <ele>292.2</ele>
        <time>2022-01-16T12:49:38Z</time>
      </trkpt>
      <trkpt lat="43.30956" lon="2.25713">
        <ele>292</ele>
        <time>2022-01-16T12:49:42Z</time>
      </trkpt>
      <trkpt lat="43.30952" lon="2.25707">
        <ele>291.8</ele>
        <time>2022-01-16T12:49:46Z</time>
      </trkpt>
      <trkpt lat="43.30949" lon="2.25703">
        <ele>291.7</ele>
        <time>2022-01-16T12:49:49Z</time>
      </trkpt>
      <trkpt lat="43.30944" lon="2.25701">
        <ele>292.2</ele>
        <time>2022-01-16T12:49:53Z</time>
      </trkpt>
      <trkpt lat="43.30941" lon="2.25695">
        <ele>293</ele>
        <time>2022-01-16T12:49:58Z</time>
      </trkpt>
      <trkpt lat="43.30939" lon="2.2569">
        <ele>292.9</ele>
        <time>2022-01-16T12:50:01Z</time>
      </trkpt>
      <trkpt lat="43.30926" lon="2.25674">
        <ele>291.3</ele>
        <time>2022-01-16T12:50:15Z</time>
      </trkpt>
      <trkpt lat="43.30922" lon="2.2567">
        <ele>290.9</ele>
        <time>2022-01-16T12:50:18Z</time>
      </trkpt>
      <trkpt lat="43.30918" lon="2.25665">
        <ele>290.3</ele>
        <time>2022-01-16T12:50:23Z</time>
      </trkpt>
      <trkpt lat="43.30912" lon="2.25654">
        <ele>289</ele>
        <time>2022-01-16T12:50:31Z</time>
      </trkpt>
      <trkpt lat="43.30903" lon="2.25642">
        <ele>288.5</ele>
        <time>2022-01-16T12:50:41Z</time>
      </trkpt>
      <trkpt lat="43.309" lon="2.25636">
        <ele>288.6</ele>
        <time>2022-01-16T12:50:45Z</time>
      </trkpt>
      <trkpt lat="43.30892" lon="2.25624">
        <ele>288.3</ele>
        <time>2022-01-16T12:50:54Z</time>
      </trkpt>
      <trkpt lat="43.30888" lon="2.25618">
        <ele>288</ele>
        <time>2022-01-16T12:50:59Z</time>
      </trkpt>
      <trkpt lat="43.30883" lon="2.25603">
        <ele>288.3</ele>
        <time>2022-01-16T12:51:08Z</time>
      </trkpt>
      <trkpt lat="43.30878" lon="2.25591">
        <ele>289.7</ele>
        <time>2022-01-16T12:51:16Z</time>
      </trkpt>
      <trkpt lat="43.30871" lon="2.25578">
        <ele>289.9</ele>
        <time>2022-01-16T12:51:25Z</time>
      </trkpt>
      <trkpt lat="43.3087" lon="2.25571">
        <ele>290.1</ele>
        <time>2022-01-16T12:51:30Z</time>
      </trkpt>
      <trkpt lat="43.30866" lon="2.25567">
        <ele>290.8</ele>
        <time>2022-01-16T12:51:35Z</time>
      </trkpt>
      <trkpt lat="43.30861" lon="2.25564">
        <ele>291.2</ele>
        <time>2022-01-16T12:51:40Z</time>
      </trkpt>
      <trkpt lat="43.30857" lon="2.25561">
        <ele>291.1</ele>
        <time>2022-01-16T12:51:44Z</time>
      </trkpt>
      <trkpt lat="43.30853" lon="2.25557">
        <ele>290.7</ele>
        <time>2022-01-16T12:51:48Z</time>
      </trkpt>
      <trkpt lat="43.3085" lon="2.25551">
        <ele>290.2</ele>
        <time>2022-01-16T12:51:51Z</time>
      </trkpt>
      <trkpt lat="43.30848" lon="2.25543">
        <ele>289.7</ele>
        <time>2022-01-16T12:51:54Z</time>
      </trkpt>
      <trkpt lat="43.30846" lon="2.25537">
        <ele>289.3</ele>
        <time>2022-01-16T12:51:57Z</time>
      </trkpt>
      <trkpt lat="43.30847" lon="2.2553">
        <ele>288.6</ele>
        <time>2022-01-16T12:52:01Z</time>
      </trkpt>
      <trkpt lat="43.30847" lon="2.25523">
        <ele>287.5</ele>
        <time>2022-01-16T12:52:06Z</time>
      </trkpt>
      <trkpt lat="43.30844" lon="2.25516">
        <ele>286.8</ele>
        <time>2022-01-16T12:52:11Z</time>
      </trkpt>
      <trkpt lat="43.30844" lon="2.25509">
        <ele>286.7</ele>
        <time>2022-01-16T12:52:15Z</time>
      </trkpt>
      <trkpt lat="43.30845" lon="2.25495">
        <ele>286.4</ele>
        <time>2022-01-16T12:52:22Z</time>
      </trkpt>
      <trkpt lat="43.30845" lon="2.25488">
        <ele>286.2</ele>
        <time>2022-01-16T12:52:25Z</time>
      </trkpt>
      <trkpt lat="43.30844" lon="2.25468">
        <ele>285.9</ele>
        <time>2022-01-16T12:52:34Z</time>
      </trkpt>
      <trkpt lat="43.30844" lon="2.25454">
        <ele>286.5</ele>
        <time>2022-01-16T12:52:42Z</time>
      </trkpt>
      <trkpt lat="43.30848" lon="2.25424">
        <ele>286</ele>
        <time>2022-01-16T12:52:58Z</time>
      </trkpt>
      <trkpt lat="43.30849" lon="2.25416">
        <ele>285.7</ele>
        <time>2022-01-16T12:53:02Z</time>
      </trkpt>
      <trkpt lat="43.30853" lon="2.25423">
        <ele>285.3</ele>
        <time>2022-01-16T12:53:10Z</time>
      </trkpt>
      <trkpt lat="43.30854" lon="2.25407">
        <ele>285.8</ele>
        <time>2022-01-16T12:53:18Z</time>
      </trkpt>
      <trkpt lat="43.30853" lon="2.25398">
        <ele>285.9</ele>
        <time>2022-01-16T12:53:21Z</time>
      </trkpt>
      <trkpt lat="43.30853" lon="2.2539">
        <ele>286.2</ele>
        <time>2022-01-16T12:53:25Z</time>
      </trkpt>
      <trkpt lat="43.30857" lon="2.25377">
        <ele>287</ele>
        <time>2022-01-16T12:53:31Z</time>
      </trkpt>
      <trkpt lat="43.3086" lon="2.2537">
        <ele>287.2</ele>
        <time>2022-01-16T12:53:35Z</time>
      </trkpt>
      <trkpt lat="43.30864" lon="2.25364">
        <ele>287.5</ele>
        <time>2022-01-16T12:53:39Z</time>
      </trkpt>
      <trkpt lat="43.30865" lon="2.25357">
        <ele>287.8</ele>
        <time>2022-01-16T12:53:43Z</time>
      </trkpt>
      <trkpt lat="43.30874" lon="2.25334">
        <ele>285.2</ele>
        <time>2022-01-16T12:53:58Z</time>
      </trkpt>
      <trkpt lat="43.30877" lon="2.25328">
        <ele>283.4</ele>
        <time>2022-01-16T12:54:13Z</time>
      </trkpt>
      <trkpt lat="43.30883" lon="2.25312">
        <ele>286</ele>
        <time>2022-01-16T12:54:22Z</time>
      </trkpt>
      <trkpt lat="43.30886" lon="2.25297">
        <ele>287.4</ele>
        <time>2022-01-16T12:54:29Z</time>
      </trkpt>
      <trkpt lat="43.30887" lon="2.25291">
        <ele>287.8</ele>
        <time>2022-01-16T12:54:32Z</time>
      </trkpt>
      <trkpt lat="43.30889" lon="2.25284">
        <ele>288.3</ele>
        <time>2022-01-16T12:54:37Z</time>
      </trkpt>
      <trkpt lat="43.30893" lon="2.25282">
        <ele>288.4</ele>
        <time>2022-01-16T12:54:48Z</time>
      </trkpt>
      <trkpt lat="43.3089" lon="2.25287">
        <ele>288.5</ele>
        <time>2022-01-16T12:55:02Z</time>
      </trkpt>
      <trkpt lat="43.3089" lon="2.2528">
        <ele>288.3</ele>
        <time>2022-01-16T12:56:14Z</time>
      </trkpt>
      <trkpt lat="43.30894" lon="2.25275">
        <ele>288</ele>
        <time>2022-01-16T12:56:18Z</time>
      </trkpt>
      <trkpt lat="43.30894" lon="2.25267">
        <ele>288</ele>
        <time>2022-01-16T12:56:21Z</time>
      </trkpt>
      <trkpt lat="43.30895" lon="2.25261">
        <ele>288.2</ele>
        <time>2022-01-16T12:56:25Z</time>
      </trkpt>
      <trkpt lat="43.30897" lon="2.25255">
        <ele>288.5</ele>
        <time>2022-01-16T12:56:28Z</time>
      </trkpt>
      <trkpt lat="43.30902" lon="2.25252">
        <ele>288.4</ele>
        <time>2022-01-16T12:56:33Z</time>
      </trkpt>
      <trkpt lat="43.30904" lon="2.25236">
        <ele>287.7</ele>
        <time>2022-01-16T12:56:40Z</time>
      </trkpt>
      <trkpt lat="43.30905" lon="2.25229">
        <ele>287.5</ele>
        <time>2022-01-16T12:56:44Z</time>
      </trkpt>
      <trkpt lat="43.30907" lon="2.25215">
        <ele>286.3</ele>
        <time>2022-01-16T12:56:52Z</time>
      </trkpt>
      <trkpt lat="43.30908" lon="2.25207">
        <ele>286</ele>
        <time>2022-01-16T12:56:57Z</time>
      </trkpt>
      <trkpt lat="43.3091" lon="2.252">
        <ele>286.1</ele>
        <time>2022-01-16T12:57:02Z</time>
      </trkpt>
      <trkpt lat="43.30912" lon="2.25192">
        <ele>286.4</ele>
        <time>2022-01-16T12:57:06Z</time>
      </trkpt>
      <trkpt lat="43.30913" lon="2.25185">
        <ele>287.1</ele>
        <time>2022-01-16T12:57:11Z</time>
      </trkpt>
      <trkpt lat="43.30914" lon="2.25177">
        <ele>287.6</ele>
        <time>2022-01-16T12:57:16Z</time>
      </trkpt>
      <trkpt lat="43.30916" lon="2.2517">
        <ele>287.5</ele>
        <time>2022-01-16T12:57:20Z</time>
      </trkpt>
      <trkpt lat="43.30917" lon="2.25156">
        <ele>286.6</ele>
        <time>2022-01-16T12:57:29Z</time>
      </trkpt>
      <trkpt lat="43.30918" lon="2.25142">
        <ele>285.6</ele>
        <time>2022-01-16T12:57:37Z</time>
      </trkpt>
      <trkpt lat="43.3092" lon="2.25135">
        <ele>284.6</ele>
        <time>2022-01-16T12:57:42Z</time>
      </trkpt>
      <trkpt lat="43.30921" lon="2.25128">
        <ele>284.3</ele>
        <time>2022-01-16T12:57:46Z</time>
      </trkpt>
      <trkpt lat="43.30923" lon="2.25113">
        <ele>284.9</ele>
        <time>2022-01-16T12:57:55Z</time>
      </trkpt>
      <trkpt lat="43.30925" lon="2.25106">
        <ele>285</ele>
        <time>2022-01-16T12:57:59Z</time>
      </trkpt>
      <trkpt lat="43.30929" lon="2.25104">
        <ele>285.3</ele>
        <time>2022-01-16T12:58:03Z</time>
      </trkpt>
      <trkpt lat="43.30932" lon="2.2509">
        <ele>285.5</ele>
        <time>2022-01-16T12:58:11Z</time>
      </trkpt>
      <trkpt lat="43.30936" lon="2.25077">
        <ele>283.6</ele>
        <time>2022-01-16T12:58:20Z</time>
      </trkpt>
      <trkpt lat="43.30938" lon="2.25071">
        <ele>282.8</ele>
        <time>2022-01-16T12:58:25Z</time>
      </trkpt>
      <trkpt lat="43.30938" lon="2.25056">
        <ele>281.1</ele>
        <time>2022-01-16T12:58:34Z</time>
      </trkpt>
      <trkpt lat="43.30942" lon="2.2505">
        <ele>280.8</ele>
        <time>2022-01-16T12:58:40Z</time>
      </trkpt>
      <trkpt lat="43.30946" lon="2.25047">
        <ele>280.7</ele>
        <time>2022-01-16T12:58:44Z</time>
      </trkpt>
      <trkpt lat="43.30941" lon="2.25044">
        <ele>281.1</ele>
        <time>2022-01-16T12:58:54Z</time>
      </trkpt>
      <trkpt lat="43.30937" lon="2.25041">
        <ele>282.3</ele>
        <time>2022-01-16T12:58:58Z</time>
      </trkpt>
      <trkpt lat="43.30933" lon="2.25037">
        <ele>283.1</ele>
        <time>2022-01-16T12:59:02Z</time>
      </trkpt>
      <trkpt lat="43.30925" lon="2.25026">
        <ele>284</ele>
        <time>2022-01-16T12:59:11Z</time>
      </trkpt>
      <trkpt lat="43.30916" lon="2.25019">
        <ele>284.7</ele>
        <time>2022-01-16T12:59:17Z</time>
      </trkpt>
      <trkpt lat="43.30912" lon="2.25014">
        <ele>285</ele>
        <time>2022-01-16T12:59:21Z</time>
      </trkpt>
      <trkpt lat="43.30902" lon="2.24996">
        <ele>283.4</ele>
        <time>2022-01-16T12:59:36Z</time>
      </trkpt>
      <trkpt lat="43.30899" lon="2.2499">
        <ele>283</ele>
        <time>2022-01-16T12:59:41Z</time>
      </trkpt>
      <trkpt lat="43.30897" lon="2.24984">
        <ele>282.7</ele>
        <time>2022-01-16T12:59:44Z</time>
      </trkpt>
      <trkpt lat="43.30894" lon="2.24978">
        <ele>282.1</ele>
        <time>2022-01-16T12:59:49Z</time>
      </trkpt>
      <trkpt lat="43.30898" lon="2.24973">
        <ele>281.9</ele>
        <time>2022-01-16T13:00:27Z</time>
      </trkpt>
      <trkpt lat="43.30903" lon="2.24971">
        <ele>281.9</ele>
        <time>2022-01-16T13:00:31Z</time>
      </trkpt>
      <trkpt lat="43.30909" lon="2.2497">
        <ele>282.1</ele>
        <time>2022-01-16T13:00:36Z</time>
      </trkpt>
      <trkpt lat="43.30915" lon="2.24971">
        <ele>282.3</ele>
        <time>2022-01-16T13:00:40Z</time>
      </trkpt>
      <trkpt lat="43.30925" lon="2.24969">
        <ele>283.3</ele>
        <time>2022-01-16T13:00:50Z</time>
      </trkpt>
      <trkpt lat="43.3093" lon="2.24971">
        <ele>283.2</ele>
        <time>2022-01-16T13:00:54Z</time>
      </trkpt>
      <trkpt lat="43.30947" lon="2.2497">
        <ele>283.7</ele>
        <time>2022-01-16T13:01:07Z</time>
      </trkpt>
      <trkpt lat="43.30958" lon="2.24967">
        <ele>283.9</ele>
        <time>2022-01-16T13:01:17Z</time>
      </trkpt>
      <trkpt lat="43.30963" lon="2.24968">
        <ele>283.7</ele>
        <time>2022-01-16T13:01:21Z</time>
      </trkpt>
      <trkpt lat="43.30967" lon="2.24967">
        <ele>283.6</ele>
        <time>2022-01-16T13:01:25Z</time>
      </trkpt>
      <trkpt lat="43.30972" lon="2.24968">
        <ele>283.6</ele>
        <time>2022-01-16T13:01:29Z</time>
      </trkpt>
      <trkpt lat="43.30977" lon="2.24967">
        <ele>284</ele>
        <time>2022-01-16T13:01:34Z</time>
      </trkpt>
      <trkpt lat="43.30987" lon="2.24962">
        <ele>284.9</ele>
        <time>2022-01-16T13:01:44Z</time>
      </trkpt>
      <trkpt lat="43.30992" lon="2.24961">
        <ele>286.1</ele>
        <time>2022-01-16T13:01:51Z</time>
      </trkpt>
      <trkpt lat="43.31001" lon="2.24961">
        <ele>286.5</ele>
        <time>2022-01-16T13:02:02Z</time>
      </trkpt>
      <trkpt lat="43.31012" lon="2.24962">
        <ele>287.1</ele>
        <time>2022-01-16T13:02:10Z</time>
      </trkpt>
      <trkpt lat="43.31029" lon="2.24961">
        <ele>290.7</ele>
        <time>2022-01-16T13:02:24Z</time>
      </trkpt>
      <trkpt lat="43.31033" lon="2.24961">
        <ele>291.8</ele>
        <time>2022-01-16T13:02:29Z</time>
      </trkpt>
      <trkpt lat="43.31039" lon="2.24961">
        <ele>291.8</ele>
        <time>2022-01-16T13:02:35Z</time>
      </trkpt>
      <trkpt lat="43.31044" lon="2.2496">
        <ele>291.8</ele>
        <time>2022-01-16T13:02:39Z</time>
      </trkpt>
      <trkpt lat="43.31054" lon="2.24959">
        <ele>292.1</ele>
        <time>2022-01-16T13:02:46Z</time>
      </trkpt>
      <trkpt lat="43.3106" lon="2.24959">
        <ele>292.2</ele>
        <time>2022-01-16T13:02:50Z</time>
      </trkpt>
      <trkpt lat="43.31066" lon="2.24961">
        <ele>292.5</ele>
        <time>2022-01-16T13:02:54Z</time>
      </trkpt>
      <trkpt lat="43.31071" lon="2.2496">
        <ele>292.8</ele>
        <time>2022-01-16T13:02:58Z</time>
      </trkpt>
      <trkpt lat="43.31076" lon="2.24958">
        <ele>292.8</ele>
        <time>2022-01-16T13:03:02Z</time>
      </trkpt>
      <trkpt lat="43.31081" lon="2.24956">
        <ele>292.5</ele>
        <time>2022-01-16T13:03:06Z</time>
      </trkpt>
      <trkpt lat="43.31091" lon="2.24954">
        <ele>292.7</ele>
        <time>2022-01-16T13:03:14Z</time>
      </trkpt>
      <trkpt lat="43.31101" lon="2.24952">
        <ele>293.2</ele>
        <time>2022-01-16T13:03:22Z</time>
      </trkpt>
      <trkpt lat="43.31106" lon="2.24951">
        <ele>293.3</ele>
        <time>2022-01-16T13:03:27Z</time>
      </trkpt>
      <trkpt lat="43.3111" lon="2.24948">
        <ele>293.6</ele>
        <time>2022-01-16T13:03:32Z</time>
      </trkpt>
      <trkpt lat="43.31122" lon="2.24947">
        <ele>295.3</ele>
        <time>2022-01-16T13:03:42Z</time>
      </trkpt>
      <trkpt lat="43.31138" lon="2.24948">
        <ele>295.1</ele>
        <time>2022-01-16T13:03:55Z</time>
      </trkpt>
      <trkpt lat="43.31144" lon="2.24947">
        <ele>294.9</ele>
        <time>2022-01-16T13:04:00Z</time>
      </trkpt>
      <trkpt lat="43.31148" lon="2.2495">
        <ele>294.7</ele>
        <time>2022-01-16T13:04:06Z</time>
      </trkpt>
      <trkpt lat="43.31153" lon="2.24948">
        <ele>294.7</ele>
        <time>2022-01-16T13:04:12Z</time>
      </trkpt>
      <trkpt lat="43.31158" lon="2.24944">
        <ele>294.8</ele>
        <time>2022-01-16T13:04:18Z</time>
      </trkpt>
      <trkpt lat="43.31163" lon="2.2494">
        <ele>295.1</ele>
        <time>2022-01-16T13:04:25Z</time>
      </trkpt>
      <trkpt lat="43.31166" lon="2.24935">
        <ele>295.5</ele>
        <time>2022-01-16T13:04:29Z</time>
      </trkpt>
      <trkpt lat="43.31169" lon="2.2493">
        <ele>296</ele>
        <time>2022-01-16T13:04:32Z</time>
      </trkpt>
      <trkpt lat="43.31172" lon="2.24925">
        <ele>296.7</ele>
        <time>2022-01-16T13:04:52Z</time>
      </trkpt>
      <trkpt lat="43.31178" lon="2.24925">
        <ele>297.1</ele>
        <time>2022-01-16T13:04:56Z</time>
      </trkpt>
      <trkpt lat="43.31182" lon="2.24928">
        <ele>298.3</ele>
        <time>2022-01-16T13:05:05Z</time>
      </trkpt>
      <trkpt lat="43.31186" lon="2.2493">
        <ele>298.5</ele>
        <time>2022-01-16T13:05:08Z</time>
      </trkpt>
      <trkpt lat="43.31191" lon="2.24929">
        <ele>298.7</ele>
        <time>2022-01-16T13:05:11Z</time>
      </trkpt>
      <trkpt lat="43.31196" lon="2.24928">
        <ele>298.6</ele>
        <time>2022-01-16T13:05:16Z</time>
      </trkpt>
      <trkpt lat="43.31201" lon="2.24925">
        <ele>298.6</ele>
        <time>2022-01-16T13:05:21Z</time>
      </trkpt>
      <trkpt lat="43.31205" lon="2.2492">
        <ele>298.6</ele>
        <time>2022-01-16T13:05:25Z</time>
      </trkpt>
      <trkpt lat="43.31209" lon="2.2492">
        <ele>298.7</ele>
        <time>2022-01-16T13:05:31Z</time>
      </trkpt>
      <trkpt lat="43.31208" lon="2.24912">
        <ele>298.8</ele>
        <time>2022-01-16T13:05:40Z</time>
      </trkpt>
      <trkpt lat="43.31209" lon="2.24905">
        <ele>298.7</ele>
        <time>2022-01-16T13:05:45Z</time>
      </trkpt>
      <trkpt lat="43.31208" lon="2.24891">
        <ele>298.6</ele>
        <time>2022-01-16T13:05:53Z</time>
      </trkpt>
      <trkpt lat="43.3121" lon="2.24877">
        <ele>298.8</ele>
        <time>2022-01-16T13:06:02Z</time>
      </trkpt>
      <trkpt lat="43.31211" lon="2.2487">
        <ele>299.1</ele>
        <time>2022-01-16T13:06:06Z</time>
      </trkpt>
      <trkpt lat="43.31211" lon="2.24854">
        <ele>299.5</ele>
        <time>2022-01-16T13:06:14Z</time>
      </trkpt>
      <trkpt lat="43.31213" lon="2.24841">
        <ele>299</ele>
        <time>2022-01-16T13:06:22Z</time>
      </trkpt>
      <trkpt lat="43.31214" lon="2.24835">
        <ele>298.5</ele>
        <time>2022-01-16T13:06:27Z</time>
      </trkpt>
      <trkpt lat="43.31214" lon="2.24827">
        <ele>297.4</ele>
        <time>2022-01-16T13:06:37Z</time>
      </trkpt>
      <trkpt lat="43.31216" lon="2.24797">
        <ele>294.7</ele>
        <time>2022-01-16T13:06:51Z</time>
      </trkpt>
      <trkpt lat="43.31223" lon="2.24786">
        <ele>294.7</ele>
        <time>2022-01-16T13:07:03Z</time>
      </trkpt>
      <trkpt lat="43.3122" lon="2.24781">
        <ele>296.4</ele>
        <time>2022-01-16T13:07:13Z</time>
      </trkpt>
      <trkpt lat="43.31225" lon="2.24778">
        <ele>297.9</ele>
        <time>2022-01-16T13:08:03Z</time>
      </trkpt>
      <trkpt lat="43.3123" lon="2.24778">
        <ele>298</ele>
        <time>2022-01-16T13:08:06Z</time>
      </trkpt>
      <trkpt lat="43.31234" lon="2.24779">
        <ele>298.5</ele>
        <time>2022-01-16T13:08:11Z</time>
      </trkpt>
      <trkpt lat="43.3124" lon="2.2478">
        <ele>299.2</ele>
        <time>2022-01-16T13:08:21Z</time>
      </trkpt>
      <trkpt lat="43.31251" lon="2.24778">
        <ele>300</ele>
        <time>2022-01-16T13:08:29Z</time>
      </trkpt>
      <trkpt lat="43.31256" lon="2.24776">
        <ele>300.7</ele>
        <time>2022-01-16T13:08:33Z</time>
      </trkpt>
      <trkpt lat="43.31261" lon="2.24774">
        <ele>301</ele>
        <time>2022-01-16T13:08:37Z</time>
      </trkpt>
      <trkpt lat="43.31265" lon="2.24774">
        <ele>301</ele>
        <time>2022-01-16T13:08:40Z</time>
      </trkpt>
      <trkpt lat="43.3127" lon="2.24778">
        <ele>300.8</ele>
        <time>2022-01-16T13:08:44Z</time>
      </trkpt>
      <trkpt lat="43.3127" lon="2.24771">
        <ele>301</ele>
        <time>2022-01-16T13:08:58Z</time>
      </trkpt>
      <trkpt lat="43.3127" lon="2.24764">
        <ele>301.3</ele>
        <time>2022-01-16T13:09:02Z</time>
      </trkpt>
      <trkpt lat="43.3127" lon="2.24757">
        <ele>301.5</ele>
        <time>2022-01-16T13:09:05Z</time>
      </trkpt>
      <trkpt lat="43.31272" lon="2.24751">
        <ele>301.6</ele>
        <time>2022-01-16T13:09:09Z</time>
      </trkpt>
      <trkpt lat="43.31273" lon="2.24744">
        <ele>301.8</ele>
        <time>2022-01-16T13:09:13Z</time>
      </trkpt>
      <trkpt lat="43.31277" lon="2.2474">
        <ele>302.1</ele>
        <time>2022-01-16T13:09:17Z</time>
      </trkpt>
      <trkpt lat="43.31277" lon="2.24733">
        <ele>302.3</ele>
        <time>2022-01-16T13:09:21Z</time>
      </trkpt>
      <trkpt lat="43.31277" lon="2.24727">
        <ele>302.2</ele>
        <time>2022-01-16T13:09:25Z</time>
      </trkpt>
      <trkpt lat="43.31275" lon="2.2472">
        <ele>302</ele>
        <time>2022-01-16T13:09:29Z</time>
      </trkpt>
      <trkpt lat="43.31277" lon="2.24713">
        <ele>301.7</ele>
        <time>2022-01-16T13:09:33Z</time>
      </trkpt>
      <trkpt lat="43.3128" lon="2.24705">
        <ele>301.6</ele>
        <time>2022-01-16T13:09:38Z</time>
      </trkpt>
      <trkpt lat="43.31282" lon="2.24698">
        <ele>301.5</ele>
        <time>2022-01-16T13:09:43Z</time>
      </trkpt>
      <trkpt lat="43.31284" lon="2.24685">
        <ele>301.2</ele>
        <time>2022-01-16T13:09:50Z</time>
      </trkpt>
      <trkpt lat="43.31283" lon="2.24679">
        <ele>300.8</ele>
        <time>2022-01-16T13:09:54Z</time>
      </trkpt>
      <trkpt lat="43.31284" lon="2.24673">
        <ele>300.2</ele>
        <time>2022-01-16T13:09:57Z</time>
      </trkpt>
      <trkpt lat="43.31287" lon="2.24666">
        <ele>299.5</ele>
        <time>2022-01-16T13:10:02Z</time>
      </trkpt>
      <trkpt lat="43.31288" lon="2.2466">
        <ele>299.1</ele>
        <time>2022-01-16T13:10:06Z</time>
      </trkpt>
      <trkpt lat="43.3129" lon="2.24652">
        <ele>299</ele>
        <time>2022-01-16T13:10:10Z</time>
      </trkpt>
      <trkpt lat="43.31288" lon="2.24646">
        <ele>299.5</ele>
        <time>2022-01-16T13:10:16Z</time>
      </trkpt>
      <trkpt lat="43.3129" lon="2.24631">
        <ele>301.7</ele>
        <time>2022-01-16T13:10:26Z</time>
      </trkpt>
      <trkpt lat="43.3129" lon="2.24609">
        <ele>298.8</ele>
        <time>2022-01-16T13:10:38Z</time>
      </trkpt>
      <trkpt lat="43.31295" lon="2.24606">
        <ele>298.4</ele>
        <time>2022-01-16T13:10:45Z</time>
      </trkpt>
      <trkpt lat="43.31298" lon="2.24601">
        <ele>298.9</ele>
        <time>2022-01-16T13:11:29Z</time>
      </trkpt>
      <trkpt lat="43.31306" lon="2.24596">
        <ele>298.8</ele>
        <time>2022-01-16T13:11:37Z</time>
      </trkpt>
      <trkpt lat="43.31315" lon="2.24589">
        <ele>298.4</ele>
        <time>2022-01-16T13:11:44Z</time>
      </trkpt>
      <trkpt lat="43.31323" lon="2.2458">
        <ele>299</ele>
        <time>2022-01-16T13:11:51Z</time>
      </trkpt>
      <trkpt lat="43.31328" lon="2.2458">
        <ele>299.6</ele>
        <time>2022-01-16T13:11:56Z</time>
      </trkpt>
      <trkpt lat="43.31331" lon="2.24576">
        <ele>300</ele>
        <time>2022-01-16T13:12:00Z</time>
      </trkpt>
      <trkpt lat="43.31334" lon="2.2457">
        <ele>301</ele>
        <time>2022-01-16T13:12:05Z</time>
      </trkpt>
      <trkpt lat="43.31338" lon="2.24565">
        <ele>302.3</ele>
        <time>2022-01-16T13:12:10Z</time>
      </trkpt>
      <trkpt lat="43.31343" lon="2.24564">
        <ele>303.3</ele>
        <time>2022-01-16T13:12:14Z</time>
      </trkpt>
      <trkpt lat="43.31348" lon="2.24561">
        <ele>304.4</ele>
        <time>2022-01-16T13:12:19Z</time>
      </trkpt>
      <trkpt lat="43.31352" lon="2.24557">
        <ele>304.8</ele>
        <time>2022-01-16T13:12:24Z</time>
      </trkpt>
      <trkpt lat="43.31356" lon="2.24551">
        <ele>304.9</ele>
        <time>2022-01-16T13:12:30Z</time>
      </trkpt>
      <trkpt lat="43.3136" lon="2.24547">
        <ele>304.8</ele>
        <time>2022-01-16T13:12:34Z</time>
      </trkpt>
      <trkpt lat="43.31364" lon="2.24543">
        <ele>304.7</ele>
        <time>2022-01-16T13:12:38Z</time>
      </trkpt>
      <trkpt lat="43.31368" lon="2.24539">
        <ele>304.7</ele>
        <time>2022-01-16T13:12:42Z</time>
      </trkpt>
      <trkpt lat="43.31369" lon="2.24533">
        <ele>305.2</ele>
        <time>2022-01-16T13:13:37Z</time>
      </trkpt>
      <trkpt lat="43.31373" lon="2.24529">
        <ele>305.5</ele>
        <time>2022-01-16T13:13:41Z</time>
      </trkpt>
      <trkpt lat="43.31384" lon="2.24507">
        <ele>308.5</ele>
        <time>2022-01-16T13:13:59Z</time>
      </trkpt>
      <trkpt lat="43.3139" lon="2.24495">
        <ele>305.7</ele>
        <time>2022-01-16T13:15:45Z</time>
      </trkpt>
      <trkpt lat="43.31397" lon="2.24482">
        <ele>303.8</ele>
        <time>2022-01-16T13:15:54Z</time>
      </trkpt>
      <trkpt lat="43.31396" lon="2.24469">
        <ele>302.1</ele>
        <time>2022-01-16T13:16:03Z</time>
      </trkpt>
      <trkpt lat="43.31397" lon="2.24461">
        <ele>301.8</ele>
        <time>2022-01-16T13:16:07Z</time>
      </trkpt>
      <trkpt lat="43.31396" lon="2.24447">
        <ele>301.5</ele>
        <time>2022-01-16T13:16:14Z</time>
      </trkpt>
      <trkpt lat="43.31396" lon="2.24439">
        <ele>301.7</ele>
        <time>2022-01-16T13:16:19Z</time>
      </trkpt>
      <trkpt lat="43.31401" lon="2.24435">
        <ele>301.7</ele>
        <time>2022-01-16T13:16:25Z</time>
      </trkpt>
      <trkpt lat="43.31401" lon="2.24428">
        <ele>300.4</ele>
        <time>2022-01-16T13:16:33Z</time>
      </trkpt>
      <trkpt lat="43.31402" lon="2.2442">
        <ele>301.3</ele>
        <time>2022-01-16T13:16:48Z</time>
      </trkpt>
      <trkpt lat="43.31406" lon="2.24416">
        <ele>301.8</ele>
        <time>2022-01-16T13:16:51Z</time>
      </trkpt>
      <trkpt lat="43.31415" lon="2.2441">
        <ele>303.2</ele>
        <time>2022-01-16T13:17:01Z</time>
      </trkpt>
      <trkpt lat="43.31418" lon="2.24405">
        <ele>304.5</ele>
        <time>2022-01-16T13:17:06Z</time>
      </trkpt>
      <trkpt lat="43.3142" lon="2.24398">
        <ele>305.9</ele>
        <time>2022-01-16T13:17:12Z</time>
      </trkpt>
      <trkpt lat="43.31422" lon="2.24391">
        <ele>306.1</ele>
        <time>2022-01-16T13:17:16Z</time>
      </trkpt>
      <trkpt lat="43.31424" lon="2.24383">
        <ele>306.1</ele>
        <time>2022-01-16T13:17:21Z</time>
      </trkpt>
      <trkpt lat="43.31428" lon="2.24363">
        <ele>306</ele>
        <time>2022-01-16T13:17:31Z</time>
      </trkpt>
      <trkpt lat="43.31429" lon="2.24356">
        <ele>306.1</ele>
        <time>2022-01-16T13:17:35Z</time>
      </trkpt>
      <trkpt lat="43.31431" lon="2.2435">
        <ele>306.2</ele>
        <time>2022-01-16T13:17:40Z</time>
      </trkpt>
      <trkpt lat="43.31433" lon="2.24343">
        <ele>306</ele>
        <time>2022-01-16T13:17:45Z</time>
      </trkpt>
      <trkpt lat="43.31436" lon="2.24322">
        <ele>305.2</ele>
        <time>2022-01-16T13:18:01Z</time>
      </trkpt>
      <trkpt lat="43.31437" lon="2.24316">
        <ele>305.3</ele>
        <time>2022-01-16T13:18:06Z</time>
      </trkpt>
      <trkpt lat="43.31438" lon="2.2431">
        <ele>305.5</ele>
        <time>2022-01-16T13:18:10Z</time>
      </trkpt>
      <trkpt lat="43.31439" lon="2.24297">
        <ele>306.3</ele>
        <time>2022-01-16T13:18:17Z</time>
      </trkpt>
      <trkpt lat="43.31446" lon="2.24279">
        <ele>305.1</ele>
        <time>2022-01-16T13:18:33Z</time>
      </trkpt>
      <trkpt lat="43.31448" lon="2.24273">
        <ele>303.7</ele>
        <time>2022-01-16T13:18:39Z</time>
      </trkpt>
      <trkpt lat="43.3145" lon="2.24267">
        <ele>302.9</ele>
        <time>2022-01-16T13:18:43Z</time>
      </trkpt>
      <trkpt lat="43.31457" lon="2.24256">
        <ele>303.2</ele>
        <time>2022-01-16T13:18:53Z</time>
      </trkpt>
      <trkpt lat="43.31461" lon="2.24251">
        <ele>303.8</ele>
        <time>2022-01-16T13:18:59Z</time>
      </trkpt>
      <trkpt lat="43.3147" lon="2.24246">
        <ele>304.3</ele>
        <time>2022-01-16T13:19:12Z</time>
      </trkpt>
      <trkpt lat="43.31472" lon="2.24239">
        <ele>304.4</ele>
        <time>2022-01-16T13:19:17Z</time>
      </trkpt>
      <trkpt lat="43.31478" lon="2.2423">
        <ele>306.4</ele>
        <time>2022-01-16T13:19:27Z</time>
      </trkpt>
      <trkpt lat="43.31479" lon="2.24215">
        <ele>307.1</ele>
        <time>2022-01-16T13:19:37Z</time>
      </trkpt>
      <trkpt lat="43.31482" lon="2.24209">
        <ele>307</ele>
        <time>2022-01-16T13:19:42Z</time>
      </trkpt>
      <trkpt lat="43.31485" lon="2.24202">
        <ele>306.7</ele>
        <time>2022-01-16T13:19:47Z</time>
      </trkpt>
      <trkpt lat="43.31486" lon="2.24194">
        <ele>306.4</ele>
        <time>2022-01-16T13:19:53Z</time>
      </trkpt>
      <trkpt lat="43.31485" lon="2.24181">
        <ele>305.8</ele>
        <time>2022-01-16T13:20:01Z</time>
      </trkpt>
      <trkpt lat="43.31485" lon="2.24173">
        <ele>305.9</ele>
        <time>2022-01-16T13:20:06Z</time>
      </trkpt>
      <trkpt lat="43.31483" lon="2.24167">
        <ele>306.1</ele>
        <time>2022-01-16T13:20:11Z</time>
      </trkpt>
      <trkpt lat="43.31481" lon="2.24153">
        <ele>306.3</ele>
        <time>2022-01-16T13:20:20Z</time>
      </trkpt>
      <trkpt lat="43.31483" lon="2.24138">
        <ele>307.9</ele>
        <time>2022-01-16T13:20:28Z</time>
      </trkpt>
      <trkpt lat="43.31483" lon="2.24131">
        <ele>308.1</ele>
        <time>2022-01-16T13:20:32Z</time>
      </trkpt>
      <trkpt lat="43.31482" lon="2.24124">
        <ele>308</ele>
        <time>2022-01-16T13:20:36Z</time>
      </trkpt>
      <trkpt lat="43.31483" lon="2.24118">
        <ele>308</ele>
        <time>2022-01-16T13:20:40Z</time>
      </trkpt>
      <trkpt lat="43.31488" lon="2.24119">
        <ele>308.6</ele>
        <time>2022-01-16T13:21:05Z</time>
      </trkpt>
      <trkpt lat="43.3149" lon="2.24111">
        <ele>308.6</ele>
        <time>2022-01-16T13:21:14Z</time>
      </trkpt>
      <trkpt lat="43.31492" lon="2.24105">
        <ele>308.8</ele>
        <time>2022-01-16T13:21:18Z</time>
      </trkpt>
      <trkpt lat="43.31494" lon="2.24099">
        <ele>309.1</ele>
        <time>2022-01-16T13:21:22Z</time>
      </trkpt>
      <trkpt lat="43.31498" lon="2.24094">
        <ele>309</ele>
        <time>2022-01-16T13:21:30Z</time>
      </trkpt>
      <trkpt lat="43.31502" lon="2.24089">
        <ele>307.9</ele>
        <time>2022-01-16T13:21:44Z</time>
      </trkpt>
      <trkpt lat="43.31508" lon="2.24076">
        <ele>306.1</ele>
        <time>2022-01-16T13:21:54Z</time>
      </trkpt>
      <trkpt lat="43.3151" lon="2.2407">
        <ele>306</ele>
        <time>2022-01-16T13:21:59Z</time>
      </trkpt>
      <trkpt lat="43.31511" lon="2.24064">
        <ele>306.1</ele>
        <time>2022-01-16T13:22:05Z</time>
      </trkpt>
      <trkpt lat="43.31514" lon="2.24049">
        <ele>307</ele>
        <time>2022-01-16T13:22:12Z</time>
      </trkpt>
      <trkpt lat="43.31517" lon="2.24043">
        <ele>307.5</ele>
        <time>2022-01-16T13:22:15Z</time>
      </trkpt>
      <trkpt lat="43.31509" lon="2.24034">
        <ele>306.7</ele>
        <time>2022-01-16T13:22:31Z</time>
      </trkpt>
      <trkpt lat="43.31508" lon="2.24028">
        <ele>305.9</ele>
        <time>2022-01-16T13:22:36Z</time>
      </trkpt>
      <trkpt lat="43.31507" lon="2.24011">
        <ele>304.6</ele>
        <time>2022-01-16T13:22:44Z</time>
      </trkpt>
      <trkpt lat="43.31509" lon="2.24005">
        <ele>303.7</ele>
        <time>2022-01-16T13:22:47Z</time>
      </trkpt>
      <trkpt lat="43.31508" lon="2.23996">
        <ele>302.5</ele>
        <time>2022-01-16T13:22:52Z</time>
      </trkpt>
      <trkpt lat="43.31509" lon="2.2398">
        <ele>302.4</ele>
        <time>2022-01-16T13:23:02Z</time>
      </trkpt>
      <trkpt lat="43.3151" lon="2.2397">
        <ele>303.1</ele>
        <time>2022-01-16T13:23:08Z</time>
      </trkpt>
      <trkpt lat="43.31514" lon="2.23964">
        <ele>303.9</ele>
        <time>2022-01-16T13:23:13Z</time>
      </trkpt>
      <trkpt lat="43.31514" lon="2.23956">
        <ele>304.2</ele>
        <time>2022-01-16T13:23:23Z</time>
      </trkpt>
      <trkpt lat="43.31512" lon="2.2395">
        <ele>302.9</ele>
        <time>2022-01-16T13:23:28Z</time>
      </trkpt>
      <trkpt lat="43.31514" lon="2.23944">
        <ele>302.8</ele>
        <time>2022-01-16T13:23:32Z</time>
      </trkpt>
      <trkpt lat="43.31516" lon="2.23938">
        <ele>303.4</ele>
        <time>2022-01-16T13:23:36Z</time>
      </trkpt>
      <trkpt lat="43.31519" lon="2.23932">
        <ele>303.5</ele>
        <time>2022-01-16T13:23:41Z</time>
      </trkpt>
      <trkpt lat="43.31527" lon="2.23908">
        <ele>302.4</ele>
        <time>2022-01-16T13:23:56Z</time>
      </trkpt>
      <trkpt lat="43.3153" lon="2.23903">
        <ele>301.8</ele>
        <time>2022-01-16T13:24:01Z</time>
      </trkpt>
      <trkpt lat="43.31538" lon="2.23886">
        <ele>297.9</ele>
        <time>2022-01-16T13:24:20Z</time>
      </trkpt>
      <trkpt lat="43.31539" lon="2.2388">
        <ele>297.5</ele>
        <time>2022-01-16T13:24:27Z</time>
      </trkpt>
      <trkpt lat="43.31539" lon="2.23872">
        <ele>297.1</ele>
        <time>2022-01-16T13:24:33Z</time>
      </trkpt>
      <trkpt lat="43.31539" lon="2.23866">
        <ele>296.8</ele>
        <time>2022-01-16T13:24:37Z</time>
      </trkpt>
      <trkpt lat="43.31545" lon="2.23854">
        <ele>294.9</ele>
        <time>2022-01-16T13:25:03Z</time>
      </trkpt>
      <trkpt lat="43.31545" lon="2.23848">
        <ele>293.1</ele>
        <time>2022-01-16T13:25:08Z</time>
      </trkpt>
      <trkpt lat="43.31543" lon="2.2384">
        <ele>292</ele>
        <time>2022-01-16T13:25:13Z</time>
      </trkpt>
      <trkpt lat="43.3154" lon="2.23833">
        <ele>291.2</ele>
        <time>2022-01-16T13:25:18Z</time>
      </trkpt>
      <trkpt lat="43.31538" lon="2.23828">
        <ele>290.7</ele>
        <time>2022-01-16T13:25:21Z</time>
      </trkpt>
      <trkpt lat="43.31535" lon="2.23822">
        <ele>290.2</ele>
        <time>2022-01-16T13:25:25Z</time>
      </trkpt>
      <trkpt lat="43.3153" lon="2.23815">
        <ele>289.7</ele>
        <time>2022-01-16T13:25:30Z</time>
      </trkpt>
      <trkpt lat="43.31528" lon="2.23808">
        <ele>289.9</ele>
        <time>2022-01-16T13:25:37Z</time>
      </trkpt>
      <trkpt lat="43.31523" lon="2.23806">
        <ele>289.9</ele>
        <time>2022-01-16T13:25:43Z</time>
      </trkpt>
      <trkpt lat="43.31518" lon="2.23805">
        <ele>290</ele>
        <time>2022-01-16T13:25:47Z</time>
      </trkpt>
      <trkpt lat="43.31515" lon="2.238">
        <ele>290.2</ele>
        <time>2022-01-16T13:25:52Z</time>
      </trkpt>
      <trkpt lat="43.3151" lon="2.23797">
        <ele>290</ele>
        <time>2022-01-16T13:25:59Z</time>
      </trkpt>
      <trkpt lat="43.31501" lon="2.23795">
        <ele>290.3</ele>
        <time>2022-01-16T13:26:10Z</time>
      </trkpt>
      <trkpt lat="43.31495" lon="2.23797">
        <ele>290.1</ele>
        <time>2022-01-16T13:26:14Z</time>
      </trkpt>
      <trkpt lat="43.3149" lon="2.23796">
        <ele>289.9</ele>
        <time>2022-01-16T13:26:18Z</time>
      </trkpt>
      <trkpt lat="43.31485" lon="2.23793">
        <ele>289.7</ele>
        <time>2022-01-16T13:26:22Z</time>
      </trkpt>
      <trkpt lat="43.3148" lon="2.23791">
        <ele>289.7</ele>
        <time>2022-01-16T13:26:29Z</time>
      </trkpt>
      <trkpt lat="43.31475" lon="2.2379">
        <ele>290.2</ele>
        <time>2022-01-16T13:26:33Z</time>
      </trkpt>
      <trkpt lat="43.3147" lon="2.23788">
        <ele>290.7</ele>
        <time>2022-01-16T13:26:37Z</time>
      </trkpt>
      <trkpt lat="43.31465" lon="2.23787">
        <ele>290.6</ele>
        <time>2022-01-16T13:26:41Z</time>
      </trkpt>
      <trkpt lat="43.31455" lon="2.23786">
        <ele>289.2</ele>
        <time>2022-01-16T13:26:51Z</time>
      </trkpt>
      <trkpt lat="43.31445" lon="2.23788">
        <ele>289.3</ele>
        <time>2022-01-16T13:27:01Z</time>
      </trkpt>
      <trkpt lat="43.3144" lon="2.23787">
        <ele>290.6</ele>
        <time>2022-01-16T13:27:07Z</time>
      </trkpt>
      <trkpt lat="43.31433" lon="2.2378">
        <ele>291</ele>
        <time>2022-01-16T13:27:19Z</time>
      </trkpt>
      <trkpt lat="43.31433" lon="2.23773">
        <ele>290.2</ele>
        <time>2022-01-16T13:27:25Z</time>
      </trkpt>
      <trkpt lat="43.31436" lon="2.23778">
        <ele>289.7</ele>
        <time>2022-01-16T13:27:41Z</time>
      </trkpt>
      <trkpt lat="43.31451" lon="2.23771">
        <ele>288.9</ele>
        <time>2022-01-16T13:27:56Z</time>
      </trkpt>
      <trkpt lat="43.31455" lon="2.23771">
        <ele>288.6</ele>
        <time>2022-01-16T13:28:01Z</time>
      </trkpt>
      <trkpt lat="43.31463" lon="2.2376">
        <ele>288.6</ele>
        <time>2022-01-16T13:28:22Z</time>
      </trkpt>
      <trkpt lat="43.31468" lon="2.23755">
        <ele>288</ele>
        <time>2022-01-16T13:28:25Z</time>
      </trkpt>
      <trkpt lat="43.31482" lon="2.23746">
        <ele>285.3</ele>
        <time>2022-01-16T13:28:36Z</time>
      </trkpt>
      <trkpt lat="43.31487" lon="2.23746">
        <ele>284.1</ele>
        <time>2022-01-16T13:28:41Z</time>
      </trkpt>
      <trkpt lat="43.31491" lon="2.23741">
        <ele>282.9</ele>
        <time>2022-01-16T13:28:47Z</time>
      </trkpt>
      <trkpt lat="43.31501" lon="2.23736">
        <ele>282.2</ele>
        <time>2022-01-16T13:28:57Z</time>
      </trkpt>
      <trkpt lat="43.31505" lon="2.23733">
        <ele>282.5</ele>
        <time>2022-01-16T13:29:01Z</time>
      </trkpt>
      <trkpt lat="43.31508" lon="2.23728">
        <ele>282.7</ele>
        <time>2022-01-16T13:29:05Z</time>
      </trkpt>
      <trkpt lat="43.31512" lon="2.23726">
        <ele>283</ele>
        <time>2022-01-16T13:29:09Z</time>
      </trkpt>
      <trkpt lat="43.31517" lon="2.23723">
        <ele>282.3</ele>
        <time>2022-01-16T13:29:22Z</time>
      </trkpt>
      <trkpt lat="43.31522" lon="2.23721">
        <ele>282.2</ele>
        <time>2022-01-16T13:29:26Z</time>
      </trkpt>
      <trkpt lat="43.31526" lon="2.23716">
        <ele>282.1</ele>
        <time>2022-01-16T13:29:30Z</time>
      </trkpt>
      <trkpt lat="43.31531" lon="2.23711">
        <ele>281.7</ele>
        <time>2022-01-16T13:29:34Z</time>
      </trkpt>
      <trkpt lat="43.31535" lon="2.23708">
        <ele>281.3</ele>
        <time>2022-01-16T13:29:37Z</time>
      </trkpt>
      <trkpt lat="43.31546" lon="2.23702">
        <ele>279.9</ele>
        <time>2022-01-16T13:29:46Z</time>
      </trkpt>
      <trkpt lat="43.31554" lon="2.23695">
        <ele>277.4</ele>
        <time>2022-01-16T13:29:54Z</time>
      </trkpt>
      <trkpt lat="43.31558" lon="2.2369">
        <ele>276.3</ele>
        <time>2022-01-16T13:29:58Z</time>
      </trkpt>
      <trkpt lat="43.31559" lon="2.23682">
        <ele>275.9</ele>
        <time>2022-01-16T13:30:03Z</time>
      </trkpt>
      <trkpt lat="43.31562" lon="2.23677">
        <ele>275.7</ele>
        <time>2022-01-16T13:30:07Z</time>
      </trkpt>
      <trkpt lat="43.31565" lon="2.23672">
        <ele>275.1</ele>
        <time>2022-01-16T13:30:13Z</time>
      </trkpt>
      <trkpt lat="43.31563" lon="2.23665">
        <ele>275.1</ele>
        <time>2022-01-16T13:30:22Z</time>
      </trkpt>
      <trkpt lat="43.31562" lon="2.23657">
        <ele>275.4</ele>
        <time>2022-01-16T13:30:26Z</time>
      </trkpt>
      <trkpt lat="43.31563" lon="2.23649">
        <ele>276</ele>
        <time>2022-01-16T13:30:31Z</time>
      </trkpt>
      <trkpt lat="43.31564" lon="2.23633">
        <ele>276.7</ele>
        <time>2022-01-16T13:30:41Z</time>
      </trkpt>
      <trkpt lat="43.31561" lon="2.23627">
        <ele>276.7</ele>
        <time>2022-01-16T13:30:45Z</time>
      </trkpt>
      <trkpt lat="43.3156" lon="2.23619">
        <ele>276.6</ele>
        <time>2022-01-16T13:30:50Z</time>
      </trkpt>
      <trkpt lat="43.3156" lon="2.23613">
        <ele>276.4</ele>
        <time>2022-01-16T13:30:53Z</time>
      </trkpt>
      <trkpt lat="43.31561" lon="2.23607">
        <ele>276.2</ele>
        <time>2022-01-16T13:30:57Z</time>
      </trkpt>
      <trkpt lat="43.31561" lon="2.236">
        <ele>275.9</ele>
        <time>2022-01-16T13:31:00Z</time>
      </trkpt>
      <trkpt lat="43.31562" lon="2.23585">
        <ele>276</ele>
        <time>2022-01-16T13:31:10Z</time>
      </trkpt>
      <trkpt lat="43.31563" lon="2.23571">
        <ele>275.8</ele>
        <time>2022-01-16T13:31:17Z</time>
      </trkpt>
      <trkpt lat="43.31562" lon="2.2355">
        <ele>275.1</ele>
        <time>2022-01-16T13:31:29Z</time>
      </trkpt>
      <trkpt lat="43.31562" lon="2.23542">
        <ele>275.2</ele>
        <time>2022-01-16T13:31:34Z</time>
      </trkpt>
      <trkpt lat="43.3156" lon="2.23527">
        <ele>274</ele>
        <time>2022-01-16T13:31:43Z</time>
      </trkpt>
      <trkpt lat="43.31558" lon="2.2352">
        <ele>273.5</ele>
        <time>2022-01-16T13:31:48Z</time>
      </trkpt>
      <trkpt lat="43.31557" lon="2.23512">
        <ele>273.6</ele>
        <time>2022-01-16T13:31:54Z</time>
      </trkpt>
      <trkpt lat="43.31558" lon="2.23505">
        <ele>274.3</ele>
        <time>2022-01-16T13:32:00Z</time>
      </trkpt>
      <trkpt lat="43.31557" lon="2.23497">
        <ele>274.8</ele>
        <time>2022-01-16T13:32:04Z</time>
      </trkpt>
      <trkpt lat="43.31558" lon="2.23489">
        <ele>275.2</ele>
        <time>2022-01-16T13:32:08Z</time>
      </trkpt>
      <trkpt lat="43.31557" lon="2.23482">
        <ele>275.3</ele>
        <time>2022-01-16T13:32:12Z</time>
      </trkpt>
      <trkpt lat="43.31554" lon="2.23461">
        <ele>275.7</ele>
        <time>2022-01-16T13:32:24Z</time>
      </trkpt>
      <trkpt lat="43.31552" lon="2.23453">
        <ele>275.5</ele>
        <time>2022-01-16T13:32:29Z</time>
      </trkpt>
      <trkpt lat="43.31554" lon="2.23447">
        <ele>274.9</ele>
        <time>2022-01-16T13:32:39Z</time>
      </trkpt>
      <trkpt lat="43.31555" lon="2.23441">
        <ele>274.9</ele>
        <time>2022-01-16T13:32:47Z</time>
      </trkpt>
      <trkpt lat="43.31554" lon="2.23425">
        <ele>274.9</ele>
        <time>2022-01-16T13:32:53Z</time>
      </trkpt>
      <trkpt lat="43.31553" lon="2.23418">
        <ele>274.9</ele>
        <time>2022-01-16T13:32:57Z</time>
      </trkpt>
      <trkpt lat="43.31552" lon="2.23411">
        <ele>274.7</ele>
        <time>2022-01-16T13:33:00Z</time>
      </trkpt>
      <trkpt lat="43.31554" lon="2.23396">
        <ele>275.1</ele>
        <time>2022-01-16T13:33:08Z</time>
      </trkpt>
      <trkpt lat="43.31557" lon="2.2339">
        <ele>275.6</ele>
        <time>2022-01-16T13:33:12Z</time>
      </trkpt>
      <trkpt lat="43.31562" lon="2.23376">
        <ele>276.9</ele>
        <time>2022-01-16T13:33:21Z</time>
      </trkpt>
      <trkpt lat="43.31564" lon="2.23368">
        <ele>277.5</ele>
        <time>2022-01-16T13:33:26Z</time>
      </trkpt>
      <trkpt lat="43.31567" lon="2.23355">
        <ele>277.4</ele>
        <time>2022-01-16T13:33:33Z</time>
      </trkpt>
      <trkpt lat="43.3157" lon="2.23325">
        <ele>277.2</ele>
        <time>2022-01-16T13:33:49Z</time>
      </trkpt>
      <trkpt lat="43.31571" lon="2.23318">
        <ele>277.6</ele>
        <time>2022-01-16T13:33:54Z</time>
      </trkpt>
      <trkpt lat="43.31569" lon="2.2329">
        <ele>279</ele>
        <time>2022-01-16T13:34:10Z</time>
      </trkpt>
      <trkpt lat="43.31567" lon="2.23269">
        <ele>277.8</ele>
        <time>2022-01-16T13:34:22Z</time>
      </trkpt>
      <trkpt lat="43.31566" lon="2.23253">
        <ele>276.3</ele>
        <time>2022-01-16T13:34:31Z</time>
      </trkpt>
      <trkpt lat="43.31567" lon="2.23245">
        <ele>275.9</ele>
        <time>2022-01-16T13:34:35Z</time>
      </trkpt>
      <trkpt lat="43.31571" lon="2.23225">
        <ele>276.6</ele>
        <time>2022-01-16T13:34:47Z</time>
      </trkpt>
      <trkpt lat="43.31575" lon="2.23199">
        <ele>277.9</ele>
        <time>2022-01-16T13:35:03Z</time>
      </trkpt>
      <trkpt lat="43.31577" lon="2.23182">
        <ele>277.6</ele>
        <time>2022-01-16T13:35:13Z</time>
      </trkpt>
      <trkpt lat="43.3158" lon="2.23175">
        <ele>277.2</ele>
        <time>2022-01-16T13:35:17Z</time>
      </trkpt>
      <trkpt lat="43.31582" lon="2.23169">
        <ele>276.8</ele>
        <time>2022-01-16T13:35:21Z</time>
      </trkpt>
      <trkpt lat="43.31584" lon="2.23161">
        <ele>276.1</ele>
        <time>2022-01-16T13:35:25Z</time>
      </trkpt>
      <trkpt lat="43.31586" lon="2.23147">
        <ele>275.4</ele>
        <time>2022-01-16T13:35:33Z</time>
      </trkpt>
      <trkpt lat="43.31587" lon="2.2314">
        <ele>275.6</ele>
        <time>2022-01-16T13:35:37Z</time>
      </trkpt>
      <trkpt lat="43.31586" lon="2.23119">
        <ele>276.3</ele>
        <time>2022-01-16T13:35:50Z</time>
      </trkpt>
      <trkpt lat="43.31586" lon="2.23105">
        <ele>274.5</ele>
        <time>2022-01-16T13:36:02Z</time>
      </trkpt>
      <trkpt lat="43.31585" lon="2.23096">
        <ele>274.3</ele>
        <time>2022-01-16T13:36:08Z</time>
      </trkpt>
      <trkpt lat="43.31586" lon="2.23088">
        <ele>274</ele>
        <time>2022-01-16T13:36:13Z</time>
      </trkpt>
      <trkpt lat="43.31586" lon="2.23074">
        <ele>273.7</ele>
        <time>2022-01-16T13:36:20Z</time>
      </trkpt>
      <trkpt lat="43.31589" lon="2.23058">
        <ele>273.1</ele>
        <time>2022-01-16T13:36:28Z</time>
      </trkpt>
      <trkpt lat="43.3159" lon="2.23051">
        <ele>273</ele>
        <time>2022-01-16T13:36:31Z</time>
      </trkpt>
      <trkpt lat="43.31592" lon="2.23038">
        <ele>273.3</ele>
        <time>2022-01-16T13:36:39Z</time>
      </trkpt>
      <trkpt lat="43.31591" lon="2.23025">
        <ele>273.5</ele>
        <time>2022-01-16T13:36:46Z</time>
      </trkpt>
      <trkpt lat="43.3159" lon="2.23018">
        <ele>273.5</ele>
        <time>2022-01-16T13:36:50Z</time>
      </trkpt>
      <trkpt lat="43.31588" lon="2.23002">
        <ele>273.9</ele>
        <time>2022-01-16T13:37:00Z</time>
      </trkpt>
      <trkpt lat="43.31584" lon="2.22982">
        <ele>273.3</ele>
        <time>2022-01-16T13:37:13Z</time>
      </trkpt>
      <trkpt lat="43.31583" lon="2.22976">
        <ele>272.9</ele>
        <time>2022-01-16T13:37:16Z</time>
      </trkpt>
      <trkpt lat="43.31583" lon="2.22953">
        <ele>272.1</ele>
        <time>2022-01-16T13:37:26Z</time>
      </trkpt>
      <trkpt lat="43.31583" lon="2.22946">
        <ele>271.7</ele>
        <time>2022-01-16T13:37:30Z</time>
      </trkpt>
      <trkpt lat="43.31584" lon="2.22938">
        <ele>271.3</ele>
        <time>2022-01-16T13:37:36Z</time>
      </trkpt>
      <trkpt lat="43.31583" lon="2.22931">
        <ele>271.2</ele>
        <time>2022-01-16T13:37:40Z</time>
      </trkpt>
      <trkpt lat="43.31584" lon="2.22924">
        <ele>271.8</ele>
        <time>2022-01-16T13:37:46Z</time>
      </trkpt>
      <trkpt lat="43.31583" lon="2.22918">
        <ele>272</ele>
        <time>2022-01-16T13:37:49Z</time>
      </trkpt>
      <trkpt lat="43.31583" lon="2.22909">
        <ele>272.1</ele>
        <time>2022-01-16T13:37:54Z</time>
      </trkpt>
      <trkpt lat="43.31583" lon="2.22902">
        <ele>272</ele>
        <time>2022-01-16T13:37:58Z</time>
      </trkpt>
      <trkpt lat="43.31582" lon="2.22895">
        <ele>271.7</ele>
        <time>2022-01-16T13:38:02Z</time>
      </trkpt>
      <trkpt lat="43.31578" lon="2.22892">
        <ele>270.6</ele>
        <time>2022-01-16T13:38:09Z</time>
      </trkpt>
      <trkpt lat="43.31575" lon="2.22885">
        <ele>269.8</ele>
        <time>2022-01-16T13:38:13Z</time>
      </trkpt>
      <trkpt lat="43.31574" lon="2.22879">
        <ele>269.3</ele>
        <time>2022-01-16T13:38:15Z</time>
      </trkpt>
      <trkpt lat="43.31572" lon="2.22873">
        <ele>268.8</ele>
        <time>2022-01-16T13:38:18Z</time>
      </trkpt>
      <trkpt lat="43.31571" lon="2.22865">
        <ele>268.1</ele>
        <time>2022-01-16T13:38:22Z</time>
      </trkpt>
      <trkpt lat="43.31571" lon="2.22857">
        <ele>267.4</ele>
        <time>2022-01-16T13:38:25Z</time>
      </trkpt>
      <trkpt lat="43.31571" lon="2.22849">
        <ele>266.9</ele>
        <time>2022-01-16T13:38:30Z</time>
      </trkpt>
      <trkpt lat="43.31569" lon="2.22843">
        <ele>266.4</ele>
        <time>2022-01-16T13:38:34Z</time>
      </trkpt>
      <trkpt lat="43.31568" lon="2.22837">
        <ele>265.8</ele>
        <time>2022-01-16T13:38:37Z</time>
      </trkpt>
      <trkpt lat="43.31561" lon="2.22825">
        <ele>265.1</ele>
        <time>2022-01-16T13:38:46Z</time>
      </trkpt>
      <trkpt lat="43.31559" lon="2.22819">
        <ele>265.7</ele>
        <time>2022-01-16T13:38:51Z</time>
      </trkpt>
      <trkpt lat="43.31555" lon="2.22813">
        <ele>266.3</ele>
        <time>2022-01-16T13:38:55Z</time>
      </trkpt>
      <trkpt lat="43.3155" lon="2.22801">
        <ele>266.5</ele>
        <time>2022-01-16T13:39:03Z</time>
      </trkpt>
      <trkpt lat="43.31538" lon="2.22785">
        <ele>266.8</ele>
        <time>2022-01-16T13:39:15Z</time>
      </trkpt>
      <trkpt lat="43.31534" lon="2.22781">
        <ele>267.3</ele>
        <time>2022-01-16T13:39:19Z</time>
      </trkpt>
      <trkpt lat="43.31526" lon="2.22773">
        <ele>268</ele>
        <time>2022-01-16T13:39:28Z</time>
      </trkpt>
      <trkpt lat="43.31522" lon="2.22767">
        <ele>268.3</ele>
        <time>2022-01-16T13:39:32Z</time>
      </trkpt>
      <trkpt lat="43.31517" lon="2.22764">
        <ele>268.7</ele>
        <time>2022-01-16T13:39:37Z</time>
      </trkpt>
      <trkpt lat="43.31517" lon="2.22756">
        <ele>269.1</ele>
        <time>2022-01-16T13:39:45Z</time>
      </trkpt>
      <trkpt lat="43.31513" lon="2.22751">
        <ele>269.2</ele>
        <time>2022-01-16T13:39:50Z</time>
      </trkpt>
      <trkpt lat="43.31511" lon="2.22745">
        <ele>270.1</ele>
        <time>2022-01-16T13:40:06Z</time>
      </trkpt>
      <trkpt lat="43.31509" lon="2.22737">
        <ele>269.8</ele>
        <time>2022-01-16T13:40:09Z</time>
      </trkpt>
      <trkpt lat="43.31503" lon="2.22723">
        <ele>268.9</ele>
        <time>2022-01-16T13:40:18Z</time>
      </trkpt>
      <trkpt lat="43.31499" lon="2.2271">
        <ele>266.9</ele>
        <time>2022-01-16T13:40:25Z</time>
      </trkpt>
      <trkpt lat="43.31496" lon="2.22704">
        <ele>265.6</ele>
        <time>2022-01-16T13:40:30Z</time>
      </trkpt>
      <trkpt lat="43.31488" lon="2.22693">
        <ele>262.2</ele>
        <time>2022-01-16T13:40:40Z</time>
      </trkpt>
      <trkpt lat="43.31483" lon="2.2268">
        <ele>261.1</ele>
        <time>2022-01-16T13:40:48Z</time>
      </trkpt>
      <trkpt lat="43.31479" lon="2.22685">
        <ele>260.9</ele>
        <time>2022-01-16T13:40:57Z</time>
      </trkpt>
      <trkpt lat="43.31483" lon="2.22683">
        <ele>260.9</ele>
        <time>2022-01-16T13:41:15Z</time>
      </trkpt>
      <trkpt lat="43.31495" lon="2.2268">
        <ele>261.4</ele>
        <time>2022-01-16T13:41:47Z</time>
      </trkpt>
      <trkpt lat="43.31499" lon="2.2268">
        <ele>262.3</ele>
        <time>2022-01-16T13:41:53Z</time>
      </trkpt>
      <trkpt lat="43.31503" lon="2.22685">
        <ele>263.5</ele>
        <time>2022-01-16T13:42:00Z</time>
      </trkpt>
      <trkpt lat="43.31513" lon="2.22686">
        <ele>264.5</ele>
        <time>2022-01-16T13:42:08Z</time>
      </trkpt>
      <trkpt lat="43.31518" lon="2.2268">
        <ele>265.2</ele>
        <time>2022-01-16T13:42:18Z</time>
      </trkpt>
      <trkpt lat="43.3153" lon="2.22681">
        <ele>265.8</ele>
        <time>2022-01-16T13:42:27Z</time>
      </trkpt>
      <trkpt lat="43.31536" lon="2.22681">
        <ele>266.4</ele>
        <time>2022-01-16T13:42:31Z</time>
      </trkpt>
      <trkpt lat="43.31542" lon="2.22679">
        <ele>266.9</ele>
        <time>2022-01-16T13:42:36Z</time>
      </trkpt>
      <trkpt lat="43.31556" lon="2.22678">
        <ele>267.4</ele>
        <time>2022-01-16T13:42:50Z</time>
      </trkpt>
      <trkpt lat="43.31557" lon="2.22671">
        <ele>268.7</ele>
        <time>2022-01-16T13:44:00Z</time>
      </trkpt>
      <trkpt lat="43.31558" lon="2.22665">
        <ele>268.9</ele>
        <time>2022-01-16T13:44:17Z</time>
      </trkpt>
      <trkpt lat="43.31557" lon="2.22656">
        <ele>269.3</ele>
        <time>2022-01-16T13:44:22Z</time>
      </trkpt>
      <trkpt lat="43.31553" lon="2.2265">
        <ele>268.5</ele>
        <time>2022-01-16T13:44:32Z</time>
      </trkpt>
      <trkpt lat="43.31551" lon="2.22643">
        <ele>268</ele>
        <time>2022-01-16T13:44:37Z</time>
      </trkpt>
      <trkpt lat="43.3155" lon="2.22629">
        <ele>267.5</ele>
        <time>2022-01-16T13:44:44Z</time>
      </trkpt>
      <trkpt lat="43.31547" lon="2.22602">
        <ele>267.2</ele>
        <time>2022-01-16T13:44:58Z</time>
      </trkpt>
      <trkpt lat="43.31546" lon="2.22595">
        <ele>266.7</ele>
        <time>2022-01-16T13:45:01Z</time>
      </trkpt>
      <trkpt lat="43.31545" lon="2.22589">
        <ele>265.9</ele>
        <time>2022-01-16T13:45:05Z</time>
      </trkpt>
      <trkpt lat="43.31546" lon="2.22579">
        <ele>265</ele>
        <time>2022-01-16T13:45:10Z</time>
      </trkpt>
      <trkpt lat="43.31546" lon="2.22572">
        <ele>263.8</ele>
        <time>2022-01-16T13:45:14Z</time>
      </trkpt>
      <trkpt lat="43.31551" lon="2.2257">
        <ele>262.5</ele>
        <time>2022-01-16T13:45:21Z</time>
      </trkpt>
      <trkpt lat="43.31546" lon="2.22565">
        <ele>263.5</ele>
        <time>2022-01-16T13:45:47Z</time>
      </trkpt>
      <trkpt lat="43.31544" lon="2.22559">
        <ele>264.2</ele>
        <time>2022-01-16T13:45:51Z</time>
      </trkpt>
      <trkpt lat="43.31542" lon="2.2255">
        <ele>264.5</ele>
        <time>2022-01-16T13:45:55Z</time>
      </trkpt>
      <trkpt lat="43.31539" lon="2.22535">
        <ele>265.2</ele>
        <time>2022-01-16T13:46:05Z</time>
      </trkpt>
      <trkpt lat="43.31536" lon="2.22529">
        <ele>265.3</ele>
        <time>2022-01-16T13:46:10Z</time>
      </trkpt>
      <trkpt lat="43.31532" lon="2.22517">
        <ele>265.3</ele>
        <time>2022-01-16T13:46:16Z</time>
      </trkpt>
      <trkpt lat="43.31527" lon="2.22505">
        <ele>265.6</ele>
        <time>2022-01-16T13:46:26Z</time>
      </trkpt>
      <trkpt lat="43.31519" lon="2.22492">
        <ele>265.1</ele>
        <time>2022-01-16T13:46:36Z</time>
      </trkpt>
      <trkpt lat="43.31516" lon="2.22484">
        <ele>265.5</ele>
        <time>2022-01-16T13:46:40Z</time>
      </trkpt>
      <trkpt lat="43.31508" lon="2.22473">
        <ele>266.9</ele>
        <time>2022-01-16T13:46:50Z</time>
      </trkpt>
      <trkpt lat="43.315" lon="2.22467">
        <ele>266.5</ele>
        <time>2022-01-16T13:47:00Z</time>
      </trkpt>
      <trkpt lat="43.31504" lon="2.22464">
        <ele>265.1</ele>
        <time>2022-01-16T13:47:04Z</time>
      </trkpt>
      <trkpt lat="43.315" lon="2.2246">
        <ele>261.2</ele>
        <time>2022-01-16T13:47:17Z</time>
      </trkpt>
      <trkpt lat="43.31494" lon="2.2245">
        <ele>260.4</ele>
        <time>2022-01-16T13:47:24Z</time>
      </trkpt>
      <trkpt lat="43.3149" lon="2.22445">
        <ele>260.1</ele>
        <time>2022-01-16T13:47:29Z</time>
      </trkpt>
      <trkpt lat="43.31485" lon="2.22442">
        <ele>259.9</ele>
        <time>2022-01-16T13:47:34Z</time>
      </trkpt>
      <trkpt lat="43.31476" lon="2.22422">
        <ele>257.1</ele>
        <time>2022-01-16T13:47:46Z</time>
      </trkpt>
      <trkpt lat="43.31472" lon="2.22418">
        <ele>255.8</ele>
        <time>2022-01-16T13:47:50Z</time>
      </trkpt>
      <trkpt lat="43.31457" lon="2.22391">
        <ele>253.1</ele>
        <time>2022-01-16T13:48:13Z</time>
      </trkpt>
      <trkpt lat="43.31453" lon="2.22386">
        <ele>252.8</ele>
        <time>2022-01-16T13:48:17Z</time>
      </trkpt>
      <trkpt lat="43.31443" lon="2.22371">
        <ele>251.5</ele>
        <time>2022-01-16T13:48:28Z</time>
      </trkpt>
      <trkpt lat="43.31434" lon="2.22362">
        <ele>250.8</ele>
        <time>2022-01-16T13:48:35Z</time>
      </trkpt>
      <trkpt lat="43.31422" lon="2.22353">
        <ele>250</ele>
        <time>2022-01-16T13:48:44Z</time>
      </trkpt>
      <trkpt lat="43.31418" lon="2.22347">
        <ele>250.1</ele>
        <time>2022-01-16T13:48:51Z</time>
      </trkpt>
      <trkpt lat="43.3141" lon="2.22338">
        <ele>250.4</ele>
        <time>2022-01-16T13:48:59Z</time>
      </trkpt>
      <trkpt lat="43.31406" lon="2.22333">
        <ele>249.8</ele>
        <time>2022-01-16T13:49:03Z</time>
      </trkpt>
      <trkpt lat="43.31403" lon="2.22327">
        <ele>248.9</ele>
        <time>2022-01-16T13:49:08Z</time>
      </trkpt>
      <trkpt lat="43.31399" lon="2.22323">
        <ele>248.6</ele>
        <time>2022-01-16T13:49:13Z</time>
      </trkpt>
      <trkpt lat="43.31395" lon="2.22317">
        <ele>248.7</ele>
        <time>2022-01-16T13:49:17Z</time>
      </trkpt>
      <trkpt lat="43.31395" lon="2.22311">
        <ele>248.8</ele>
        <time>2022-01-16T13:49:26Z</time>
      </trkpt>
      <trkpt lat="43.31397" lon="2.22304">
        <ele>248.7</ele>
        <time>2022-01-16T13:49:32Z</time>
      </trkpt>
      <trkpt lat="43.314" lon="2.22298">
        <ele>248</ele>
        <time>2022-01-16T13:49:36Z</time>
      </trkpt>
      <trkpt lat="43.31407" lon="2.22286">
        <ele>246.2</ele>
        <time>2022-01-16T13:49:44Z</time>
      </trkpt>
      <trkpt lat="43.31411" lon="2.22289">
        <ele>245.1</ele>
        <time>2022-01-16T13:49:49Z</time>
      </trkpt>
      <trkpt lat="43.31414" lon="2.22294">
        <ele>245.2</ele>
        <time>2022-01-16T13:49:54Z</time>
      </trkpt>
      <trkpt lat="43.3142" lon="2.22293">
        <ele>245.3</ele>
        <time>2022-01-16T13:49:59Z</time>
      </trkpt>
      <trkpt lat="43.31424" lon="2.22297">
        <ele>244.8</ele>
        <time>2022-01-16T13:50:04Z</time>
      </trkpt>
      <trkpt lat="43.31428" lon="2.22304">
        <ele>244.1</ele>
        <time>2022-01-16T13:50:09Z</time>
      </trkpt>
      <trkpt lat="43.31432" lon="2.22306">
        <ele>243.7</ele>
        <time>2022-01-16T13:50:13Z</time>
      </trkpt>
      <trkpt lat="43.31437" lon="2.2231">
        <ele>243.5</ele>
        <time>2022-01-16T13:50:17Z</time>
      </trkpt>
      <trkpt lat="43.31439" lon="2.22316">
        <ele>243.6</ele>
        <time>2022-01-16T13:50:22Z</time>
      </trkpt>
      <trkpt lat="43.31443" lon="2.22312">
        <ele>243</ele>
        <time>2022-01-16T13:50:30Z</time>
      </trkpt>
      <trkpt lat="43.31438" lon="2.22293">
        <ele>239.2</ele>
        <time>2022-01-16T13:50:46Z</time>
      </trkpt>
      <trkpt lat="43.31435" lon="2.22287">
        <ele>237.9</ele>
        <time>2022-01-16T13:50:52Z</time>
      </trkpt>
      <trkpt lat="43.31431" lon="2.22281">
        <ele>237</ele>
        <time>2022-01-16T13:50:58Z</time>
      </trkpt>
      <trkpt lat="43.31428" lon="2.22258">
        <ele>236.7</ele>
        <time>2022-01-16T13:51:11Z</time>
      </trkpt>
      <trkpt lat="43.31429" lon="2.22251">
        <ele>236.7</ele>
        <time>2022-01-16T13:51:15Z</time>
      </trkpt>
      <trkpt lat="43.31436" lon="2.22222">
        <ele>237.7</ele>
        <time>2022-01-16T13:51:30Z</time>
      </trkpt>
      <trkpt lat="43.3144" lon="2.22218">
        <ele>237</ele>
        <time>2022-01-16T13:51:35Z</time>
      </trkpt>
      <trkpt lat="43.31443" lon="2.2221">
        <ele>235.8</ele>
        <time>2022-01-16T13:51:41Z</time>
      </trkpt>
      <trkpt lat="43.31424" lon="2.22167">
        <ele>225.7</ele>
        <time>2022-01-16T13:52:10Z</time>
      </trkpt>
      <trkpt lat="43.31418" lon="2.22166">
        <ele>224.1</ele>
        <time>2022-01-16T13:52:15Z</time>
      </trkpt>
      <trkpt lat="43.3141" lon="2.22166">
        <ele>222.2</ele>
        <time>2022-01-16T13:52:21Z</time>
      </trkpt>
      <trkpt lat="43.314" lon="2.22168">
        <ele>221.3</ele>
        <time>2022-01-16T13:52:29Z</time>
      </trkpt>
      <trkpt lat="43.31394" lon="2.22168">
        <ele>221.7</ele>
        <time>2022-01-16T13:52:34Z</time>
      </trkpt>
      <trkpt lat="43.31388" lon="2.22167">
        <ele>221.5</ele>
        <time>2022-01-16T13:52:40Z</time>
      </trkpt>
      <trkpt lat="43.31378" lon="2.22165">
        <ele>220.6</ele>
        <time>2022-01-16T13:52:48Z</time>
      </trkpt>
      <trkpt lat="43.31367" lon="2.22161">
        <ele>220</ele>
        <time>2022-01-16T13:52:58Z</time>
      </trkpt>
      <trkpt lat="43.31362" lon="2.22158">
        <ele>220.1</ele>
        <time>2022-01-16T13:53:02Z</time>
      </trkpt>
      <trkpt lat="43.31357" lon="2.22152">
        <ele>220.1</ele>
        <time>2022-01-16T13:53:06Z</time>
      </trkpt>
      <trkpt lat="43.31356" lon="2.22146">
        <ele>219.5</ele>
        <time>2022-01-16T13:53:09Z</time>
      </trkpt>
      <trkpt lat="43.31352" lon="2.22141">
        <ele>218.7</ele>
        <time>2022-01-16T13:53:13Z</time>
      </trkpt>
      <trkpt lat="43.31331" lon="2.22118">
        <ele>215.1</ele>
        <time>2022-01-16T13:53:33Z</time>
      </trkpt>
      <trkpt lat="43.31322" lon="2.22111">
        <ele>214</ele>
        <time>2022-01-16T13:53:41Z</time>
      </trkpt>
      <trkpt lat="43.31318" lon="2.22107">
        <ele>213.9</ele>
        <time>2022-01-16T13:53:45Z</time>
      </trkpt>
      <trkpt lat="43.31313" lon="2.22104">
        <ele>214</ele>
        <time>2022-01-16T13:53:49Z</time>
      </trkpt>
      <trkpt lat="43.31309" lon="2.221">
        <ele>214.1</ele>
        <time>2022-01-16T13:53:52Z</time>
      </trkpt>
      <trkpt lat="43.31305" lon="2.22095">
        <ele>214.2</ele>
        <time>2022-01-16T13:53:56Z</time>
      </trkpt>
      <trkpt lat="43.31301" lon="2.22091">
        <ele>214.6</ele>
        <time>2022-01-16T13:54:01Z</time>
      </trkpt>
      <trkpt lat="43.3129" lon="2.22087">
        <ele>213.6</ele>
        <time>2022-01-16T13:54:10Z</time>
      </trkpt>
      <trkpt lat="43.31285" lon="2.22086">
        <ele>212.1</ele>
        <time>2022-01-16T13:54:15Z</time>
      </trkpt>
      <trkpt lat="43.31279" lon="2.22086">
        <ele>211.2</ele>
        <time>2022-01-16T13:54:19Z</time>
      </trkpt>
      <trkpt lat="43.31274" lon="2.22087">
        <ele>210.8</ele>
        <time>2022-01-16T13:54:24Z</time>
      </trkpt>
      <trkpt lat="43.3127" lon="2.2209">
        <ele>209.7</ele>
        <time>2022-01-16T13:54:28Z</time>
      </trkpt>
      <trkpt lat="43.31264" lon="2.22091">
        <ele>208.2</ele>
        <time>2022-01-16T13:54:45Z</time>
      </trkpt>
      <trkpt lat="43.31259" lon="2.22089">
        <ele>208.6</ele>
        <time>2022-01-16T13:54:47Z</time>
      </trkpt>
      <trkpt lat="43.31248" lon="2.22086">
        <ele>209.1</ele>
        <time>2022-01-16T13:54:54Z</time>
      </trkpt>
      <trkpt lat="43.31243" lon="2.22085">
        <ele>208.8</ele>
        <time>2022-01-16T13:54:57Z</time>
      </trkpt>
      <trkpt lat="43.31238" lon="2.22087">
        <ele>208.3</ele>
        <time>2022-01-16T13:55:02Z</time>
      </trkpt>
      <trkpt lat="43.31233" lon="2.22088">
        <ele>207.9</ele>
        <time>2022-01-16T13:55:06Z</time>
      </trkpt>
      <trkpt lat="43.31228" lon="2.22088">
        <ele>207.6</ele>
        <time>2022-01-16T13:55:09Z</time>
      </trkpt>
      <trkpt lat="43.31223" lon="2.22089">
        <ele>207.2</ele>
        <time>2022-01-16T13:55:14Z</time>
      </trkpt>
      <trkpt lat="43.31217" lon="2.2209">
        <ele>207.4</ele>
        <time>2022-01-16T13:55:18Z</time>
      </trkpt>
      <trkpt lat="43.312" lon="2.22089">
        <ele>207.8</ele>
        <time>2022-01-16T13:55:29Z</time>
      </trkpt>
      <trkpt lat="43.31195" lon="2.22087">
        <ele>207.8</ele>
        <time>2022-01-16T13:55:32Z</time>
      </trkpt>
      <trkpt lat="43.3119" lon="2.22085">
        <ele>207.9</ele>
        <time>2022-01-16T13:55:36Z</time>
      </trkpt>
      <trkpt lat="43.31185" lon="2.22086">
        <ele>207.5</ele>
        <time>2022-01-16T13:55:40Z</time>
      </trkpt>
      <trkpt lat="43.3118" lon="2.22084">
        <ele>206.7</ele>
        <time>2022-01-16T13:55:45Z</time>
      </trkpt>
      <trkpt lat="43.31175" lon="2.22083">
        <ele>206.1</ele>
        <time>2022-01-16T13:55:49Z</time>
      </trkpt>
      <trkpt lat="43.31155" lon="2.2208">
        <ele>203.1</ele>
        <time>2022-01-16T13:56:06Z</time>
      </trkpt>
      <trkpt lat="43.31145" lon="2.22083">
        <ele>201.2</ele>
        <time>2022-01-16T13:56:16Z</time>
      </trkpt>
      <trkpt lat="43.31144" lon="2.22089">
        <ele>199.7</ele>
        <time>2022-01-16T13:56:21Z</time>
      </trkpt>
      <trkpt lat="43.31144" lon="2.22083">
        <ele>199.1</ele>
        <time>2022-01-16T13:56:47Z</time>
      </trkpt>
      <trkpt lat="43.3114" lon="2.22079">
        <ele>199.1</ele>
        <time>2022-01-16T13:57:16Z</time>
      </trkpt>
      <trkpt lat="43.31134" lon="2.22081">
        <ele>198.8</ele>
        <time>2022-01-16T13:57:21Z</time>
      </trkpt>
      <trkpt lat="43.31129" lon="2.22081">
        <ele>198.1</ele>
        <time>2022-01-16T13:57:27Z</time>
      </trkpt>
      <trkpt lat="43.31124" lon="2.22082">
        <ele>197.5</ele>
        <time>2022-01-16T13:57:31Z</time>
      </trkpt>
      <trkpt lat="43.31119" lon="2.22081">
        <ele>197.2</ele>
        <time>2022-01-16T13:57:34Z</time>
      </trkpt>
      <trkpt lat="43.31112" lon="2.22078">
        <ele>197</ele>
        <time>2022-01-16T13:57:38Z</time>
      </trkpt>
      <trkpt lat="43.31108" lon="2.22075">
        <ele>197</ele>
        <time>2022-01-16T13:57:41Z</time>
      </trkpt>
      <trkpt lat="43.31103" lon="2.22069">
        <ele>197.5</ele>
        <time>2022-01-16T13:57:47Z</time>
      </trkpt>
      <trkpt lat="43.311" lon="2.22064">
        <ele>197.9</ele>
        <time>2022-01-16T13:57:51Z</time>
      </trkpt>
      <trkpt lat="43.31095" lon="2.22058">
        <ele>198</ele>
        <time>2022-01-16T13:57:56Z</time>
      </trkpt>
      <trkpt lat="43.3109" lon="2.22052">
        <ele>197.9</ele>
        <time>2022-01-16T13:58:01Z</time>
      </trkpt>
      <trkpt lat="43.31086" lon="2.22049">
        <ele>197.7</ele>
        <time>2022-01-16T13:58:05Z</time>
      </trkpt>
      <trkpt lat="43.31078" lon="2.22039">
        <ele>197</ele>
        <time>2022-01-16T13:58:12Z</time>
      </trkpt>
      <trkpt lat="43.31071" lon="2.22028">
        <ele>196</ele>
        <time>2022-01-16T13:58:19Z</time>
      </trkpt>
      <trkpt lat="43.31067" lon="2.22023">
        <ele>195.3</ele>
        <time>2022-01-16T13:58:23Z</time>
      </trkpt>
      <trkpt lat="43.31063" lon="2.22018">
        <ele>194.6</ele>
        <time>2022-01-16T13:58:27Z</time>
      </trkpt>
      <trkpt lat="43.31058" lon="2.22013">
        <ele>194.2</ele>
        <time>2022-01-16T13:58:30Z</time>
      </trkpt>
      <trkpt lat="43.3105" lon="2.22007">
        <ele>194.5</ele>
        <time>2022-01-16T13:58:38Z</time>
      </trkpt>
      <trkpt lat="43.31046" lon="2.22002">
        <ele>194.4</ele>
        <time>2022-01-16T13:58:43Z</time>
      </trkpt>
      <trkpt lat="43.3104" lon="2.22">
        <ele>193.8</ele>
        <time>2022-01-16T13:58:47Z</time>
      </trkpt>
      <trkpt lat="43.31029" lon="2.21999">
        <ele>192.4</ele>
        <time>2022-01-16T13:58:57Z</time>
      </trkpt>
      <trkpt lat="43.31024" lon="2.22">
        <ele>192.1</ele>
        <time>2022-01-16T13:59:02Z</time>
      </trkpt>
      <trkpt lat="43.31018" lon="2.22001">
        <ele>191.3</ele>
        <time>2022-01-16T13:59:06Z</time>
      </trkpt>
      <trkpt lat="43.31005" lon="2.22002">
        <ele>188.1</ele>
        <time>2022-01-16T13:59:17Z</time>
      </trkpt>
      <trkpt lat="43.30999" lon="2.22002">
        <ele>186.9</ele>
        <time>2022-01-16T13:59:21Z</time>
      </trkpt>
      <trkpt lat="43.30994" lon="2.22002">
        <ele>185.8</ele>
        <time>2022-01-16T13:59:25Z</time>
      </trkpt>
      <trkpt lat="43.30987" lon="2.22003">
        <ele>185</ele>
        <time>2022-01-16T13:59:30Z</time>
      </trkpt>
      <trkpt lat="43.30978" lon="2.22">
        <ele>183.6</ele>
        <time>2022-01-16T13:59:37Z</time>
      </trkpt>
      <trkpt lat="43.30973" lon="2.22">
        <ele>182.9</ele>
        <time>2022-01-16T13:59:41Z</time>
      </trkpt>
      <trkpt lat="43.30968" lon="2.22">
        <ele>182</ele>
        <time>2022-01-16T13:59:45Z</time>
      </trkpt>
      <trkpt lat="43.30957" lon="2.21997">
        <ele>180</ele>
        <time>2022-01-16T13:59:54Z</time>
      </trkpt>
      <trkpt lat="43.30951" lon="2.21996">
        <ele>178.9</ele>
        <time>2022-01-16T13:59:59Z</time>
      </trkpt>
      <trkpt lat="43.30947" lon="2.21995">
        <ele>178</ele>
        <time>2022-01-16T14:00:02Z</time>
      </trkpt>
      <trkpt lat="43.30942" lon="2.21995">
        <ele>177.1</ele>
        <time>2022-01-16T14:00:05Z</time>
      </trkpt>
      <trkpt lat="43.30931" lon="2.21995">
        <ele>174.6</ele>
        <time>2022-01-16T14:00:14Z</time>
      </trkpt>
      <trkpt lat="43.30903" lon="2.21995">
        <ele>170.5</ele>
        <time>2022-01-16T14:00:35Z</time>
      </trkpt>
      <trkpt lat="43.30893" lon="2.21995">
        <ele>169.6</ele>
        <time>2022-01-16T14:00:44Z</time>
      </trkpt>
      <trkpt lat="43.30888" lon="2.21994">
        <ele>168.6</ele>
        <time>2022-01-16T14:00:48Z</time>
      </trkpt>
      <trkpt lat="43.30883" lon="2.21992">
        <ele>168.2</ele>
        <time>2022-01-16T14:00:51Z</time>
      </trkpt>
      <trkpt lat="43.30879" lon="2.21989">
        <ele>167.8</ele>
        <time>2022-01-16T14:00:55Z</time>
      </trkpt>
      <trkpt lat="43.30872" lon="2.21984">
        <ele>167.1</ele>
        <time>2022-01-16T14:01:03Z</time>
      </trkpt>
      <trkpt lat="43.30867" lon="2.21981">
        <ele>167.1</ele>
        <time>2022-01-16T14:01:07Z</time>
      </trkpt>
      <trkpt lat="43.30861" lon="2.21976">
        <ele>167.4</ele>
        <time>2022-01-16T14:01:12Z</time>
      </trkpt>
      <trkpt lat="43.30848" lon="2.21962">
        <ele>168</ele>
        <time>2022-01-16T14:01:25Z</time>
      </trkpt>
      <trkpt lat="43.3084" lon="2.21952">
        <ele>167.3</ele>
        <time>2022-01-16T14:01:33Z</time>
      </trkpt>
      <trkpt lat="43.30831" lon="2.21945">
        <ele>165.6</ele>
        <time>2022-01-16T14:01:41Z</time>
      </trkpt>
      <trkpt lat="43.30827" lon="2.2194">
        <ele>165.2</ele>
        <time>2022-01-16T14:01:45Z</time>
      </trkpt>
      <trkpt lat="43.30824" lon="2.21935">
        <ele>164.5</ele>
        <time>2022-01-16T14:01:49Z</time>
      </trkpt>
      <trkpt lat="43.30822" lon="2.2193">
        <ele>163.8</ele>
        <time>2022-01-16T14:01:53Z</time>
      </trkpt>
      <trkpt lat="43.3082" lon="2.21923">
        <ele>162.9</ele>
        <time>2022-01-16T14:01:56Z</time>
      </trkpt>
      <trkpt lat="43.30818" lon="2.21915">
        <ele>162</ele>
        <time>2022-01-16T14:01:59Z</time>
      </trkpt>
      <trkpt lat="43.30818" lon="2.21908">
        <ele>160.5</ele>
        <time>2022-01-16T14:02:03Z</time>
      </trkpt>
      <trkpt lat="43.30817" lon="2.21901">
        <ele>159.2</ele>
        <time>2022-01-16T14:02:09Z</time>
      </trkpt>
      <trkpt lat="43.30815" lon="2.21896">
        <ele>158.9</ele>
        <time>2022-01-16T14:02:13Z</time>
      </trkpt>
      <trkpt lat="43.30811" lon="2.21894">
        <ele>158.7</ele>
        <time>2022-01-16T14:02:16Z</time>
      </trkpt>
      <trkpt lat="43.30805" lon="2.21892">
        <ele>157.9</ele>
        <time>2022-01-16T14:02:20Z</time>
      </trkpt>
      <trkpt lat="43.30799" lon="2.21889">
        <ele>155.9</ele>
        <time>2022-01-16T14:02:24Z</time>
      </trkpt>
      <trkpt lat="43.30795" lon="2.21887">
        <ele>154.6</ele>
        <time>2022-01-16T14:02:28Z</time>
      </trkpt>
      <trkpt lat="43.3079" lon="2.21884">
        <ele>152.6</ele>
        <time>2022-01-16T14:02:32Z</time>
      </trkpt>
      <trkpt lat="43.30785" lon="2.21884">
        <ele>150.9</ele>
        <time>2022-01-16T14:02:37Z</time>
      </trkpt>
      <trkpt lat="43.30779" lon="2.21884">
        <ele>149.4</ele>
        <time>2022-01-16T14:02:41Z</time>
      </trkpt>
      <trkpt lat="43.30773" lon="2.21883">
        <ele>148</ele>
        <time>2022-01-16T14:02:44Z</time>
      </trkpt>
      <trkpt lat="43.30763" lon="2.21877">
        <ele>145.4</ele>
        <time>2022-01-16T14:02:52Z</time>
      </trkpt>
      <trkpt lat="43.30759" lon="2.21875">
        <ele>144.4</ele>
        <time>2022-01-16T14:02:57Z</time>
      </trkpt>
      <trkpt lat="43.30754" lon="2.21871">
        <ele>143.7</ele>
        <time>2022-01-16T14:03:02Z</time>
      </trkpt>
      <trkpt lat="43.30752" lon="2.21865">
        <ele>143.5</ele>
        <time>2022-01-16T14:03:06Z</time>
      </trkpt>
      <trkpt lat="43.30751" lon="2.21858">
        <ele>143.6</ele>
        <time>2022-01-16T14:03:11Z</time>
      </trkpt>
      <trkpt lat="43.3075" lon="2.21865">
        <ele>143.6</ele>
        <time>2022-01-16T14:03:28Z</time>
      </trkpt>
      <trkpt lat="43.30752" lon="2.21856">
        <ele>144.4</ele>
        <time>2022-01-16T14:03:52Z</time>
      </trkpt>
      <trkpt lat="43.3075" lon="2.2185">
        <ele>144.7</ele>
        <time>2022-01-16T14:03:57Z</time>
      </trkpt>
      <trkpt lat="43.30749" lon="2.21837">
        <ele>144.7</ele>
        <time>2022-01-16T14:04:06Z</time>
      </trkpt>
      <trkpt lat="43.3075" lon="2.21829">
        <ele>144.7</ele>
        <time>2022-01-16T14:04:10Z</time>
      </trkpt>
      <trkpt lat="43.3075" lon="2.21821">
        <ele>144.5</ele>
        <time>2022-01-16T14:04:14Z</time>
      </trkpt>
      <trkpt lat="43.3075" lon="2.21807">
        <ele>144.3</ele>
        <time>2022-01-16T14:04:20Z</time>
      </trkpt>
      <trkpt lat="43.30751" lon="2.21794">
        <ele>144.4</ele>
        <time>2022-01-16T14:04:27Z</time>
      </trkpt>
      <trkpt lat="43.30755" lon="2.21781">
        <ele>143.8</ele>
        <time>2022-01-16T14:04:36Z</time>
      </trkpt>
      <trkpt lat="43.30757" lon="2.21774">
        <ele>143.8</ele>
        <time>2022-01-16T14:04:40Z</time>
      </trkpt>
      <trkpt lat="43.30761" lon="2.21762">
        <ele>144.9</ele>
        <time>2022-01-16T14:04:47Z</time>
      </trkpt>
      <trkpt lat="43.30761" lon="2.21754">
        <ele>145.8</ele>
        <time>2022-01-16T14:04:51Z</time>
      </trkpt>
      <trkpt lat="43.30766" lon="2.21757">
        <ele>146.4</ele>
        <time>2022-01-16T14:04:56Z</time>
      </trkpt>
      <trkpt lat="43.3077" lon="2.2176">
        <ele>146.4</ele>
        <time>2022-01-16T14:05:00Z</time>
      </trkpt>
      <trkpt lat="43.30769" lon="2.21753">
        <ele>144</ele>
        <time>2022-01-16T14:05:22Z</time>
      </trkpt>
      <trkpt lat="43.30772" lon="2.21746">
        <ele>143.4</ele>
        <time>2022-01-16T14:05:26Z</time>
      </trkpt>
      <trkpt lat="43.30775" lon="2.21738">
        <ele>142.9</ele>
        <time>2022-01-16T14:05:32Z</time>
      </trkpt>
      <trkpt lat="43.30779" lon="2.21733">
        <ele>142.7</ele>
        <time>2022-01-16T14:05:38Z</time>
      </trkpt>
      <trkpt lat="43.30776" lon="2.21728">
        <ele>143.7</ele>
        <time>2022-01-16T14:05:44Z</time>
      </trkpt>
      <trkpt lat="43.30779" lon="2.21714">
        <ele>146.9</ele>
        <time>2022-01-16T14:06:06Z</time>
      </trkpt>
      <trkpt lat="43.30785" lon="2.21709">
        <ele>148.1</ele>
        <time>2022-01-16T14:06:14Z</time>
      </trkpt>
      <trkpt lat="43.30786" lon="2.21696">
        <ele>150.9</ele>
        <time>2022-01-16T14:06:24Z</time>
      </trkpt>
      <trkpt lat="43.30787" lon="2.21689">
        <ele>151.5</ele>
        <time>2022-01-16T14:06:28Z</time>
      </trkpt>
      <trkpt lat="43.30789" lon="2.21682">
        <ele>151.9</ele>
        <time>2022-01-16T14:06:31Z</time>
      </trkpt>
      <trkpt lat="43.30793" lon="2.2167">
        <ele>153.2</ele>
        <time>2022-01-16T14:06:38Z</time>
      </trkpt>
      <trkpt lat="43.30797" lon="2.21655">
        <ele>156.3</ele>
        <time>2022-01-16T14:06:46Z</time>
      </trkpt>
      <trkpt lat="43.308" lon="2.21642">
        <ele>160.7</ele>
        <time>2022-01-16T14:06:54Z</time>
      </trkpt>
      <trkpt lat="43.30802" lon="2.21634">
        <ele>162.9</ele>
        <time>2022-01-16T14:06:58Z</time>
      </trkpt>
      <trkpt lat="43.30802" lon="2.21622">
        <ele>164.6</ele>
        <time>2022-01-16T14:07:06Z</time>
      </trkpt>
      <trkpt lat="43.30799" lon="2.21615">
        <ele>165</ele>
        <time>2022-01-16T14:07:11Z</time>
      </trkpt>
      <trkpt lat="43.30802" lon="2.21609">
        <ele>165.1</ele>
        <time>2022-01-16T14:07:15Z</time>
      </trkpt>
      <trkpt lat="43.30801" lon="2.21603">
        <ele>164.7</ele>
        <time>2022-01-16T14:07:20Z</time>
      </trkpt>
      <trkpt lat="43.30777" lon="2.21591">
        <ele>164.4</ele>
        <time>2022-01-16T14:07:38Z</time>
      </trkpt>
      <trkpt lat="43.30767" lon="2.21591">
        <ele>163.5</ele>
        <time>2022-01-16T14:07:44Z</time>
      </trkpt>
      <trkpt lat="43.30763" lon="2.21586">
        <ele>163.4</ele>
        <time>2022-01-16T14:07:51Z</time>
      </trkpt>
      <trkpt lat="43.30761" lon="2.21581">
        <ele>160.8</ele>
        <time>2022-01-16T14:08:54Z</time>
      </trkpt>
      <trkpt lat="43.30766" lon="2.21582">
        <ele>160.7</ele>
        <time>2022-01-16T14:09:10Z</time>
      </trkpt>
    </trkseg>
  </trk>
</gpx>